[[{"header":{"parameterUnit":"m.s-1","parameterCategory":1,"la1":30.6,"la2":28.766,"lo1":-90.7593,"lo2":-88.6598,"dy":0.0162,"dx":0.0183,"nx":116,"ny":114,"refTime":"2023-05-25T18:00:00:Z","depth":0,"parameterNumber":2,"parameterNumberName":"U-component_of_WINDS"},"data":[0.0,0.0,0.0,0.0,0.0,0.0,0.0,0.0,0.0,0.0,0.0,0.0,0.0,0.0,0.0,0.0,0.0,0.0,0.0,0.0,0.0,0.0,0.0,0.0,0.0,0.0,0.0,0.0,0.0,0.0,0.0,0.0,0.0,0.0,0.0,0.0,0.0,0.0,0.0,0.0,0.0,0.0,0.0,0.0,0.0,0.0,0.0,0.0,0.0,0.0,0.0,0.0,0.0,0.0,0.0,0.0,0.0,0.0,0.0,0.0,0.0,0.0,0.0,0.0,0.0,0.0,0.0,0.0,0.0,0.0,0.0,0.0,0.0,0.0,0.0,0.0,0.0,0.0,0.0,0.0,0.0,0.0,0.0,0.0,0.0,0.0,0.0,0.0,0.0,0.0,0.0,0.0,0.0,0.0,0.0,0.0,0.0,0.0,0.0,0.0,0.0,0.0,0.0,0.0,0.0,0.0,0.0,0.0,0.0,0.0,0.0,0.0,0.0,0.0,0.0,0.0,0.0,0.0,0.0,0.0,0.0,0.0,0.0,0.0,0.0,0.0,0.0,0.0,0.0,0.0,0.0,0.0,0.0,0.0,0.0,0.0,0.0,0.0,0.0,0.0,0.0,0.0,0.0,0.0,0.0,0.0,0.0,0.0,0.0,0.0,0.0,0.0,0.0,0.0,0.0,0.0,0.0,0.0,0.0,0.0,0.0,0.0,0.0,0.0,0.0,0.0,0.0,0.0,0.0,0.0,0.0,0.0,0.0,0.0,0.0,0.0,0.0,0.0,0.0,0.0,0.0,0.0,0.0,0.0,0.0,0.0,0.0,0.0,0.0,0.0,0.0,0.0,0.0,0.0,0.0,0.0,0.0,0.0,0.0,0.0,0.0,0.0,0.0,0.0,0.0,0.0,0.0,0.0,0.0,0.0,0.0,0.0,0.0,0.0,0.0,0.0,0.0,0.0,0.0,0.0,0.0,0.0,0.0,0.0,0.0,0.0,0.0,0.0,0.0,0.0,0.0,0.0,0.0,0.0,0.0,0.0,0.0,0.0,0.0,0.0,0.0,0.0,0.0,0.0,0.0,0.0,0.0,0.0,0.0,0.0,0.0,0.0,0.0,0.0,0.0,0.0,0.0,0.0,0.0,0.0,0.0,0.0,0.0,0.0,0.0,0.0,0.0,0.0,0.0,0.0,0.0,0.0,0.0,0.0,0.0,0.0,0.0,0.0,0.0,0.0,0.0,0.0,0.0,0.0,0.0,0.0,0.0,0.0,0.0,0.0,0.0,0.0,0.0,0.0,0.0,0.0,0.0,0.0,0.0,0.0,0.0,0.0,0.0,0.0,0.0,0.0,0.0,0.0,0.0,0.0,0.0,0.0,0.0,0.0,0.0,0.0,0.0,0.0,0.0,0.0,0.0,0.0,0.0,0.0,0.0,0.0,0.0,0.0,0.0,0.0,0.0,0.0,0.0,0.0,0.0,0.0,0.0,0.0,0.0,0.0,0.0,0.0,0.0,0.0,0.0,0.0,0.0,0.0,0.0,0.0,0.0,0.0,0.0,0.0,0.0,0.0,0.0,0.0,0.0,0.0,0.0,0.0,0.0,0.0,0.0,0.0,0.0,0.0,0.0,0.0,0.0,0.0,0.0,0.0,0.0,0.0,0.0,0.0,0.0,0.0,0.0,0.0,0.0,0.0,0.0,0.0,0.0,0.0,0.0,0.0,0.0,0.0,0.0,0.0,0.0,0.0,0.0,0.0,0.0,0.0,0.0,0.0,0.0,0.0,0.0,0.0,0.0,0.0,0.0,0.0,0.0,0.0,0.0,0.0,0.0,0.0,0.0,0.0,0.0,0.0,0.0,0.0,0.0,0.0,0.0,0.0,0.0,0.0,0.0,0.0,0.0,0.0,0.0,0.0,0.0,0.0,0.0,0.0,0.0,0.0,0.0,0.0,0.0,0.0,0.0,0.0,0.0,0.0,0.0,0.0,0.0,0.0,0.0,0.0,0.0,0.0,0.0,0.0,0.0,0.0,0.0,0.0,0.0,0.0,0.0,0.0,0.0,0.0,0.0,0.0,0.0,0.0,0.0,0.0,0.0,0.0,0.0,0.0,0.0,0.0,0.0,0.0,0.0,0.0,0.0,0.0,0.0,0.0,0.0,0.0,0.0,0.0,0.0,0.0,0.0,0.0,0.0,0.0,0.0,0.0,0.0,0.0,0.0,0.0,0.0,0.0,0.0,0.0,0.0,0.0,0.0,0.0,0.0,0.0,0.0,0.0,0.0,0.0,0.0,0.0,0.0,0.0,0.0,0.0,0.0,0.0,0.0,0.0,0.0,0.0,0.0,0.0,0.0,0.0,0.0,0.0,0.0,0.0,0.0,0.0,0.0,0.0,0.0,0.0,0.0,0.0,0.0,0.0,0.0,0.0,0.0,0.0,0.0,0.0,0.0,0.0,0.0,0.0,0.0,0.0,0.0,0.0,0.0,0.0,0.0,0.0,0.0,0.0,0.0,0.0,0.0,0.0,0.0,0.0,0.0,0.0,0.0,0.0,0.0,0.0,0.0,0.0,0.0,0.0,0.0,0.0,0.0,0.0,0.0,0.0,0.0,0.0,0.0,0.0,0.0,0.0,0.0,0.0,0.0,0.0,0.0,0.0,0.0,0.0,0.0,0.0,0.0,0.0,0.0,0.0,0.0,0.0,0.0,0.0,0.0,0.0,0.0,0.0,0.0,0.0,0.0,0.0,0.0,0.0,0.0,0.0,0.0,0.0,0.0,0.0,0.0,0.0,0.0,0.0,0.0,0.0,0.0,0.0,0.0,0.0,0.0,0.0,0.0,0.0,0.0,0.0,0.0,0.0,0.0,0.0,0.0,0.0,0.0,0.0,0.0,0.0,0.0,0.0,0.0,0.0,0.0,0.0,0.0,0.0,0.0,0.0,0.0,0.0,0.0,0.0,0.0,0.0,0.0,0.0,0.0,0.0,0.0,0.0,0.0,0.0,0.0,0.0,0.0,0.0,0.0,0.0,0.0,0.0,0.0,0.0,0.0,0.0,0.0,0.0,0.0,0.0,0.0,0.0,0.0,0.0,0.0,0.0,0.0,0.0,0.0,0.0,0.0,0.0,0.0,0.0,0.0,0.0,0.0,0.0,0.0,0.0,0.0,0.0,0.0,0.0,0.0,0.0,0.0,0.0,0.0,0.0,0.0,0.0,0.0,0.0,0.0,0.0,0.0,0.0,0.0,0.0,0.0,0.0,0.0,0.0,0.0,0.0,0.0,0.0,0.0,0.0,0.0,0.0,0.0,0.0,0.0,0.0,0.0,0.0,0.0,0.0,0.0,0.0,0.0,0.0,0.0,0.0,0.0,0.0,0.0,0.0,0.0,0.0,0.0,0.0,0.0,0.0,0.0,0.0,0.0,0.0,0.0,0.0,0.0,0.0,0.0,0.0,0.0,0.0,0.0,0.0,0.0,0.0,0.0,0.0,0.0,0.0,0.0,0.0,0.0,0.0,0.0,0.0,0.0,0.0,0.0,0.0,0.0,0.0,0.0,0.0,0.0,0.0,0.0,0.0,0.0,0.0,0.0,0.0,0.0,0.0,0.0,0.0,0.0,0.0,0.0,0.0,0.0,0.0,0.0,0.0,0.0,0.0,0.0,0.0,0.0,0.0,0.0,0.0,0.0,0.0,0.0,0.0,0.0,0.0,0.0,0.0,0.0,0.0,0.0,0.0,0.0,0.0,0.0,0.0,0.0,0.0,0.0,0.0,0.0,0.0,0.0,0.0,0.0,0.0,0.0,0.0,0.0,0.0,0.0,0.0,0.0,0.0,0.0,0.0,0.0,0.0,0.0,0.0,0.0,0.0,0.0,0.0,0.0,0.0,0.0,0.0,0.0,0.0,0.0,0.0,0.0,0.0,0.0,0.0,0.0,0.0,0.0,0.0,0.0,0.0,0.0,0.0,0.0,0.0,0.0,0.0,0.0,0.0,0.0,0.0,0.0,0.0,0.0,0.0,0.0,0.0,0.0,0.0,0.0,0.0,0.0,0.0,0.0,0.0,0.0,0.0,0.0,0.0,0.0,0.0,0.0,0.0,0.0,0.0,0.0,0.0,0.0,0.0,0.0,0.0,0.0,0.0,0.0,0.0,0.0,0.0,0.0,0.0,0.0,0.0,0.0,0.0,0.0,0.0,0.0,0.0,0.0,0.0,0.0,0.0,0.0,0.0,0.0,0.0,0.0,0.0,0.0,0.0,0.0,0.0,0.0,0.0,0.0,0.0,0.0,0.0,0.0,0.0,0.0,0.0,0.0,0.0,0.0,0.0,0.0,0.0,0.0,0.0,0.0,0.0,0.0,0.0,0.0,0.0,0.0,0.0,0.0,0.0,0.0,0.0,0.0,0.0,0.0,0.0,0.0,0.0,0.0,0.0,0.0,0.0,0.0,0.0,0.0,0.0,0.0,0.0,0.0,0.0,0.0,0.0,0.0,0.0,0.0,0.0,0.0,0.0,0.0,0.0,0.0,0.0,0.0,0.0,0.0,0.0,0.0,0.0,0.0,0.0,0.0,0.0,0.0,0.0,0.0,0.0,0.0,0.0,0.0,0.0,0.0,0.0,0.0,0.0,0.0,0.0,0.0,0.0,0.0,0.0,0.0,0.0,0.0,0.0,0.0,0.0,0.0,0.0,0.0,0.0,0.0,0.0,0.0,0.0,0.0,0.0,0.0,0.0,0.0,0.0,0.0,0.0,0.0,0.0,0.0,0.0,0.0,0.0,0.0,0.0,0.0,0.0,0.0,0.0,0.0,0.0,0.0,0.0,0.0,0.0,0.0,0.0,0.0,0.0,0.0,0.0,0.0,0.0,0.0,0.0,0.0,0.0,0.0,0.0,0.0,0.0,0.0,0.0,0.0,0.0,0.0,0.0,0.0,0.0,0.0,0.0,0.0,0.0,0.0,0.0,0.0,0.0,0.0,0.0,0.0,0.0,0.0,0.0,0.0,0.0,0.0,0.0,0.0,0.0,0.0,0.0,0.0,0.0,0.0,0.0,0.0,0.0,0.0,0.0,0.0,0.0,0.0,0.0,0.0,0.0,0.0,0.0,0.0,0.0,0.0,0.0,0.0,0.0,0.0,0.0,0.0,0.0,0.0,0.0,0.0,0.0,0.0,0.0,0.0,0.0,0.0,0.0,0.0,0.0,0.0,0.0,0.0,0.0,0.0,0.0,0.0,0.0,0.0,0.0,0.0,0.0,0.0,0.0,0.0,0.0,0.0,0.0,0.0,0.0,0.0,0.0,0.0,0.0,0.0,0.0,0.0,0.0,0.0,0.0,0.0,0.0,0.0,0.0,0.0,0.0,0.0,0.0,0.0,0.0,0.0,0.0,0.0,0.0,0.0,0.0,0.0,0.0,0.0,0.0,0.0,0.0,0.0,0.0,0.0,0.0,0.0,0.0,0.0,0.0,0.0,0.0,0.0,0.0,0.0,0.0,0.0,0.0,0.0,0.0,0.0,0.0,0.0,0.0,0.0,0.0,0.0,0.0,0.0,0.0,0.0,0.0,0.0,0.0,0.0,0.0,0.0,0.0,0.0,0.0,0.0,0.0,0.0,0.0,0.0,0.0,0.0,0.0,0.0,0.0,0.0,0.0,0.0,0.0,0.0,0.0,0.0,0.0,0.0,0.0,0.0,0.0,0.0,0.0,0.0,0.0,0.0,0.0,0.0,0.0,0.0,0.0,0.0,0.0,0.0,0.0,0.0,0.0,0.0,0.0,0.0,0.0,0.0,0.0,0.0,0.0,0.0,0.0,0.0,0.0,0.0,0.0,0.0,0.0,0.0,0.0,0.0,0.0,0.0,0.0,0.0,0.0,0.0,0.0,0.0,0.0,0.0,0.0,0.0,0.0,0.0,0.0,0.0,0.0,0.0,0.0,0.0,0.0,0.0,0.0,0.0,0.0,0.0,0.0,0.0,0.0,0.0,0.0,0.0,0.0,0.0,0.0,0.0,0.0,0.0,0.0,0.0,0.0,0.0,0.0,0.0,0.0,0.0,0.0,0.0,0.0,0.0,0.0,0.0,0.0,0.0,0.0,1.6435,1.5048,0.0,0.0,0.0,0.0,0.0,0.0,0.0,0.0,0.0,0.0,0.0,0.0,0.0,0.0,0.0,0.0,0.0,0.0,0.0,0.0,0.0,0.0,0.0,0.0,0.0,0.0,0.0,0.0,0.0,0.0,0.0,0.0,0.0,0.0,0.0,0.0,0.0,0.0,0.0,0.0,0.0,0.0,0.0,0.0,0.0,0.0,0.0,0.0,0.0,0.0,0.0,0.0,0.0,0.0,0.0,0.0,0.0,0.0,0.0,0.0,0.0,0.0,0.0,0.0,0.0,0.0,0.0,0.0,0.0,0.0,0.0,0.0,0.0,0.0,0.0,0.0,0.0,0.0,0.0,0.0,0.0,0.0,0.0,0.0,0.0,0.0,0.0,0.0,0.0,0.0,0.0,0.0,0.0,0.0,0.0,0.0,0.0,0.0,0.0,0.0,0.0,0.0,0.0,0.0,0.0,0.0,0.0,0.0,0.0,0.0,0.0,0.0,0.0,0.0,1.7478,1.6492,0.0,0.0,0.0,0.0,0.0,0.0,0.0,0.0,0.0,0.0,0.0,0.0,0.0,0.0,0.0,0.0,0.0,0.0,0.0,0.0,0.0,0.0,0.0,0.0,0.0,0.0,0.0,0.0,0.0,0.0,0.0,0.0,0.0,0.0,0.0,0.0,0.0,0.0,0.0,0.0,0.0,0.0,0.0,0.0,0.0,0.0,0.0,0.0,0.0,0.0,0.0,0.0,0.0,0.0,0.0,0.0,0.0,0.0,0.0,0.0,0.0,0.0,0.0,0.0,0.0,0.0,0.0,0.0,0.0,0.0,0.0,0.0,0.0,0.0,0.0,0.0,0.0,0.0,0.0,0.0,0.0,0.0,0.0,0.0,0.0,0.0,0.0,0.0,0.0,0.0,0.0,0.0,0.0,0.0,0.0,0.0,0.0,0.0,0.0,0.0,0.0,0.0,0.0,0.0,0.0,0.0,0.0,0.0,2.0412,2.059,2.016,1.9996,2.019,2.049,1.8784,1.8297,1.8577,1.6901,0.0,0.0,0.0,0.0,0.0,0.0,0.0,0.0,0.0,0.0,0.0,0.0,0.0,0.0,0.0,0.0,0.0,0.0,0.0,0.0,0.0,0.0,0.0,0.0,0.0,0.0,0.0,0.0,0.0,0.0,0.0,0.0,0.0,0.0,0.0,0.0,0.0,0.0,1.0517,1.2469,1.3302,1.3182,1.2487,0.0,0.0,0.0,0.0,0.0,0.0,0.0,0.0,0.0,0.0,0.0,0.0,0.0,0.0,0.0,0.0,0.0,0.0,0.0,0.0,0.0,0.0,0.0,0.0,0.0,0.0,0.0,0.0,0.0,0.0,0.0,0.0,0.0,0.0,0.0,0.0,0.0,0.0,0.0,0.0,0.0,0.0,0.0,1.9853,1.9944,0.0,0.0,0.0,0.0,0.0,0.0,0.0,0.0,0.0,0.0,0.0,0.0,0.0,2.0784,2.1134,2.2219,2.2723,2.2713,2.3632,2.4047,2.3961,2.3266,2.2932,2.2894,2.1573,0.0,1.8572,1.8147,0.0,0.0,0.0,0.0,0.0,0.0,0.0,0.0,0.0,0.0,0.0,0.0,0.0,0.0,0.0,0.0,0.0,0.0,0.0,0.0,0.0,0.0,0.0,0.0,0.0,0.0,0.0,0.0,0.0,0.0,0.0,0.0,0.0,0.0,0.0,0.0,0.8012,0.9161,1.0002,1.1387,1.2006,1.1871,1.1957,1.273,1.394,1.3359,0.0,0.0,0.0,0.0,0.0,0.0,0.0,0.0,0.0,0.0,0.0,0.0,0.0,0.0,0.0,0.0,0.0,0.0,0.0,0.0,0.0,0.0,0.0,0.0,0.0,0.0,0.0,0.0,0.0,0.0,0.0,0.0,0.0,0.0,0.0,0.0,0.0,0.0,0.0,1.9787,2.0963,2.0011,2.0178,1.9856,0.0,0.0,0.0,0.0,0.0,0.0,0.0,0.0,0.0,2.2933,2.2518,2.2654,2.3401,2.4279,2.4809,2.5068,2.6323,2.6644,2.6034,2.5343,2.4688,2.3992,2.2602,2.1476,2.0584,1.917,1.8397,1.799,0.0,0.0,0.0,0.0,1.6386,1.6415,0.0,0.0,0.0,0.0,0.0,0.0,0.0,0.0,0.0,0.0,0.0,0.0,0.0,0.0,0.0,0.3385,0.0,0.0,0.0,0.0,0.0,0.0,0.0,0.0,0.0,0.0,0.0,0.673,0.7173,0.757,0.7956,0.8062,0.894,1.0356,1.1111,1.284,1.5077,1.4262,1.3904,0.0,0.0,0.0,0.0,0.0,0.0,0.0,0.0,0.0,0.0,0.0,0.0,0.0,0.0,0.0,0.0,0.0,0.0,0.0,0.0,0.0,0.0,0.0,0.0,0.0,0.0,0.0,0.0,0.0,0.0,0.0,0.0,0.0,0.0,0.0,0.0,0.0,0.0,2.1269,2.252,2.0781,2.1861,2.1881,0.0,0.0,0.0,0.0,0.0,0.0,2.403,2.3916,2.4304,2.5358,2.4986,2.5129,2.5842,2.6292,2.6616,2.6923,2.7994,2.808,2.73,2.6698,2.5976,2.5123,2.3553,2.2917,2.2871,2.0563,1.9751,1.981,1.8569,1.7907,1.7662,1.7566,1.7374,1.7241,0.0,0.0,0.0,0.0,0.0,0.0,0.0,0.0,0.0,0.0,0.0,0.0,0.0,0.0,0.3514,0.3406,0.4018,0.4366,0.0,0.0,0.0,0.0,0.0,0.0,0.0,0.0,0.0,0.3929,0.3703,0.3653,0.3749,0.1811,0.3901,0.9323,1.0197,1.2123,1.4688,1.4083,1.4801,1.618,0.0,0.0,0.0,0.0,0.0,0.0,0.0,0.0,0.0,0.0,0.0,0.0,0.0,0.0,0.0,0.0,0.0,0.0,0.0,0.0,0.0,0.0,0.0,0.0,0.0,0.0,0.0,0.0,0.0,0.0,0.0,0.0,0.0,0.0,0.0,0.0,0.0,0.0,0.0,2.3417,2.5127,0.0,0.0,0.0,0.0,2.5057,2.5124,2.6083,2.8177,2.7735,2.822,2.9922,2.9417,2.8802,2.8239,2.8252,2.8269,2.8306,2.8059,2.7928,2.7849,2.7221,2.6925,2.6776,2.5103,2.4636,2.4912,2.2751,2.1679,2.1361,2.108,2.0721,2.0309,2.0291,1.9834,1.9346,0.0,0.0,0.0,0.0,0.0,0.0,0.0,0.0,0.0,0.0,0.0,0.0,0.0,0.2796,0.2811,0.2588,0.3202,0.3422,0.2898,0.0,0.0,0.0,0.0,0.0,0.0,0.0,0.1785,0.192,-0.0928,-0.1755,-0.0817,-0.3366,-0.3357,-0.0999,0.4472,0.8153,1.0512,1.4369,1.5103,1.3742,1.3835,1.322,0.0,0.0,0.0,0.0,0.0,0.0,0.0,0.0,0.0,0.0,0.0,0.0,0.0,0.0,0.0,0.0,0.0,0.0,0.0,0.0,0.0,0.0,0.0,0.0,0.0,0.0,0.0,0.0,0.0,0.0,0.0,0.0,0.0,0.0,0.0,0.0,0.0,2.4466,2.6139,0.0,2.5917,2.6982,2.7935,2.8362,2.9315,3.0166,3.0825,3.0641,3.0323,2.9844,2.9632,2.9025,2.7951,2.8467,2.8857,2.917,2.9536,2.9445,2.8957,2.8335,2.7771,2.7193,2.6114,2.5474,2.5129,2.4353,2.331,2.2088,2.1588,2.1257,2.1023,2.0981,2.0669,2.0309,0.0,0.0,0.0,0.0,0.0,0.0,0.0,0.0,0.0,0.0,0.0,0.0577,0.2253,0.1472,0.1229,0.2226,0.281,0.2854,0.2277,0.0,0.0,0.0,0.0,0.0,0.0,-0.0629,-0.0646,-0.074,-0.501,-0.6226,-0.4633,-0.888,-0.9717,-0.749,-0.2555,0.0827,0.3172,0.8185,1.2343,1.5573,1.5001,1.4435,1.395,0.0,0.0,0.0,0.0,0.0,0.0,0.0,0.0,0.0,0.0,0.0,0.0,0.0,0.0,0.0,0.0,0.0,0.0,0.0,0.0,0.0,0.0,0.0,0.0,0.0,0.0,0.0,0.0,0.0,0.0,0.0,0.0,0.0,0.0,2.5201,2.7022,2.5693,2.7887,2.9058,2.7917,2.9334,3.0491,3.095,3.164,3.2071,3.2168,3.1797,3.1066,2.9937,2.9713,2.9185,2.8184,2.8778,2.9205,2.9444,3.0192,3.0103,2.9361,2.8854,2.8365,2.7782,2.6995,2.6336,2.5787,2.5558,2.467,2.3391,2.2515,2.2091,2.1909,2.177,2.1455,2.1026,0.0,0.0,0.0,0.0,0.0,0.0,0.0,0.0,0.0,0.0,-0.2174,-0.2123,0.1521,-0.0628,-0.1068,0.2194,0.2724,0.2732,0.2462,0.2197,0.0,0.0,0.0,0.0,-0.2824,-0.3296,-0.3791,-0.4277,-0.8732,-0.982,-0.793,-1.4791,-1.498,-0.9627,-1.0418,-0.94,-0.6913,-0.4235,0.6457,2.1304,1.7757,1.7468,1.877,0.0,0.0,0.0,0.0,0.0,0.0,0.0,0.0,0.0,0.0,0.0,0.0,0.0,0.0,0.0,0.0,0.0,0.0,0.0,0.0,0.0,0.0,0.0,0.0,0.0,0.0,0.0,0.0,0.0,0.0,0.0,0.0,0.0,2.4563,2.7187,2.865,2.7319,3.0502,3.2104,3.0297,3.1831,3.2885,3.2781,3.1901,3.1651,3.2302,3.1261,3.0628,3.0496,3.0021,2.9523,2.9092,2.9319,2.9319,2.9108,2.9832,2.969,2.8873,2.881,2.8667,2.851,2.7703,2.7208,2.6864,2.6213,2.5708,2.5216,2.4015,2.3378,2.3142,2.2915,2.2271,2.1522,0.0,0.0,0.0,0.0,0.0,0.0,0.0,0.0,0.0,0.0,-0.2518,-0.3435,-0.212,-0.0322,-0.0041,-0.2005,0.0293,0.1612,0.1076,0.0,0.0,0.0,0.0,0.0,-0.7461,-0.883,-1.0354,-1.2019,-1.7227,-1.864,-1.6549,-2.042,-2.1646,-2.0387,-1.4945,-1.215,-1.1081,-0.3972,0.1733,0.6219,0.8919,1.3349,1.8143,0.0,0.0,0.0,0.0,0.0,0.0,0.0,0.0,0.0,0.0,0.0,0.0,0.0,0.0,0.0,0.0,0.0,0.0,0.0,0.0,0.0,0.0,0.0,0.0,0.0,0.0,0.0,0.0,0.0,0.0,0.0,2.5146,2.6586,2.6561,2.863,3.0296,3.0854,3.2026,3.2842,3.297,3.3359,3.378,3.4186,3.3387,3.2884,3.283,3.2353,3.161,3.044,3.0648,3.0259,2.9117,2.9047,2.9009,2.8936,2.9169,2.8979,2.8503,2.8083,2.7703,2.7477,2.6849,2.6038,2.5232,2.5046,2.4436,2.3682,2.4447,2.4675,2.4396,2.3192,2.1883,2.0726,0.0,0.0,0.0,0.0,0.0,0.0,0.0,0.0,0.0,0.0,-0.3066,-0.3889,-0.1809,-0.2286,-0.3057,-0.3796,-0.1886,-0.0837,-0.1442,0.0,0.0,0.0,0.0,-0.9677,-0.9058,-1.3263,-1.5344,-1.5088,-1.9566,-2.1167,-2.0089,-2.2941,-2.4629,-2.499,-2.049,-1.849,-1.8194,-1.3054,-0.873,-0.5035,-0.2006,0.5744,1.5192,1.2526,1.407,1.7356,1.5067,1.4492,1.4826,1.5337,0.0,0.0,0.0,0.0,0.0,0.0,0.0,0.0,0.0,0.0,0.0,0.0,0.0,0.0,0.0,0.0,0.0,0.0,0.0,0.0,0.0,0.0,0.0,0.0,2.6706,2.8187,2.8767,3.0396,3.1805,3.2559,3.3285,3.3905,3.4361,3.4319,3.4564,3.5286,3.4512,3.3853,3.3538,3.2927,3.196,3.0529,3.0654,3.0309,2.9337,2.9415,2.9319,2.8928,2.9178,2.8995,2.8381,2.8062,2.7508,2.689,2.6536,2.5755,2.4804,2.4804,2.4381,2.3744,0.0,0.0,0.0,0.0,2.1263,2.0363,0.0,0.0,0.0,0.0,0.0,0.0,0.0,0.0,0.0,0.0,0.0,-0.4569,-0.0581,-0.5655,-0.8157,-0.5266,-0.4448,-0.4299,0.0,0.0,0.0,-0.6578,-1.4205,-1.5775,-1.0026,-1.679,-1.8999,-1.6138,-1.8906,-2.0475,-2.0917,-2.3762,-2.5344,-2.5844,-2.6027,-2.6122,-2.6118,-2.6029,-2.1321,-1.3927,-1.3762,-0.3876,1.0357,0.6437,0.989,1.6793,1.6671,1.5752,1.4767,1.5834,0.0,0.0,0.0,0.0,0.0,0.0,0.0,0.0,0.0,0.0,0.0,0.0,0.0,0.0,0.0,0.0,0.0,0.0,0.0,0.0,0.0,0.0,0.0,0.0,2.8022,2.9779,3.0768,3.2101,3.2996,3.3089,3.425,3.5028,3.5017,3.4983,3.5266,3.5987,3.5287,3.4511,3.3811,3.2947,0.0,0.0,0.0,2.9915,2.9481,2.982,2.9521,2.8669,2.9189,2.8914,2.7979,2.7967,2.7339,2.6392,2.6323,2.578,2.4894,2.4894,2.4627,2.4169,2.312,2.2562,2.2159,2.1064,2.037,1.9772,0.0,0.0,0.0,0.0,0.0,0.0,0.0,0.0,0.0,-0.1696,-0.6157,-0.9316,-0.7935,-0.8863,-1.0526,-1.2787,-1.0215,-0.85,0.0,0.0,-1.166,-1.1236,-1.4574,-1.6923,-1.7918,-1.951,-2.1035,-2.2515,-2.3755,-2.4547,-2.4924,-2.6218,-2.718,-2.7825,-2.7939,-2.799,-2.803,-2.7387,-2.5685,-2.3383,-2.2607,-1.2024,0.3665,0.7117,0.9142,1.0634,1.4339,1.6023,1.6514,1.677,1.7339,1.8012,1.8163,0.0,0.0,0.0,0.0,0.0,0.0,0.0,0.0,0.0,0.0,0.0,0.0,0.0,0.0,0.0,0.0,0.0,0.0,0.0,0.0,2.7811,2.9534,3.0811,3.104,3.2039,3.3002,3.3639,3.4671,3.5584,3.6269,3.6187,3.596,3.5635,3.5644,3.4389,3.1471,3.1837,3.1145,2.8838,2.9217,2.9242,2.8775,2.8133,2.7641,2.7249,2.6614,0.0,2.5586,2.5153,2.4983,2.5053,2.4578,2.4091,2.3753,2.3753,2.239,2.0568,2.3051,2.2777,2.1043,2.0653,1.8835,1.6412,0.0,0.0,0.0,0.0,0.0,0.0,0.0,0.0,0.0,0.0,-0.4745,-0.7193,-0.7837,-0.8382,-1.025,-1.4145,-1.297,0.0,0.0,-1.4414,-1.5577,-1.5273,-1.8709,-2.0508,-2.0155,-2.1869,-2.3335,-2.4491,-2.497,-2.5579,-2.6312,-2.6753,-2.7495,-2.8492,-2.8536,-2.8562,-2.8533,-2.7533,-2.6623,-2.5786,-2.4853,-1.9083,-1.0166,-0.2405,0.3338,0.7801,1.1991,1.4055,1.4942,1.5862,1.6762,1.7558,1.7836,1.8262,1.8441,0.0,0.0,0.0,0.0,0.0,0.0,0.0,0.0,0.0,0.0,0.0,0.0,0.0,0.0,2.3802,0.0,0.0,2.7397,2.8886,2.9996,3.0914,3.1607,3.2299,3.314,3.4185,3.4974,3.5933,3.7178,3.7118,3.6726,3.6058,3.6186,3.5144,3.2432,3.274,3.2118,3.0207,3.0216,2.9889,2.9198,2.8634,2.8025,2.7484,2.6625,2.5983,2.5484,2.4718,2.405,2.3526,2.3259,2.2423,2.1217,2.0495,1.9266,1.793,1.949,1.9084,1.7609,1.7619,1.6363,1.4478,0.0,0.0,0.0,0.0,0.0,0.0,0.0,0.0,0.0,0.0,-0.3932,-0.5042,-0.6143,-0.7794,-1.0163,0.0,0.0,0.0,0.0,-1.7689,-1.9035,-1.8955,-2.3114,-2.4053,-2.1132,-2.377,-2.4987,-2.4642,-2.4934,-2.5525,-2.6386,-2.6554,-2.724,-2.8264,-2.824,-2.824,-2.8179,-2.7176,-2.629,-2.5479,-2.4757,-2.4022,-2.2365,-1.3497,-0.5089,0.2724,0.8451,1.0742,1.1453,1.4127,1.5567,1.63,1.7089,1.7873,1.8451,1.8092,1.8803,0.0,0.0,0.0,0.0,0.0,0.0,0.0,0.0,0.0,2.1903,2.3718,2.4606,2.5218,2.583,2.6747,2.7898,2.939,3.0048,3.0701,3.1705,3.2338,3.3213,3.4517,3.5267,3.625,3.7767,3.7945,3.7676,3.6977,3.7224,3.6377,3.3981,3.3975,3.3255,3.1595,3.0351,2.9407,2.8606,2.8197,2.7236,2.5816,2.566,2.5281,2.4732,2.3206,2.2353,2.1905,2.1675,2.0535,1.8778,1.7576,1.666,1.5961,1.5078,1.4124,1.3194,1.4237,1.392,1.297,0.0,0.0,0.0,0.0,0.0,0.0,0.0,0.0,0.0,0.0,0.0,0.0,0.0,0.0,0.0,0.0,0.0,0.0,-1.7091,-2.0511,-2.2474,-2.2354,-2.437,-2.5194,-2.4543,-2.4859,-2.4828,-2.4424,-2.529,-2.5668,-2.5651,-2.6487,-2.6951,-2.7078,-2.6977,-2.6917,-2.6896,-2.6698,-2.6118,-2.533,-2.5154,-2.4602,-2.3307,-1.8471,-1.5202,-1.1423,0.1934,0.6178,0.6395,1.2197,1.4852,1.6014,1.7408,1.7879,1.8061,1.8862,0.0,1.8339,1.8096,1.9487,2.0851,2.0044,2.136,2.3094,0.0,0.0,2.3814,2.6023,2.698,2.759,2.8202,2.8865,2.9241,2.9098,3.0053,3.0714,3.0289,3.153,3.2992,3.4439,3.5606,3.6729,3.7795,3.873,3.9058,3.8501,3.9409,3.8009,3.3444,3.4094,3.3106,2.9879,2.6359,2.4458,2.4414,2.3242,2.0956,1.7588,1.9782,2.0591,1.9966,1.6757,1.7025,2.001,1.9061,1.8443,1.8145,1.7523,1.626,1.4554,1.2087,0.9834,0.8572,1.2378,1.2622,1.1069,0.0,0.0,0.0,0.0,0.0,0.0,0.0,0.0,0.0,0.0,0.0,0.0,0.0,0.0,0.0,0.0,0.0,0.0,-1.7298,-2.0879,-2.2921,-2.279,-2.4422,-2.5245,-2.5049,-2.5006,-2.4879,-2.4645,-2.5032,-2.5377,-2.5742,-2.606,-2.647,-2.6935,-2.6859,-2.6819,-2.6763,-2.5944,-2.5484,-2.524,-2.4664,-2.4321,-2.3969,-2.243,-2.1554,-1.9564,-0.7181,-0.0672,0.0,0.0,0.8287,1.0089,1.4334,1.5981,1.6561,1.7544,1.8479,0.0,2.2829,2.2687,2.181,2.2531,2.307,2.3474,2.3541,2.3528,2.3838,2.5175,2.6329,2.7084,2.6856,2.7477,2.8172,0.0,2.9026,2.9498,3.0304,3.1283,3.2401,3.3592,3.4948,3.624,3.7267,3.6427,3.6251,3.7389,3.6512,3.5656,3.5046,3.2345,3.0154,2.8669,2.3394,2.0554,2.0554,1.9727,1.8519,1.6851,1.7544,1.7613,1.7104,1.4924,1.4604,1.5683,1.4448,1.3919,1.3818,1.2481,1.1358,1.0335,0.8743,0.74,0.6715,0.8855,0.8865,0.7736,0.0,0.0,0.0,0.0,0.0,0.0,0.0,0.0,0.0,0.0,0.0,0.0,0.0,0.0,0.0,0.0,0.0,0.0,0.0,-1.9632,-2.1818,-2.1982,-2.3852,-2.4976,-2.5126,-2.5111,-2.5012,-2.487,-2.4842,-2.5099,-2.559,-2.5475,-2.5775,-2.6388,-2.6301,-2.6265,-2.6191,-2.5199,-2.4887,-2.5041,-2.4358,-2.4217,-2.4469,-2.4791,-2.3411,-2.0206,-1.1779,-0.6772,0.0,0.0,0.4377,0.5435,1.183,1.4474,1.5413,1.6549,1.7874,1.9894,2.3858,2.3385,2.2104,2.342,2.358,2.3197,2.2433,2.2496,2.2841,2.3412,2.4636,2.5494,2.4962,2.5782,2.6781,2.7491,2.7709,2.8254,2.9636,3.0107,3.0679,3.1582,3.2199,3.2908,3.3592,3.4034,3.463,3.5519,3.4845,3.4671,3.5276,3.2493,3.0674,3.0286,2.3075,1.9204,1.9204,1.7206,1.5605,1.4465,1.4977,1.4531,1.3144,1.1144,0.9614,0.8433,0.8751,0.9141,0.9339,0.7858,0.7059,0.6626,0.5012,0.413,0.3938,0.4948,0.5479,0.5662,0.0,0.0,0.0,0.0,0.0,0.0,0.0,0.0,0.0,0.0,0.0,0.0,0.0,0.0,0.0,0.0,0.0,0.0,0.0,-1.6671,-1.9228,-2.0142,-2.2713,-2.4555,-2.5472,-2.5363,-2.5195,-2.4998,-2.493,-2.4883,-2.4828,-2.476,-2.4779,-2.4866,-2.4732,-2.4666,-2.4666,-2.4483,-2.45,-2.461,-2.4528,-2.4586,-2.4812,-2.5086,-1.9503,-1.1189,-0.8725,0.0,0.0,0.0,0.6307,0.4233,1.1072,1.4004,0.0,1.6559,1.6878,1.7025,1.8028,1.9468,2.0872,2.1306,2.2153,2.26,2.142,2.1045,2.1052,2.1174,2.224,2.3156,2.3364,2.4545,2.5501,2.5262,2.6433,2.7385,2.7641,2.7455,2.7474,2.8053,2.6596,2.5435,0.0,3.2517,3.6011,3.3208,3.6546,3.6901,3.2744,3.6112,3.7501,3.5997,2.6626,2.1587,2.1587,1.5675,1.0889,0.7474,1.0974,1.0749,0.7102,0.3203,-0.0084,-0.2355,0.2059,0.464,0.5726,0.5451,0.5185,0.4583,0.0703,-0.1049,-0.1029,0.0777,0.3276,0.5725,0.0,0.0,0.0,0.0,0.0,0.0,0.0,0.0,0.0,0.0,0.0,0.0,0.0,0.0,0.0,0.0,0.0,0.0,0.0,-1.6289,-1.8056,-1.8987,-2.1008,-2.2483,-2.3283,-2.4654,-2.5313,-2.5204,-2.5178,-2.5135,-2.5061,-2.5006,-2.4929,-2.4865,-2.4768,-2.4749,-2.4771,-2.4561,-2.3476,-2.2047,-2.3981,-2.3709,-2.2086,-2.1542,-1.9158,-1.5116,0.0,0.0,0.0,-0.0086,0.1309,0.1234,0.8146,1.0789,1.1675,1.3862,1.5197,1.6429,1.8503,1.939,2.0082,2.1513,2.2042,2.1951,2.0742,2.042,2.0128,1.9706,2.001,2.0411,2.0479,2.1261,2.2162,2.2956,2.3847,2.4541,2.4977,2.5455,2.5702,2.54,2.5252,0.0,0.0,0.0,2.7172,2.8591,2.8369,2.8698,2.9952,3.0297,3.0232,2.9713,1.7152,1.0424,1.0424,-0.013,-0.5338,-0.505,-0.2343,-0.1154,-0.1507,-0.317,-0.3813,-0.3488,-0.156,-0.0434,0.0,0.0087,0.0,-0.035,-0.2031,-0.2822,-0.289,-0.1495,-0.0346,0.067,0.0,0.0,0.0,0.0,0.0,0.0,0.0,0.0,0.0,0.0,0.0,0.0,0.0,0.0,0.0,0.0,0.0,0.0,0.0,0.0,-1.6853,-1.8289,-1.9882,-2.1378,-2.2699,-2.3781,-2.4413,-2.4619,-2.4763,-2.4891,-2.5031,-2.5111,-2.5091,-2.4967,-2.4923,-2.4921,-2.4934,-2.4734,-2.3688,-2.2341,-2.4224,-2.3969,-2.2406,-2.1811,-1.9421,0.0,0.0,0.0,0.0,0.0469,0.0179,-0.0087,0.6555,0.9225,1.0279,1.1851,1.3252,1.4819,1.7045,1.7669,1.8091,2.0012,2.0335,1.9905,1.9014,1.8838,1.8619,1.7662,1.7844,1.8071,1.7756,1.837,1.9187,1.982,2.0463,2.1124,2.172,2.1891,2.1973,2.2204,2.2045,2.197,0.0,0.0,0.0,2.4313,2.4318,2.5117,2.7223,2.8209,2.9561,3.1497,1.6546,0.5523,-0.0653,-0.9917,-1.3415,-1.1254,-1.0315,-0.9096,-0.7875,-0.9405,-0.9154,-0.7304,-0.5999,-0.4971,-0.4208,-0.4049,-0.3969,-0.4058,-0.478,-0.5225,-0.5308,-0.3726,-0.291,-0.226,0.0,0.0,0.0,0.0,0.0,0.0,0.0,0.0,0.0,0.0,0.0,0.0,0.0,0.0,0.0,0.0,0.0,0.0,0.0,0.0,0.0,-1.7798,-1.9227,-2.105,-2.3429,-2.2789,-2.2753,-2.3369,-2.3789,-2.4209,-2.4635,-2.5065,-2.5192,-2.5081,-2.509,-2.5069,-2.5006,-2.4934,-2.4851,-2.4762,-2.5009,-2.493,-2.467,-2.4795,0.0,0.0,0.0,0.0,0.0,0.4629,0.2823,0.0543,0.6216,0.9328,1.0787,1.0598,1.1171,1.2198,1.359,1.4368,1.5146,1.6845,1.7072,1.6764,1.6221,1.6475,1.6434,1.5128,1.5568,1.6019,1.5118,1.6062,1.6681,1.5982,1.6683,1.7555,1.8283,1.7081,1.686,0.0,0.0,0.0,0.0,0.0,0.0,2.019,2.4002,2.5616,2.4177,2.9251,3.4314,3.8973,2.3809,0.7409,-0.9576,-1.3564,-1.4446,-1.2276,-1.341,-1.3387,-1.2361,-1.5759,-1.6039,-1.384,-1.1359,-0.9119,-0.727,-0.7187,-0.6934,-0.6514,-0.7709,-0.8348,-0.8428,-0.6119,-0.4532,-0.32,0.0,0.0,0.0,0.0,0.0,0.0,0.0,0.0,0.0,0.0,0.0,0.0,0.0,0.0,0.0,0.0,0.0,0.0,0.0,0.0,0.0,0.0,0.0,0.0,0.0,0.0,0.0,0.0,0.0,-2.3707,-2.3748,-2.4493,-2.4824,-2.4817,-2.4957,-2.5099,-2.522,-2.5109,-2.2538,-1.8963,0.0,-2.0495,-1.3583,0.0,0.0,0.0,0.0,0.0,0.0,0.3325,0.4183,0.4731,0.6309,0.7752,0.8786,0.8283,0.9361,1.0764,1.0973,1.2358,1.3886,1.4094,1.495,1.5484,1.4641,1.4366,1.3997,1.3178,1.2832,1.2525,1.2303,1.3064,1.3829,1.414,1.5554,0.0,1.6652,1.6621,0.0,1.6398,0.0,1.522,1.426,1.3988,0.0,1.3444,1.5684,1.6612,1.5706,2.0775,2.1551,1.6821,1.8249,1.2724,-0.0594,-2.0577,-2.8829,-2.54,-2.4371,-2.2495,-1.998,-2.1458,-2.0691,-1.8285,-1.7254,-1.6118,-1.4969,-1.4377,-1.3417,-1.2404,-1.2866,-1.2511,-1.1477,-1.0134,-0.8475,-0.6724,0.0,0.0,0.0,0.0,0.0,0.0,0.0,0.0,0.0,0.0,0.0,0.0,0.0,0.0,0.0,0.0,0.0,0.0,0.0,0.0,0.0,0.0,0.0,0.0,0.0,0.0,0.0,0.0,0.0,0.0,0.0,-2.3686,-2.365,-2.2835,-2.3305,-2.3634,-2.3773,-2.2516,0.0,0.0,0.0,0.0,0.0,0.0,0.0,0.0,0.0,0.0,0.0,0.0,0.0,0.4941,0.5284,0.6044,0.6841,0.7354,0.8381,0.9528,1.0124,1.1304,1.2344,1.2284,1.2735,1.2984,1.2227,1.2222,1.2209,1.1124,1.0973,1.0905,1.0553,1.139,1.2085,0.0,0.0,0.0,1.3943,1.4458,1.4828,0.0,1.4371,0.0,1.3322,1.262,1.1448,0.9719,1.124,1.1844,1.0814,1.3239,0.9478,-0.1791,0.2224,0.0253,-0.8777,-2.678,-3.4261,-3.1162,-2.8643,-2.6273,-2.4014,-2.3904,-2.2537,-2.0321,-1.9966,-1.9118,-1.7845,-1.6798,-1.5672,-1.4641,-1.4095,-1.3484,-1.2772,-1.2151,-1.0828,-0.9429,0.0,0.0,0.0,0.0,0.0,0.0,0.0,0.0,0.0,0.0,0.0,0.0,0.0,0.0,0.0,0.0,0.0,0.0,0.0,0.0,0.0,0.0,0.0,0.0,0.0,0.0,0.0,0.0,0.0,0.0,0.0,0.0,0.0,0.0,0.0,0.0,0.0,0.0,0.0,0.0,0.0,0.0,0.0,0.0,0.0,0.0,0.0,0.0,0.0,0.0,0.167,0.3195,0.3766,0.4279,0.5005,0.6518,0.733,0.8131,0.9548,1.0115,1.0385,1.0682,1.0418,0.9942,0.9456,1.0071,1.0461,0.9225,0.9575,0.9967,0.9339,1.0151,1.0574,0.9673,0.0,1.1805,1.1216,1.197,1.2713,1.3342,1.2899,1.265,1.2814,1.1651,0.9918,0.7808,0.8832,0.9108,0.7888,0.7075,0.0264,-1.374,-1.4175,-1.6903,-2.2617,-3.0376,-3.3401,-3.1678,-2.9334,-2.7504,-2.6268,-2.5087,-2.3546,-2.1722,-2.1487,-2.0493,-1.8957,-1.7641,-1.6443,-1.5465,-1.4205,-1.3581,-1.3353,-1.3184,-1.2383,-1.1492,0.0,0.0,0.0,0.0,0.0,0.0,0.0,0.0,0.0,0.0,-0.6618,-0.6372,0.0,0.0,0.0,0.0,0.0,0.0,0.0,0.0,0.0,0.0,0.0,0.0,0.0,0.0,0.0,0.0,0.0,0.0,0.0,0.0,0.0,0.0,0.0,0.0,0.0,0.0,0.0,0.0,0.0,0.0,0.0,0.0,0.0,0.0,0.0,0.0,0.0,0.0,0.0671,0.2921,0.2269,0.2769,0.3505,0.2841,0.3844,0.516,0.5434,0.6612,0.7868,0.7902,0.806,0.8165,0.8001,0.7886,0.0,0.0,0.7582,0.7346,0.7797,0.7831,0.8054,0.863,0.9781,1.0616,1.0776,1.1584,1.2029,0.0,1.1878,1.1483,1.0605,0.9492,0.0,0.6642,0.5453,0.4952,0.4969,0.4877,0.1399,-0.6022,-0.6297,-1.0184,-1.8305,-2.4971,-2.8067,-2.7671,-3.1281,-3.1695,-2.9275,-2.9304,-2.8234,-2.6345,-2.5669,-2.4897,-2.4039,-2.3481,-2.1546,-1.897,-1.903,-1.7476,-1.5228,-1.522,-1.4072,-1.2668,0.0,0.0,0.0,0.0,0.0,0.0,0.0,-0.5466,-0.4994,-0.6448,-0.6112,-0.5937,-0.6441,-0.7109,0.0,0.0,0.0,0.0,0.0,0.0,0.0,0.0,0.0,0.0,0.0,0.0,-1.6202,-1.6144,0.0,0.0,0.0,-1.5462,-1.5219,-1.4641,0.0,0.0,0.0,0.0,0.0,0.0,0.0,0.0,0.0,0.0,0.0,0.0,0.0,0.0,0.0,0.0,-0.1051,0.0645,0.1044,0.1766,0.2506,0.2655,0.3433,0.4368,0.4985,0.561,0.616,0.6472,0.6314,0.6252,0.632,0.0,0.0,0.6603,0.6526,0.6568,0.6876,0.7108,0.7429,0.7845,0.9035,0.9781,0.9551,1.0676,1.1311,1.0716,1.0489,1.0193,0.9749,0.8541,0.7469,0.6881,0.5579,0.4658,0.4348,0.4319,0.3066,0.0268,-0.0805,-0.4886,-1.2321,-1.7498,-2.2615,-2.7718,-2.9419,-3.0999,-3.2344,-3.0949,-2.9693,-2.8543,-2.7472,-2.6333,-2.5229,-2.4397,-2.3007,-2.1253,-1.9887,-1.8479,-1.7212,-1.637,-1.553,-1.4906,0.0,0.0,0.0,0.0,0.0,0.0,0.0,-0.5132,-0.565,-0.5909,-0.551,-0.5508,-0.6281,-0.6832,-0.7472,0.0,0.0,0.0,0.0,0.0,0.0,0.0,0.0,0.0,0.0,0.0,0.0,-1.4921,-1.4381,0.0,0.0,0.0,0.0,0.0,-1.2278,-1.3189,0.0,0.0,0.0,0.0,0.0,-0.7889,0.0,0.0,0.0,0.0,0.0,0.0,0.0,0.0,-0.2518,-0.1444,-0.0072,0.0676,0.1324,0.2402,0.3175,0.3797,0.482,0.4908,0.4836,0.5303,0.4919,0.4476,0.4846,0.5219,0.0,0.5543,0.5745,0.6005,0.6133,0.6491,0.6855,0.0,0.8006,0.8703,0.8273,0.9458,1.0181,0.0,0.9352,0.0,0.9139,0.7826,0.0,0.6774,0.5782,0.4879,0.4356,0.4297,0.4041,0.3401,0.197,-0.1293,-0.6554,-1.1229,-1.8101,-2.7005,-2.7119,-2.9839,-3.4718,-3.2282,-3.076,-2.9985,-2.8683,-2.7246,-2.5685,-2.4578,-2.3693,-2.2848,-2.0343,-1.9252,-1.8979,-1.7552,-1.696,-1.6894,0.0,0.0,0.0,0.0,0.0,0.0,0.0,-0.2841,-0.3087,-0.4008,-0.4599,-0.5099,-0.555,-0.6289,-0.702,0.0,0.0,0.0,0.0,0.0,0.0,0.0,0.0,0.0,0.0,0.0,0.0,-1.2082,-1.2035,0.0,0.0,0.0,0.0,0.0,0.0,-1.1689,-1.3869,-1.1167,0.0,0.0,0.0,0.0,0.0,0.0,0.0,0.0,0.0,0.0,0.0,0.0,0.0,-0.1744,-0.1005,-0.0621,-0.0456,-0.0455,0.0,0.0,0.2257,0.3051,0.3908,0.3986,0.3754,0.3633,0.404,0.0,0.4151,0.5138,0.4888,0.4694,0.5279,0.4976,0.4901,0.5693,0.0,0.6592,0.7339,0.7936,0.8412,0.8526,0.0,0.0,0.7735,0.6868,0.5868,0.477,0.3706,0.3449,0.427,0.4207,0.3063,0.0445,0.0445,-0.044,-0.2403,-0.93,-1.5749,-2.1586,-2.6573,-3.1227,-3.5369,-3.4618,-3.3246,-3.1362,-3.0586,-2.9086,-2.7193,-2.6697,-2.5329,-2.3548,-2.2941,-2.1634,-2.0024,-1.9243,-1.8292,-1.731,0.0,0.0,0.0,0.0,0.0,0.0,-0.4119,-0.4643,-0.5144,-0.5578,-0.54,-0.5358,-0.5758,-0.6121,-0.6601,0.0,0.0,0.0,0.0,0.0,0.0,0.0,0.0,0.0,0.0,0.0,-1.1792,-1.2175,-1.1226,0.0,0.0,0.0,0.0,0.0,0.0,-0.9415,-1.0442,-0.9274,0.0,0.0,0.0,0.0,0.0,0.0,0.0,0.0,0.0,0.0,-0.358,0.0,0.0,0.0,-0.1828,-0.1453,0.0,0.0,0.0665,0.1065,0.1481,0.204,0.2666,0.3136,0.2945,0.2887,0.3516,0.0,0.3865,0.4529,0.4495,0.4367,0.4628,0.4498,0.4448,0.4962,0.0,0.0,0.6231,0.6686,0.7254,0.7757,0.7919,0.7816,0.0,0.0,0.573,0.3862,0.3506,0.3178,0.2956,0.3707,0.3699,0.2629,0.062,-0.1158,-0.2761,-0.6864,-1.3331,-2.2039,-2.3946,-2.9069,-3.6761,-3.4942,-3.3694,-3.2966,-3.1864,-3.0382,-2.8774,-2.8306,-2.7301,-2.5915,-2.4377,-2.2687,-2.0984,-1.9955,-1.8612,-1.7392,0.0,0.0,0.0,0.0,0.0,-0.4581,-0.5455,-0.5739,-0.611,-0.6881,-0.6048,-0.5484,-0.5773,-0.5828,-0.606,-0.6554,0.0,0.0,0.0,0.0,0.0,0.0,0.0,0.0,0.0,0.0,-1.0807,-1.1572,-1.0566,-1.0138,0.0,0.0,-0.8865,-0.883,0.0,0.0,0.0,0.0,0.0,0.0,0.0,0.0,0.0,0.0,0.0,0.0,0.0,0.0,0.0,0.0,0.0,0.0,0.0,0.0,0.0,0.0,0.0569,0.0597,0.0925,0.1328,0.1729,0.2277,0.208,0.1949,0.0,0.0,0.3395,0.3944,0.4209,0.43,0.43,0.43,0.4364,0.0,0.0,0.4977,0.5503,0.5666,0.6073,0.6957,0.0,0.6682,0.6138,0.5529,0.4409,0.252,0.2555,0.2384,0.1687,0.265,0.3488,0.426,0.106,-0.1964,-0.4654,-0.5789,-1.1772,-2.2391,-2.2528,-2.7965,-3.7871,-3.5828,-3.4786,-3.4568,-3.3272,-3.1879,-3.0353,-2.952,-2.8766,-2.7956,-2.5834,-2.3778,-2.1924,-2.0791,-1.9081,-1.7396,0.0,0.0,0.0,0.0,0.0,0.0,-0.6074,-0.4991,-0.4686,-0.709,-0.6165,-0.5309,-0.5316,-0.5316,-0.5397,-0.5595,0.0,0.0,0.0,0.0,0.0,0.0,0.0,0.0,0.0,0.0,-0.9365,-0.9432,-0.9823,-0.9758,-0.9328,-0.9638,-0.9555,-0.9185,0.0,0.0,0.0,0.0,0.0,0.0,0.0,0.0,0.0,0.0,0.0,0.0,0.0,0.0,0.0,0.0,0.0,0.0,0.0,0.0,0.0,0.0,-0.0134,0.0497,0.0523,0.0925,0.1335,0.1335,0.108,0.0897,0.0,0.1683,0.2417,0.3262,0.3888,0.43,0.43,0.43,0.43,0.43,0.3894,0.0,0.5218,0.4788,0.4723,0.0,0.5927,0.5288,0.372,0.2282,0.1195,0.049,0.0407,0.0563,0.0785,0.0984,0.2038,0.4268,0.1503,-0.2504,-0.7785,-0.6884,-1.1477,-2.1432,-2.3096,-2.9009,-3.8456,-3.7923,-3.7086,-3.601,-3.5103,-3.3662,-3.1867,-3.0308,-2.9591,-2.9226,-2.7447,-2.5306,-2.3086,-2.2128,-1.9803,-1.7257,0.0,0.0,0.0,0.0,0.0,0.0,0.0,-0.6483,-0.6661,-0.7559,-0.6366,-0.5529,-0.5742,-0.5725,-0.5725,-0.5742,0.0,0.0,0.0,0.0,0.0,0.0,0.0,0.0,0.0,0.0,-0.8659,-0.913,-0.9121,-0.9017,-0.8818,-0.922,-0.8847,-0.7906,-0.7567,-0.7151,0.0,0.0,0.0,0.0,0.0,0.0,0.0,0.0,0.0,0.0,0.0,0.0,0.0,0.0,0.0,0.0,0.0,0.0,0.0,0.0,0.0,0.0,0.0212,0.0434,0.0507,0.0784,0.0776,0.0832,0.1002,0.1656,0.2505,0.3234,0.3761,0.4001,0.3811,0.4028,0.403,0.3357,0.3489,0.0,0.0,0.0,0.0,0.5339,0.533,0.4994,0.4333,0.2517,0.1296,0.1108,0.0497,0.0243,0.0483,0.0662,0.1266,0.2465,0.1755,-0.0357,-0.3935,-0.5429,-1.1713,-2.2832,-2.2817,-2.8321,-3.8469,-3.7431,-3.6289,-3.5148,-3.4935,-3.4006,-3.2486,-3.1218,-3.0305,-2.9653,-2.8274,-2.5998,-2.3309,-2.2274,-2.0346,-1.8136,0.0,0.0,0.0,0.0,0.0,0.0,0.0,-0.6178,-0.6463,-0.7203,-0.6266,-0.5617,-0.5905,-0.5912,-0.5912,-0.5897,0.0,0.0,0.0,0.0,0.0,0.0,0.0,0.0,0.0,-0.7793,-0.7963,-0.8584,-0.8524,-0.8557,-0.8668,-0.8994,-0.8504,-0.7419,-0.712,-0.6579,0.0,0.0,0.0,0.0,0.0,0.0,-0.395,0.0,0.0,0.0,0.0,0.0,0.0,0.0,0.0,0.0,0.0,0.0,0.0,0.0,-0.088,-0.086,0.0,0.0274,0.0413,0.0406,0.0468,0.0,0.0894,0.1459,0.2023,0.2622,0.3107,0.3365,0.3224,0.3467,0.3491,0.282,0.2956,0.3169,0.3133,0.3065,0.3274,0.3766,0.4047,0.3898,0.314,0.2104,0.1227,0.0695,-0.0,-0.0416,-0.0495,-0.0253,0.0426,0.1534,0.167,0.0178,-0.2942,-0.4977,-1.1866,-2.3506,-2.3157,-2.855,-3.8736,-3.7838,-3.6899,-3.5983,-3.5296,-3.4605,0.0,-3.1971,-3.0958,-3.0302,-2.8869,-2.6627,-2.3966,-2.2998,-2.1018,-1.8776,0.0,0.0,0.0,0.0,0.0,0.0,0.0,-0.4502,-0.4575,-0.6165,-0.586,-0.5554,-0.578,-0.585,-0.5936,-0.6098,0.0,0.0,0.0,0.0,0.0,0.0,0.0,0.0,0.0,-0.6993,-0.7279,-0.7766,-0.798,-0.8263,-0.8659,-0.8875,-0.848,-0.7599,-0.7287,-0.6784,-0.6118,0.0,0.0,0.0,0.0,0.0,0.0,0.0,0.0,0.0,0.0,0.0,0.0,0.0,0.0,0.0,0.0,0.0,0.0,0.0,0.0,0.0,0.0,0.0326,0.0668,0.02,-0.0,0.0191,0.0803,0.1045,0.0,0.1597,0.2222,0.2638,0.2572,0.2635,0.2686,0.2619,0.2353,0.2376,0.3063,0.2608,0.2094,0.1742,0.2307,0.2226,0.0755,0.105,0.08,-0.0349,-0.0782,-0.1292,-0.186,-0.1462,-0.0522,0.1132,0.1328,-0.0446,-0.4018,-0.5161,-1.1512,-2.2904,-2.3719,-2.9194,-3.8571,-3.8693,-3.8493,-3.7959,-3.6067,-3.5307,-3.5205,-3.2602,-3.1365,-3.0853,-2.9236,-2.7198,-2.507,-2.4026,-2.1904,-1.9474,0.0,0.0,0.0,0.0,0.0,0.0,0.0,0.0,0.0,0.0,-0.5229,-0.5477,-0.5634,-0.5665,-0.5828,0.0,0.0,0.0,0.0,0.0,0.0,0.0,0.0,0.0,0.0,-0.6434,-0.6441,-0.6376,-0.7396,-0.7624,-0.7136,-0.8078,-0.7904,-0.6768,-0.6706,-0.6064,-0.5005,-0.4923,0.0,0.0,0.0,0.0,0.0,0.0,0.0,0.0,-0.1924,-0.1871,0.0,0.0,0.0,0.0,0.0,0.0,0.0,0.0,-0.0265,-0.0311,0.0165,0.0,-0.0424,0.0473,0.0357,0.0119,0.0,0.0,0.0,0.159,0.2002,0.2259,0.2053,0.2372,0.2418,0.1613,0.1614,0.1765,0.1814,0.2251,0.2864,0.3526,0.299,0.2167,0.1011,0.0525,0.0179,-0.0089,-0.0877,-0.1388,-0.1469,-0.1041,-0.0435,0.0261,0.071,-0.0089,-0.2049,-0.2942,-0.7944,-1.7048,-2.1207,-2.6432,-3.2531,-3.6569,-3.7785,-3.6632,-3.6195,-3.4992,-3.3321,-3.2368,-3.0968,-2.9459,-2.8736,-2.7505,-2.5976,-2.4323,-2.3031,-2.1682,0.0,0.0,0.0,0.0,0.0,0.0,0.0,0.0,0.0,0.0,0.0,0.0,0.0,0.0,0.0,0.0,0.0,0.0,0.0,0.0,0.0,0.0,0.0,-0.6152,-0.6275,-0.6161,-0.6222,-0.6543,-0.6758,-0.6907,-0.6987,-0.7411,-0.7214,-0.6486,-0.6174,-0.5531,-0.4709,-0.484,-0.4714,0.0,-0.414,0.0,0.0,0.0,0.0,0.0,-0.1621,-0.1504,0.0,-0.1272,-0.1161,-0.1039,0.0,0.0,0.0,0.0,-0.0105,-0.0104,0.0486,0.0283,0.0059,0.0518,0.0407,0.0235,0.0346,0.0,0.0,0.1266,0.1494,0.155,0.1197,0.1453,0.1431,0.074,0.0902,0.1358,0.1742,0.198,0.2231,0.264,0.2303,0.1391,-0.0173,-0.0531,-0.0628,-0.0628,-0.1154,-0.1411,-0.1412,-0.0971,-0.0883,-0.0971,-0.0268,0.0179,0.0089,-0.1517,-0.6201,-1.3926,-1.9977,-2.5648,-3.0987,-3.6426,-3.8339,-3.7363,-3.6902,-3.5435,-3.334,-3.2619,-3.1196,-2.9357,-2.8757,-2.8027,-2.7129,-2.5737,-2.4072,-2.2273,0.0,0.0,0.0,0.0,0.0,0.0,0.0,0.0,0.0,0.0,0.0,0.0,0.0,0.0,0.0,0.0,0.0,0.0,0.0,0.0,0.0,0.0,0.0,-0.6291,-0.6491,-0.613,-0.6362,-0.7214,-0.638,-0.6458,-0.7321,-0.6875,-0.6585,-0.6315,-0.5732,-0.521,-0.4801,-0.4879,-0.4709,-0.432,-0.3829,0.0,0.0,0.0,0.0,0.0,0.0,0.0,0.0,-0.0795,-0.0728,-0.08,-0.085,0.0,0.0,0.0,0.0,0.0,0.0722,0.0868,0.0834,0.0587,0.047,0.0471,0.0468,0.0,0.0,0.0,0.0883,0.0799,0.0435,0.0396,0.0275,0.0068,0.0433,0.0987,0.176,0.1463,0.1019,0.065,0.0836,0.0344,-0.1595,-0.1609,-0.1436,-0.1436,-0.1436,-0.1436,-0.1436,-0.1166,-0.1436,-0.2244,-0.1256,-0.0,0.1433,-0.191,-0.6655,-1.276,-2.0491,-2.672,-3.1539,-3.703,-3.9242,-3.8693,-3.783,-3.6169,-3.4057,-3.3192,-3.1606,-2.9721,-2.8951,-2.8543,-2.8192,-2.7195,-2.5177,-2.2723,0.0,0.0,0.0,0.0,0.0,0.0,0.0,0.0,0.0,0.0,0.0,0.0,0.0,0.0,0.0,0.0,0.0,0.0,0.0,0.0,0.0,-0.5116,-0.5231,-0.5658,-0.6417,-0.6562,-0.6687,-0.679,-0.6868,-0.6918,-0.6871,-0.6631,-0.6265,-0.5749,-0.5436,-0.5124,-0.4801,-0.4535,-0.436,-0.4276,-0.3873,0.0,0.0,0.0,0.0,0.0,0.0,0.0,0.0,-0.0725,-0.07,-0.0723,-0.0771,0.0,0.0,0.0,0.0,0.0,0.05,0.0298,0.0125,0.075,0.0866,0.0819,0.0796,0.0,0.0,0.0,0.0,0.0543,0.0445,0.0129,-0.0066,-0.0,0.0438,0.0537,-0.024,0.0166,0.0254,-0.0419,-0.0434,-0.0703,-0.1365,-0.1406,-0.1436,-0.1436,-0.1436,-0.1436,-0.1436,-0.1345,-0.1794,-0.2784,-0.1794,-0.1076,-0.0538,-0.7159,-1.1514,-1.3756,-2.5086,-3.0743,-3.1332,-3.6712,-3.8915,-3.846,-3.8234,-3.6434,-3.3605,-3.3762,-3.1976,-2.9186,-2.8826,-2.8543,-2.8143,-2.7122,-2.6505,-2.5723,0.0,0.0,0.0,0.0,0.0,0.0,0.0,0.0,0.0,0.0,0.0,0.0,0.0,0.0,0.0,0.0,0.0,0.0,0.0,0.0,0.0,-0.4547,-0.4987,-0.5427,-0.5906,-0.5825,-0.6133,-0.6842,-0.5917,-0.6007,-0.6923,-0.625,-0.5588,-0.5053,-0.4713,-0.448,-0.4399,-0.3965,-0.3792,-0.3792,0.0,0.0,0.0,0.0,0.0,0.0,0.0,0.0,0.0,0.0,-0.0647,-0.0621,-0.0765,0.0,0.0,0.0,0.0,0.0,0.0726,0.0235,-0.0244,0.0059,-0.0124,-0.0388,-0.051,-0.0628,0.0,0.0,-0.0248,-0.0385,-0.0669,-0.0898,-0.1084,-0.1406,-0.1636,-0.1803,-0.1889,-0.1154,-0.091,-0.1764,-0.1371,-0.1129,-0.1395,-0.142,-0.1436,-0.1436,-0.1436,-0.1436,-0.1436,-0.1436,-0.1705,-0.2513,-0.2064,-0.1794,-0.1615,-1.2106,-1.568,-1.259,-2.205,-2.8201,-3.1446,-3.7088,-3.9219,-3.8486,-3.8138,-3.6456,-3.3973,-3.3554,-3.2032,-2.9913,-2.9027,-2.8732,-2.8465,-2.648,-2.5655,-2.5218,0.0,0.0,0.0,0.0,0.0,0.0,0.0,0.0,0.0,0.0,0.0,0.0,0.0,0.0,0.0,0.0,0.0,0.0,0.0,0.0,-0.3654,-0.4168,-0.4534,-0.4959,-0.5495,-0.531,-0.5797,-0.6957,-0.5344,-0.525,-0.6644,-0.5713,-0.4974,-0.4492,-0.4087,-0.3929,-0.3957,-0.3524,-0.335,-0.3306,0.0,0.0,0.0,0.0,0.0,0.0,0.0,0.0,0.0,0.0,0.0,0.0,0.0,0.0,0.0,-0.0728,-0.0054,0.0722,0.084,0.0231,-0.042,-0.0432,-0.0842,-0.1353,-0.1796,-0.1822,-0.1707,-0.1173,-0.1125,-0.122,-0.1601,-0.1825,-0.2168,-0.2745,-0.3267,-0.3397,-0.2862,-0.1981,-0.1725,-0.2467,-0.1881,-0.1386,-0.1431,-0.1436,-0.1436,-0.1436,-0.1436,-0.1436,-0.1436,-0.1436,-0.1525,-0.1974,-0.2154,-0.2154,-0.1974,-1.3714,-1.7587,-1.3691,-2.23,-2.889,-3.3573,-3.8035,-3.9557,-3.8651,-3.7997,-3.6497,-3.4516,-3.338,-3.2132,-3.0751,-2.9448,-2.8919,-2.8654,-2.6408,-2.5422,-2.4998,0.0,0.0,0.0,0.0,0.0,0.0,0.0,0.0,0.0,0.0,0.0,0.0,0.0,0.0,0.0,0.0,0.0,0.0,0.0,0.0,-0.3104,-0.4049,-0.338,-0.3784,-0.5572,-0.5996,-0.6424,-0.6907,-0.6162,-0.5663,-0.5437,-0.5043,-0.4668,-0.4302,-0.405,-0.3799,-0.3609,-0.3347,-0.3214,-0.3173,-0.2862,0.0,0.0,0.0,0.0,0.0,0.0,0.0,0.0,0.0,0.0,0.0,0.0,0.0,-0.0723,-0.0193,-0.0,0.0161,0.0723,0.0176,-0.0495,-0.0128,-0.0372,-0.0915,-0.1852,-0.1549,-0.107,-0.1127,-0.1343,-0.156,-0.1534,-0.2337,-0.3027,-0.3125,-0.2977,-0.2702,-0.242,-0.1759,-0.1424,-0.1517,-0.1429,-0.1431,-0.1435,-0.1436,-0.1436,-0.1436,-0.1436,-0.1436,-0.1436,-0.1436,-0.1345,-0.1166,-0.1884,-0.1884,-0.1166,-0.8945,-1.5377,-2.0561,-3.3412,-3.9489,-3.9407,-3.9813,-3.9592,-3.8826,-3.8042,-3.6723,-3.5037,-3.3829,-3.2485,-3.1055,-3.0107,-2.9134,-2.8304,-2.778,-2.766,-2.7479,0.0,0.0,0.0,0.0,0.0,0.0,0.0,0.0,0.0,0.0,0.0,0.0,0.0,0.0,0.0,0.0,0.0,0.0,0.0,-0.3186,-0.325,-0.3299,-0.3303,-0.3627,-0.429,-0.4747,-0.5459,-0.6413,-0.6333,-0.569,-0.4515,-0.4473,-0.4217,-0.3708,-0.3248,-0.3035,-0.306,-0.2625,-0.259,-0.2735,-0.253,-0.237,0.0,0.0,0.0,0.0,0.0,0.0,0.0,0.0,-0.0686,-0.0657,-0.072,-0.0944,-0.1126,-0.0819,-0.0636,-0.0494,-0.0054,-0.0521,-0.1111,-0.1248,-0.154,-0.1809,-0.2072,-0.2155,-0.2207,-0.2041,-0.2006,-0.2107,-0.2419,-0.2979,-0.3449,-0.3802,-0.3549,-0.3244,-0.3095,-0.2496,-0.2061,-0.2061,-0.1704,-0.1436,-0.1436,-0.1792,-0.2061,-0.2061,-0.2508,-0.2327,-0.1433,-0.1433,-0.1165,-0.0718,-0.1613,-0.1882,-0.1256,-1.3018,-1.9685,-2.1252,-3.0469,-3.6791,-4.0359,-4.0288,-3.9852,-3.9063,-3.7731,-3.6639,-3.5684,-3.388,-3.2645,-3.1738,-3.0369,-2.9196,-2.8288,-2.8174,-2.786,-2.7372,0.0,0.0,0.0,0.0,0.0,0.0,0.0,0.0,0.0,0.0,0.0,0.0,0.0,0.0,0.0,0.0,0.0,0.0,-0.2735,-0.299,-0.3039,-0.2837,-0.3099,-0.3356,-0.3604,-0.3746,-0.4328,-0.5315,-0.5605,-0.5183,-0.4117,-0.4182,-0.4009,-0.3512,-0.2913,-0.2733,-0.2848,-0.2282,-0.2187,-0.2421,-0.2262,-0.2196,0.0,0.0,0.0,0.0,0.0,0.0,0.0,0.0,-0.074,-0.0816,-0.0934,-0.122,-0.1468,-0.1205,-0.1145,-0.1133,-0.0609,-0.1048,-0.1671,-0.1889,-0.2248,-0.2543,-0.2345,-0.273,-0.3154,-0.311,-0.2944,-0.2973,-0.3325,-0.3653,-0.3836,-0.3667,-0.3639,-0.3489,-0.331,-0.3042,-0.2865,-0.2865,-0.2418,-0.1972,-0.1793,-0.2418,-0.2686,-0.2151,-0.2865,-0.2685,-0.1433,-0.3391,-0.329,-0.0447,-0.3389,-0.3804,-0.1433,-1.546,-2.2209,-2.1645,-3.0236,-3.6537,-4.0585,-4.0443,-4.0039,-3.9403,-3.7614,-3.6682,-3.6233,-3.4058,-3.2751,-3.1934,-3.0435,-2.9422,-2.881,-2.8528,-2.8061,-2.7444,0.0,0.0,0.0,0.0,0.0,0.0,0.0,0.0,0.0,0.0,0.0,0.0,0.0,0.0,0.0,0.0,0.0,0.0,-0.1516,-0.1858,-0.2348,-0.2885,-0.2644,-0.2914,-0.3785,-0.3319,-0.3254,-0.3614,-0.3736,-0.3999,-0.4285,-0.4134,-0.4007,-0.3857,-0.3184,-0.2986,-0.3075,-0.2463,-0.2241,-0.2281,-0.2062,-0.2064,-0.2201,0.0,0.0,0.0,0.0,0.0,0.0,0.0,-0.0694,-0.0765,-0.124,-0.1519,-0.1616,-0.1059,-0.136,-0.1703,-0.0706,-0.1265,-0.2065,-0.1723,-0.2253,-0.2797,-0.2772,-0.3213,-0.3668,-0.3989,-0.4224,-0.4271,-0.3938,-0.4318,-0.4159,-0.2364,-0.2919,-0.331,-0.2597,-0.3132,-0.3578,-0.3578,-0.3578,-0.331,-0.2597,-0.3132,-0.2955,-0.1524,-0.2061,-0.2151,-0.1436,-0.7673,-0.7979,-0.0711,-0.7547,-0.8161,-0.1689,-1.4722,-2.1681,-2.256,-3.51,-4.0925,-4.0593,-4.0397,-4.0164,-3.9795,-3.7867,-3.6953,-3.6739,-3.4428,-3.2742,-3.1482,-3.0427,-3.0011,-2.9881,-2.9012,-2.8543,-2.8143,0.0,0.0,0.0,0.0,0.0,0.0,0.0,0.0,0.0,0.0,0.0,0.0,0.0,0.0,0.0,0.0,0.0,0.0,-0.1348,-0.1616,-0.1851,-0.203,-0.2032,-0.214,-0.2459,-0.2063,-0.2536,-0.4002,-0.4192,-0.4029,-0.3524,-0.3831,-0.3655,-0.3133,-0.3002,-0.2945,-0.2848,-0.2282,-0.2143,-0.2282,-0.2086,-0.1973,-0.1928,0.0,0.0,0.0,0.0,0.0,0.0,0.0,0.0,0.0,-0.1023,-0.1404,-0.1679,-0.1521,-0.1929,-0.2249,-0.1645,-0.234,-0.332,-0.3362,-0.3969,-0.4613,-0.4899,-0.402,-0.319,-0.3401,-0.4313,-0.4933,-0.4082,-0.4161,-0.424,-0.3581,-0.3517,-0.3489,-0.331,-0.3489,-0.34,-0.2864,-0.2865,-0.2508,-0.1792,-0.2418,-0.2686,-0.224,-0.2865,-0.2685,-0.1433,-0.7694,-1.0086,-0.7407,-1.0348,-1.3096,-1.5322,-2.0306,-2.4729,-2.8662,-3.7075,-4.1051,-4.0949,-4.0693,-4.0468,-4.0138,-3.8156,-3.7159,-3.6764,-3.4004,-3.2574,-3.1987,-3.0931,-3.0284,-2.9924,-2.9361,-2.9012,-2.8559,0.0,0.0,0.0,0.0,0.0,0.0,0.0,0.0,0.0,0.0,0.0,0.0,0.0,0.0,0.0,0.0,0.0,0.0,0.0,-0.1495,-0.1608,-0.1609,-0.1727,-0.1834,-0.1928,-0.1608,-0.2023,-0.3184,-0.3424,-0.3296,-0.2955,-0.3343,-0.3271,-0.2815,-0.2763,-0.2712,-0.2668,-0.1821,-0.1707,-0.2133,-0.1448,-0.1448,-0.1835,0.0,0.0,0.0,0.0,0.0,0.0,0.0,0.0,0.0,-0.1164,-0.1507,-0.1801,-0.2044,-0.2294,-0.2565,-0.2897,-0.3418,-0.4421,-0.7014,-0.7976,-0.8941,-1.1143,-0.7925,-0.5584,-0.9537,-0.9627,-0.9236,-1.0302,-0.9097,-0.7668,-0.6634,-0.5069,-0.4722,-0.682,-0.5074,-0.4372,-0.6647,-0.4565,-0.2686,-0.1882,-0.2508,-0.2686,-0.2151,-0.2776,-0.3821,-0.5256,-1.1625,-1.5009,-1.4593,-1.7946,-2.0381,-2.1618,-2.4879,-2.8201,-3.1673,-3.8058,-4.1094,-4.109,-4.077,-4.0575,-4.0391,-3.8341,-3.6911,-3.5927,-3.3872,-3.2796,-3.2329,-3.1476,-3.0804,-3.0326,-2.9968,-2.9512,-2.8919,0.0,0.0,0.0,0.0,0.0,0.0,0.0,0.0,0.0,0.0,-1.2959,0.0,0.0,0.0,0.0,0.0,0.0,0.0,0.0,0.0,-0.1104,-0.1296,-0.1487,-0.1655,-0.1791,-0.1521,-0.1477,-0.1658,-0.1879,-0.2104,-0.2371,-0.2759,-0.285,-0.2702,-0.2401,-0.2395,-0.2455,-0.1212,-0.1171,-0.1769,-0.0498,-0.0741,-0.1765,-0.1241,0.0,0.0,0.0,0.0,0.0,0.0,0.0,0.0,-0.1551,-0.1748,-0.1856,-0.249,-0.2567,-0.2803,-0.425,-0.436,-0.5531,-1.1587,-1.3461,-1.5107,-2.0035,-1.4326,-1.0554,-1.9393,-1.7861,-1.6079,-1.9705,-1.7136,-1.3729,-1.1461,-0.8407,-0.7977,-1.2721,-0.8774,-0.7645,-1.3619,-0.8947,-0.4741,-0.3404,-0.3938,-0.3763,-0.2364,-0.2889,-0.5913,-1.1911,-1.8513,-2.2117,-2.2093,-2.8003,-2.8883,-2.4055,-2.8851,-3.1871,-3.3079,-3.8513,-4.1094,-4.1087,-4.0626,-4.0394,-4.0231,-3.824,-3.6348,-3.4653,-3.3981,-3.3294,-3.261,-3.2039,-3.1435,-3.0935,-3.0609,-3.0054,-2.9345,0.0,0.0,0.0,0.0,0.0,0.0,0.0,0.0,0.0,0.0,0.0,0.0,0.0,0.0,0.0,0.0,0.0,0.0,0.0,0.0,0.2481,0.0412,0.0216,0.0088,-0.0044,0.0221,-0.0222,-0.1389,-0.1734,-0.1696,-0.1323,-0.2122,-0.2253,-0.1934,-0.2171,-0.2187,-0.201,-0.1649,-0.129,-0.0935,-0.0344,-0.0445,-0.0996,-0.0839,-0.1193,0.0,0.0,0.0,0.0,0.0,0.0,0.0,-0.1814,-0.1751,-0.1519,-0.213,-0.3072,-0.3897,-0.4159,-0.4823,-0.6749,-1.2275,-1.6752,-2.1049,-2.5834,-2.2646,-1.9085,-2.0414,-2.0608,-2.0519,-2.0403,-2.0654,-2.0554,-1.949,-1.9359,-1.9744,-2.0851,-1.9952,-1.9466,-2.0329,-1.9184,-1.5979,-1.0008,-0.9597,-0.957,-0.9166,-0.9308,-1.2251,-1.8745,-2.5367,-2.8956,-2.8964,-3.0881,-3.355,-3.7021,-3.3681,-3.4423,-3.9194,-4.0487,-4.1074,-4.0996,-4.0173,-3.8986,-3.7514,-3.6795,-3.5799,-3.4653,-3.3981,-3.3479,-3.3057,-3.2161,-3.1716,-3.1511,-3.0764,-3.0241,-2.9733,0.0,0.0,0.0,0.0,0.0,0.0,0.0,0.0,0.0,0.0,0.0,0.0,0.0,0.0,0.0,0.0,0.0,0.0,0.0,0.0,0.4096,0.0974,0.0959,0.0619,-0.0311,0.084,0.0576,-0.1212,-0.3645,-0.3576,-0.1251,-0.1754,-0.1899,-0.1717,-0.1759,-0.1766,-0.1655,-0.1243,-0.0974,-0.0756,-0.0,-0.0051,-0.0568,-0.0304,-0.0722,-0.1433,-0.1565,0.0,0.0,0.0,0.0,0.0,0.0,0.0,-0.1812,-0.2556,-0.2952,-0.3447,-0.4892,-0.5481,-0.757,-1.5574,-2.3095,-2.9143,-3.1596,-3.0337,-2.849,-2.7938,-2.6606,-2.6036,-2.7525,-2.684,-2.5808,-2.5223,-2.379,-2.3784,-2.6724,-2.4413,-2.344,-2.6236,-2.3779,-2.0355,-1.644,-1.609,-1.6069,-1.6051,-1.604,-1.8956,-2.5641,-2.9277,-3.2595,-3.5741,-3.6177,-3.7862,-4.1027,-3.7975,-3.7968,-4.1042,-4.105,-4.0834,-4.0414,-3.9816,-3.8488,-3.6652,-3.6457,-3.576,-3.4674,-3.4323,-3.371,-3.2906,-3.2413,-3.1915,-3.1376,-3.0998,-3.0576,-3.0074,0.0,0.0,0.0,0.0,0.0,0.0,0.0,0.0,0.0,0.0,0.0,0.0,0.0,0.0,0.0,0.0,0.0,0.0,0.0,0.0,0.0,0.2329,0.2522,0.1603,-0.067,0.0466,-0.0,-0.227,-0.6441,-0.6712,-0.3268,-0.2793,-0.2341,-0.1894,-0.1463,-0.1436,-0.1666,-0.1074,-0.0845,-0.0821,0.0051,0.0052,-0.0482,-0.0,-0.032,-0.1062,-0.1304,-0.1312,-0.1399,-0.2465,0.0,0.0,0.0,0.0,-0.2194,-0.3065,-0.2758,-0.2797,-0.5607,-0.7208,-1.0428,-2.0437,-2.9475,-3.5905,-3.5905,-3.5894,-3.5885,-3.582,-3.2856,-3.1428,-3.5181,-3.3073,-3.0596,-3.0159,-2.7193,-2.6761,-3.194,-2.7956,-2.6595,-3.2241,-2.8055,-2.4265,-2.3119,-2.2964,-2.2916,-2.2923,-2.2907,-2.5853,-3.256,-3.2894,-3.5403,-4.0857,-4.1007,-4.1003,-4.1023,-4.1006,-4.0994,-4.1007,-4.0998,-4.0504,-3.9571,-3.939,-3.8335,-3.6651,-3.6469,-3.5768,-3.4754,-3.4734,-3.403,-3.2906,-3.2769,-3.2161,-3.1317,-3.1213,-3.0834,-3.0154,0.0,0.0,0.0,0.0,0.0,0.0,0.0,0.0,0.0,0.0,0.1088,0.0,0.0,0.0,0.0,0.0,0.0,0.0,0.0,0.0,0.0,0.7495,0.767,0.5761,0.1328,-0.1457,-0.4229,-0.7093,-0.9323,-1.0461,-1.0459,-0.7451,-0.4852,-0.2711,-0.1692,-0.1845,-0.2834,-0.2504,-0.1829,-0.0883,-0.0717,-0.0831,-0.1058,-0.0499,-0.0501,-0.0784,-0.1173,-0.1229,-0.1233,-0.1903,-0.2015,0.0,0.0,0.0,-0.2184,-0.2811,-0.3268,-0.3898,-0.506,-1.2148,-2.0559,-2.6402,-3.1915,-3.5905,-3.5905,-3.5891,-3.5891,-3.5885,-3.5405,-3.5152,-3.5717,-3.5997,-3.6131,-3.6069,-3.62,-3.6856,-3.8433,-3.7897,-3.7948,-3.957,-3.9002,-3.6193,-3.0439,-2.9886,-2.9876,-2.9865,-2.9847,-3.2764,-3.9412,-3.9774,-4.0187,-4.1067,-4.1031,-4.1033,-4.1089,-4.1035,-4.1001,-4.1,-4.0999,-4.0181,-3.8661,-3.8533,-3.7913,-3.6891,-3.596,-3.5343,-3.4944,-3.4888,-3.4634,-3.4165,-3.3176,-3.2688,-3.2429,-3.1545,-3.0476,-2.9492,0.0,0.0,0.0,0.0,0.0,0.0,0.0,0.0,0.0,0.0,0.0,0.9535,0.0,0.0,0.0,0.0,0.0,0.0,0.0,0.0,0.0,0.5117,0.6609,0.4322,-0.2625,-0.3254,-0.7271,-1.5001,-1.6084,-1.6782,-1.7042,-1.3632,-1.0574,-0.797,-0.7481,-0.7566,-0.7979,-0.6131,-0.4963,-0.4209,-0.2276,-0.3286,-0.5614,-0.2302,-0.3069,-0.5479,-0.2462,-0.1564,-0.1793,-0.2517,-0.2462,-0.2127,-0.2352,0.0,0.0,0.0,-0.3114,-0.4502,-0.9524,-1.7426,-2.4941,-2.8068,-3.2408,-3.5908,-3.5899,-3.5904,-3.5894,-3.5846,-3.5869,-3.5895,-3.5872,-3.6192,-3.6625,-3.7123,-3.7519,-3.8079,-3.8954,-3.9078,-3.9237,-3.9644,-3.9669,-3.8515,-3.5632,-3.5305,-3.5286,-3.53,-3.5288,-3.6785,-4.0187,-4.0372,-4.0572,-4.103,-4.1014,-4.1015,-4.1035,-4.0522,-4.0023,-3.9539,-3.9551,-3.9169,-3.8424,-3.7871,-3.7136,-3.6236,-3.5736,-3.5326,-3.4997,-3.4962,-3.4617,-3.3994,-3.3506,-3.2919,-3.2243,-3.1322,-3.0466,-2.9649,0.0,0.0,0.0,0.0,0.0,0.0,0.0,0.0,0.0,0.0,0.0,0.0,0.0,0.0,0.0,0.0,0.0,0.0,0.0,0.0,0.0,0.5698,0.4254,0.0497,-0.6118,-0.7076,-1.1829,-2.0656,-2.0785,-2.0884,-2.0891,-1.8158,-1.5683,-1.3522,-1.2778,-1.2368,-1.2071,-1.0199,-0.8949,-0.8074,-0.6204,-0.7604,-1.0496,-0.6921,-0.8087,-1.0933,-0.5495,-0.3855,-0.409,-0.3237,-0.2629,-0.2294,-0.2127,-0.2296,0.0,0.0,0.0,-0.4837,-1.2387,-1.8337,-2.3438,-2.7619,-3.1064,-3.3881,-3.5555,-3.5912,-3.5895,-3.584,-3.5869,-3.5909,-3.5894,-3.5904,-3.6109,-3.6767,-3.6874,-3.7175,-3.8049,-3.817,-3.8264,-3.8543,-3.8556,-3.8539,-3.8573,-3.8545,-3.8522,-3.8492,-3.8506,-3.8784,-3.9433,-3.9453,-3.9726,-4.0344,-4.0342,-4.0346,-4.0329,-3.9694,-3.9052,-3.8436,-3.8416,-3.8286,-3.8077,-3.7401,-3.6609,-3.5717,-3.565,-3.543,-3.5117,-3.5032,-3.46,-3.3963,-3.3766,-3.302,-3.1991,-3.1129,-3.0335,-2.9476,0.0,0.0,0.0,0.0,0.0,0.0,0.0,0.0,0.0,0.0,0.0,0.0,1.6181,1.3396,1.2516,1.5332,0.0,0.0,0.0,0.0,0.0,1.4504,0.2128,0.0,-0.636,-1.4513,-1.9521,-2.1069,-2.0279,-2.0,-2.0229,-1.924,-1.8404,-1.7653,-1.4923,-1.3346,-1.2854,-1.4281,-1.3531,-1.1562,-1.3871,-1.4543,-1.4312,-1.5828,-1.6409,-1.58,-1.0919,-0.9408,-0.8902,-0.3637,-0.2235,-0.2569,-0.2014,-0.1959,-0.2183,0.0,0.0,0.0,-1.0259,-1.1501,-1.4002,-2.517,-2.7374,-2.8407,-3.459,-3.5949,-3.5908,-3.5903,-3.5899,-3.5897,-3.5908,-3.589,-3.5919,-3.5953,-3.5973,-3.6274,-3.7142,-3.7277,-3.7575,-3.8415,-3.857,-3.8573,-3.8502,-3.8555,-3.8573,-3.8502,-3.8493,-3.8513,-3.8578,-3.85,-3.852,-3.8634,-3.8567,-3.8549,-3.8544,-3.8498,-3.8474,-3.8497,-3.8435,-3.7999,-3.725,-3.7145,-3.6618,-3.5784,-3.5713,-3.5608,-3.5457,-3.5127,-3.4943,-3.4773,-3.3938,-3.3113,-3.2256,-3.1182,-2.9863,-2.8501,0.0,0.0,0.0,0.0,0.0,0.0,0.0,0.0,0.0,0.0,0.0,0.0,0.0,0.6785,0.8009,1.3093,1.6616,0.0,0.0,0.0,0.0,0.6371,-0.0672,-0.7608,-1.4333,-1.5821,-1.8122,-2.1424,-2.0509,-2.0517,-2.1327,-1.9892,-1.927,-1.9273,-1.8075,-1.7214,-1.6682,-1.6116,-1.5487,-1.4883,-1.4968,-1.7298,-2.0438,-1.7497,-1.9145,-2.2273,-1.6571,-1.4248,-1.3252,-0.9037,-0.6893,-0.5467,-0.2707,-0.1905,-0.2071,-0.224,-0.28,-0.4502,-0.9748,-1.2089,-1.4563,-2.1088,-2.5032,-2.7967,-3.0385,-3.3513,-3.5899,-3.5901,-3.589,-3.5903,-3.5891,-3.5907,-3.5895,-3.5903,-3.5903,-3.6016,-3.632,-3.6364,-3.6472,-3.6795,-3.6855,-3.6868,-3.6882,-3.6929,-3.6912,-3.6908,-3.6894,-3.7123,-3.7632,-3.763,-3.7881,-3.8419,-3.8458,-3.8176,-3.7566,-3.7611,-3.7356,-3.6835,-3.6859,-3.6715,-3.642,-3.6318,-3.6068,-3.5724,-3.5715,-3.5608,-3.5424,-3.5266,-3.5088,-3.4927,-3.4439,-3.3506,-3.2305,-3.1076,-2.9712,-2.8375,0.0,0.0,0.0,0.0,0.0,0.0,0.0,0.0,0.0,0.2294,0.0,0.0,0.0,0.0,0.2421,0.7639,1.1273,1.3574,1.4305,1.0055,0.5621,0.1379,-0.2188,-0.7758,-1.5637,-1.5187,-1.7069,-2.1574,-2.0617,-2.0611,-2.1502,-1.9801,-1.9148,-1.9396,-1.9353,-1.9073,-1.8611,-1.7633,-1.7374,-1.7752,-1.8609,-2.1208,-2.4293,-2.1765,-2.3661,-2.6937,-2.1491,-1.9444,-1.873,-1.4898,-1.2753,-1.109,-0.76,-0.562,-0.4299,-0.2817,-0.2693,-0.3845,-0.7351,-0.9175,-1.1249,-1.5924,-1.953,-2.2998,-2.7158,-3.0801,-3.3789,-3.5565,-3.5921,-3.591,-3.5895,-3.59,-3.5909,-3.5893,-3.5903,-3.5899,-3.5895,-3.5895,-3.5897,-3.5898,-3.5912,-3.5945,-3.5957,-3.5986,-3.5991,-3.5966,-3.5993,-3.622,-3.6738,-3.6758,-3.7008,-3.7537,-3.7595,-3.7322,-3.6701,-3.6721,-3.644,-3.5895,-3.5955,-3.5974,-3.5968,-3.5854,-3.5768,-3.5705,-3.5679,-3.5596,-3.5464,-3.535,-3.5174,-3.4963,-3.4693,-3.3848,-3.2594,-3.1474,-3.0337,-2.9162,0.0,0.0,0.0,0.0,0.0,0.0,0.0,0.0,-0.3161,0.0817,0.0,0.0,0.0,0.0,0.0,-0.0862,-0.0507,0.0462,0.2601,0.165,0.1021,0.1043,0.0,0.0,-0.9492,-1.319,-1.7148,-2.1409,-2.0478,-2.0266,-2.0642,-1.9043,-1.8283,-1.828,-1.8663,-1.8578,-1.8264,-1.8947,-1.94,-2.0057,-2.5269,-2.6469,-2.5562,-2.9124,-3.0266,-2.949,-2.562,-2.4994,-2.5312,-2.0767,-1.9318,-1.8967,-1.6499,-1.288,-0.8694,-0.4174,-0.2912,-0.2974,0.0,0.0,0.0,-0.9817,-1.0797,-1.3215,-2.4968,-2.7847,-2.9525,-3.4724,-3.5828,-3.586,-3.5895,-3.5903,-3.5909,-3.5898,-3.5894,-3.5894,-3.5894,-3.5895,-3.5893,-3.5896,-3.5953,-3.5972,-3.5916,-3.5968,-3.5972,-3.5916,-3.5955,-3.5977,-3.5912,-3.5899,-3.5908,-3.5893,-3.5909,-3.5889,-3.5903,-3.584,-3.584,-3.5908,-3.5908,-3.5899,-3.5898,-3.5838,-3.5761,-3.5704,-3.5639,-3.5596,-3.557,-3.5369,-3.5181,-3.4975,-3.4696,-3.4038,-3.3127,-3.2441,-3.1656,-3.0776,0.0,0.0,0.0,0.0,0.0,0.0,-1.182,-1.0272,-0.93,0.0,0.0,0.0,-0.9842,-0.7645,-0.5843,-0.5092,-0.1503,0.0963,0.1538,-0.1561,-0.3188,-0.2656,-0.707,-1.0035,-1.1065,-1.4745,-1.7549,-1.9322,-2.0495,-2.1574,-2.2442,-2.0724,-1.9924,-1.985,-1.9529,-1.9105,-1.872,-1.9823,-2.0231,-2.0471,-2.4809,-2.6533,-2.6805,-2.9277,-3.0942,-3.1791,-3.0097,-2.9044,-2.803,-2.5494,-2.2343,-1.8855,-1.5259,-0.9489,-0.4325,-0.5826,-0.4408,0.0,-0.2579,0.0,0.0,0.0,0.0,0.0,-1.6132,-2.2171,-2.7669,-3.0194,-3.2946,-3.5096,-3.5776,-3.5859,-3.5837,-3.5893,-3.5898,-3.5876,-3.5838,-3.5823,-3.5845,-3.5893,-3.5916,-3.5931,-3.5974,-3.5986,-3.5991,-3.5972,-3.5994,-3.5992,-3.5977,-3.5974,-3.5977,-3.5962,-3.5974,-3.5951,-3.5908,-3.5923,-3.5931,-3.5908,-3.595,-3.5976,-3.5973,-3.5851,-3.5795,-3.5762,-3.5708,-3.5643,-3.5585,-3.5383,-3.5219,-3.5051,-3.4774,-3.4099,-3.3194,-3.2624,-3.1629,-3.0503,0.0,0.0,0.0,0.0,0.0,-1.4082,-1.4334,-1.3139,-1.2641,0.0,0.0,0.0,-1.5574,-1.259,-1.0715,-1.1215,-0.8402,-0.6749,-0.71,-0.8719,-0.9485,-0.9073,-0.9624,-1.0671,-1.2295,-1.4326,-1.6505,-1.8789,-2.088,-2.2481,-2.3548,-2.1972,-2.1399,-2.1679,-2.0965,-2.0495,-2.0315,-2.1271,-2.1222,-2.0908,-2.4894,-2.6383,-2.6467,-2.8987,-3.0561,-3.1381,-3.1326,-3.1131,-3.0772,-3.0267,-2.7406,-2.338,-1.9522,-1.528,-1.0908,-0.6461,-0.6229,0.0,0.0,0.0,0.0,-0.3471,0.0,0.0,-1.176,-1.6416,-2.1717,-2.7191,-2.9985,-3.2366,-3.5396,-3.5898,-3.5851,-3.5893,-3.5906,-3.5888,-3.5801,-3.5825,-3.5851,-3.5891,-3.5896,-3.5927,-3.5992,-3.6009,-3.601,-3.5996,-3.5996,-3.5995,-3.6005,-3.5977,-3.5977,-3.6003,-3.5977,-3.5939,-3.5904,-3.5942,-3.5935,-3.5907,-3.5937,-3.595,-3.5952,-3.5875,-3.584,-3.5795,-3.5737,-3.5657,-3.5593,-3.5424,-3.5247,-3.5086,-3.487,-3.4369,-3.3761,-3.3358,-3.2653,-3.191,0.0,0.0,0.0,-1.5387,-1.4896,-1.4632,-1.5103,-1.4575,-1.4315,0.0,-1.5717,-1.6628,-1.7594,-1.6848,-1.662,-1.7471,-1.7632,-1.7981,-1.8625,-1.6772,-1.5617,-1.5511,-1.0305,-0.8894,-1.2093,-1.2657,-1.4801,-1.8689,-2.1373,-2.316,-2.4063,-2.2849,-2.2659,-2.3325,-2.2539,-2.2245,-2.2395,-2.2816,-2.2375,-2.1718,-2.5302,-2.6059,-2.5454,-2.8548,-2.9716,-2.9826,-3.0839,-3.1836,-3.2854,-3.3843,-3.2607,-3.0059,-2.6459,-2.5428,-2.2712,-0.8057,-0.819,0.0,0.0,0.0,0.0,-0.3304,-0.3471,0.0,-0.9865,-1.1093,-1.4034,-2.405,-2.6171,-2.7866,-3.3289,-3.4219,-3.4308,-3.471,-3.4949,-3.5252,-3.5742,-3.5856,-3.5893,-3.5918,-3.5906,-3.5935,-3.5996,-3.5993,-3.601,-3.5996,-3.5996,-3.5995,-3.6005,-3.5946,-3.5942,-3.5982,-3.5946,-3.5916,-3.59,-3.5903,-3.5916,-3.5908,-3.5918,-3.5908,-3.5914,-3.5897,-3.5864,-3.5812,-3.5737,-3.5667,-3.5593,-3.5445,-3.5288,-3.5117,-3.4963,-3.4732,-3.4495,-3.4293,-3.413,-3.3979,0.0,0.0,-1.6066,-1.6089,-1.6478,-1.6787,-1.6908,-1.6822,-1.6818,-1.6993,-1.714,-1.7352,-1.7682,-1.7517,-1.75,-1.7792,-1.8506,-1.9006,-1.9147,-1.5996,-1.363,-1.252,-0.8408,-0.6012,-0.5638,-1.1278,-1.4623,-1.542,-2.1082,-2.3916,-2.4007,-2.3642,-2.332,-2.3076,-2.2902,-2.2805,-2.2797,-2.294,-2.363,-2.4671,-2.5281,-2.5876,-2.6698,-2.898,-3.0604,-3.1767,-3.2665,-3.2381,-3.1542,-3.0998,-3.1574,-3.1884,-2.8353,-2.6087,-2.359,-1.7758,-0.9942,-0.3906,-0.722,-0.4476,-0.1176,-0.3079,-0.3697,0.0,-0.5605,-0.8394,-1.1594,-1.4878,-1.7992,-2.0813,-2.3097,-2.3467,-2.4377,-2.729,-2.8992,-3.1339,-3.5327,-3.5898,-3.5914,-3.5976,-3.5973,-3.5992,-3.5993,-3.5992,-3.6009,-3.6009,-3.6009,-3.6007,-3.6005,-3.5982,-3.5955,-3.5916,-3.5952,-3.5952,-3.5892,-3.5957,-3.5987,-3.5971,-3.5971,-3.5988,-3.5974,-3.5866,-3.5845,-3.5857,-3.5756,-3.5689,-3.5649,-3.5425,-3.5258,-3.5174,-3.4963,-3.4771,-3.4561,-3.4473,-3.4136,-3.3715,-1.6265,-1.6697,-1.7015,-1.7054,-1.7384,-1.7641,-1.7641,-1.7641,-1.7664,-1.7749,-1.7658,-1.7726,-1.8061,-1.791,-1.8222,-1.9352,-1.9787,-2.0366,-2.1248,-1.8243,-1.6136,-1.5408,-1.2302,-1.0303,-0.9649,-1.4837,-1.7479,-1.7334,-2.2072,-2.4396,-2.4352,-2.402,-2.4242,-2.492,-2.4006,-2.4199,-2.5195,-2.4518,-2.4869,-2.5897,-2.6216,-2.713,-2.8489,-3.023,-3.1633,-3.2716,-3.3136,-3.3067,-3.2691,-3.2468,-3.2008,-3.1379,-3.0665,-2.8524,-2.6038,-2.4678,-1.8944,-1.1838,-0.6512,-0.2603,-0.028,-0.1511,-0.2798,0.0,0.0,-0.5533,-0.7772,-1.146,-1.3588,-1.5889,-1.9573,-2.0174,-2.0783,-2.286,-2.5232,-2.778,-3.0613,-3.3838,-3.5917,-3.5947,-3.5957,-3.5956,-3.5993,-3.5973,-3.5957,-3.5949,-3.5958,-3.5947,-3.5947,-3.5947,-3.5931,-3.5896,-3.5979,-3.5987,-3.5948,-3.5976,-3.5975,-3.5955,-3.5949,-3.5942,-3.5958,-3.5879,-3.5872,-3.5898,-3.5791,-3.5727,-3.5699,-3.5519,-3.5364,-3.5223,-3.5001,-3.479,-3.4645,-3.4539,-3.4321,-3.4043,-1.7563,-1.7732,-1.78,-1.7861,-1.7922,-1.7966,-1.7971,-1.7878,-1.7833,-1.7883,-1.8166,-1.8552,-1.8965,-1.9127,-1.9883,-2.1562,-2.1779,-2.2294,-2.3413,-2.1136,-1.9578,-1.92,-1.675,-1.5385,-1.5352,-1.8658,-2.0318,-2.0091,-2.3182,-2.471,-2.4719,-2.4284,-2.493,-2.6467,-2.5245,-2.5646,-2.7209,-2.6353,-2.6452,-2.724,-2.7966,-2.8762,-2.9674,-3.1164,-3.2287,-3.3129,-3.3557,-3.4183,-3.4773,-3.4809,-3.3139,-3.1178,-3.2212,-3.1067,-2.9225,-2.8783,-2.7551,-2.295,-0.7492,-0.2907,-0.2391,-0.2114,-0.3523,-0.4781,0.0,0.0,0.0,-0.91,-0.9853,-1.1198,-1.616,-1.7009,-1.7527,-1.9367,-2.2015,-2.4453,-2.6231,-3.134,-3.4892,-3.4928,-3.5505,-3.5801,-3.5513,-3.5425,-3.5545,-3.588,-3.5597,-3.5554,-3.5885,-3.5897,-3.5904,-3.5903,-3.5968,-3.5996,-3.5993,-3.5999,-3.5971,-3.5913,-3.5899,-3.5875,-3.5878,-3.5885,-3.5877,-3.585,-3.5807,-3.5745,-3.5679,-3.5615,-3.5496,-3.5315,-3.5038,-3.4849,-3.4708,-3.4602,-3.4539,-3.445,-1.7922,-1.7997,-1.8086,-1.8146,-1.81,-1.8117,-1.8229,-1.7992,-1.7833,-1.7883,-1.9602,-2.0831,-2.0883,-2.2722,-2.4028,-2.4269,-2.5253,-2.5365,-2.4267,-2.2609,-2.0916,-1.9187,-1.6718,-1.5196,-1.4787,-1.8237,-1.9958,-1.9768,-2.3306,-2.4987,-2.4874,-2.4685,-2.4791,-2.5162,-2.6096,-2.6321,-2.6088,-2.7288,-2.892,-3.0742,-3.0826,-2.9914,-2.8658,-3.0376,-3.1845,-3.3292,-3.5227,-3.6296,-3.6562,-3.5112,-3.4624,-3.4133,-3.1402,-3.1977,-3.2802,-2.8364,-2.7803,-2.6655,-1.7603,-1.3293,-1.1041,-0.9781,-0.9778,-0.8791,-0.3926,0.0,-0.3585,-0.3851,0.0,-0.4912,-0.6353,0.0,0.0,-1.5263,-1.7979,-2.1276,-2.705,-2.986,-3.1305,-3.1362,-3.4101,-3.535,-3.376,-3.361,-3.4246,-3.578,-3.4477,-3.4263,-3.5827,-3.5904,-3.5892,-3.5893,-3.5976,-3.6009,-3.5996,-3.6007,-3.6001,-3.5981,-3.5869,-3.5814,-3.5807,-3.5807,-3.5737,-3.5639,-3.5745,-3.5737,-3.5612,-3.5612,-3.5546,-3.5443,-3.5187,-3.5001,-3.4868,-3.4788,-3.4645,-3.4473,-1.8002,-1.7992,-1.8237,-1.8663,-1.8792,-1.8853,-1.8879,-1.8388,-1.807,-1.818,-1.8943,-1.9901,-2.1085,-2.1167,-2.238,-2.5425,-2.5216,-2.4927,-2.4956,-2.4332,-2.3013,-2.0813,-2.0286,-1.9959,-1.9746,-2.1784,-2.2772,-2.2666,-2.4211,-2.4962,-2.4902,-2.4879,-2.5665,-2.712,-2.7229,-2.8148,-2.9636,-2.9863,-3.0415,-3.1215,-3.22,-3.1738,-3.0761,-3.302,-3.4431,-3.5348,-3.6352,-3.6881,-3.6998,-3.6387,-3.504,-3.3658,-3.3811,-3.3096,-3.1882,-3.0188,-2.9861,-2.9023,-2.435,-2.3161,-2.2867,-2.131,-1.6637,-1.1703,-0.9081,-0.5667,-0.3204,-0.3591,0.0,0.0,0.0,0.0,0.0,0.0,-1.56,-1.8844,-2.0192,-2.5804,-3.0018,-3.0667,-3.1991,-3.2986,-3.3266,-3.4137,-3.5027,-3.5844,-3.5115,-3.4978,-3.5799,-3.5891,-3.5904,-3.5899,-3.5933,-3.5934,-3.5947,-3.5942,-3.5938,-3.5934,-3.5883,-3.5866,-3.5859,-3.5857,-3.5799,-3.5717,-3.5782,-3.5765,-3.5718,-3.5718,-3.5635,-3.5483,-3.5388,-3.5235,-3.5107,-3.4926,-3.4812,-3.4691,-1.8585,-1.8642,-1.8991,-1.9504,-1.9675,-1.9629,-1.9394,-1.8784,-1.838,-1.8406,-1.8885,-1.9952,-2.185,-2.1697,-2.3178,-2.7447,-2.694,-2.654,-2.6926,-2.6573,-2.5628,-2.3951,-2.3819,-2.4001,-2.4432,-2.4776,-2.4921,-2.4847,-2.4962,-2.5114,-2.5304,0.0,0.0,-2.8536,-2.8383,-2.9641,-3.1867,-3.1775,-3.187,-3.2253,-3.3696,-3.4282,-3.441,-3.5783,-3.6835,-3.7622,-3.7713,-3.776,-3.7755,-3.7416,-3.578,-3.4125,-3.5684,-3.4372,-3.231,-3.2474,-3.2348,-3.1596,-2.8993,-2.9498,-3.0133,-2.7386,-2.1283,-1.5543,-1.4023,-1.0021,-0.6448,-0.5858,-0.5366,0.0,0.0,0.0,-0.8143,0.0,0.0,-1.5777,-1.6055,-2.2069,-2.7153,-2.9047,-2.9617,-3.054,-3.2288,-3.3321,-3.4212,-3.5029,-3.4766,-3.4933,-3.5776,-3.5879,-3.5894,-3.5904,-3.5908,-3.5898,-3.5908,-3.5926,-3.5919,-3.5908,-3.5883,-3.5872,-3.5866,-3.5864,-3.5834,-3.5754,-3.5791,-3.5773,-3.5757,-3.5775,-3.5688,-3.5534,-3.5534,-3.547,-3.534,-3.5102,-3.4963,-3.487,-2.0127,-2.0384,-2.066,-2.0829,-2.07,-2.0326,-1.9595,-1.9094,-1.8714,-1.8524,-2.0412,-2.2417,-2.4028,-2.6924,-2.9485,-3.1278,-3.2325,-3.2303,-3.0921,-2.9539,-2.8805,-2.8879,-2.6224,-2.5487,-2.7033,-2.5773,-2.5057,-2.4993,-2.5195,-2.5644,0.0,0.0,0.0,0.0,-2.9525,-3.0275,-3.0665,-3.2119,-3.3614,-3.5066,-3.5959,-3.7699,-3.9537,-3.7762,-3.8108,-3.9614,-3.9614,-3.9614,-3.9392,-3.7813,-3.7334,-3.711,-3.5755,-3.5869,-3.6228,-3.4751,-3.4933,-3.4897,-3.1428,-3.0606,-2.942,-2.4032,-2.2402,-2.1065,-1.7093,-1.6305,-1.5162,-1.0664,-1.0059,-0.9071,-0.4961,-0.4161,-0.6476,0.0,0.0,0.0,0.0,-1.9557,-2.1189,-2.5197,-2.7031,-2.8598,-3.0153,-2.9698,-3.0335,-3.2812,-3.2324,-3.3099,-3.5743,-3.5904,-3.5892,-3.59,-3.5906,-3.5898,-3.5903,-3.5957,-3.5965,-3.5908,-3.5839,-3.5801,-3.5799,-3.5793,-3.5737,-3.5604,-3.5747,-3.5727,-3.5618,-3.5757,-3.5718,-3.5607,-3.5607,-3.5585,-3.5577,-3.535,-3.5126,-3.4908,-2.0388,-2.1045,-2.1557,-2.1499,-2.1505,-2.1266,-2.0543,-1.9432,-1.9229,-2.0815,-2.1679,-2.3481,-2.6904,-2.7265,-2.8648,-3.2072,-3.1756,-3.1152,-3.0757,-2.9776,-2.8767,-2.7749,-2.6395,-2.6144,-2.7177,-2.6901,-2.6764,-2.6795,-2.6905,-2.7152,0.0,0.0,0.0,0.0,-3.0017,-3.1099,-3.2232,-3.3334,-3.4079,-3.4693,-3.6098,-3.7417,-3.8573,-3.885,-3.9375,-3.9954,-3.9911,-3.9911,-3.9816,-3.9269,-3.842,-3.7604,-3.7708,-3.6895,-3.5939,-3.6037,-3.5931,-3.5422,-3.3658,-3.3679,-3.336,-2.9746,-2.6798,-2.4198,-2.1913,-1.8866,-1.6034,-1.4442,-1.1757,-1.003,-1.1263,-0.8754,0.0,0.0,0.0,0.0,0.0,-1.7667,-1.9741,-2.0807,-2.5069,-2.8143,-2.8747,-3.0025,-3.1476,-3.3057,-3.3386,-3.4194,-3.5753,-3.5885,-3.5908,-3.5903,-3.5893,-3.5896,-3.5898,-3.5921,-3.5939,-3.5966,-3.5895,-3.5875,-3.5872,-3.5878,-3.5823,-3.5726,-3.5779,-3.5771,-3.5736,-3.5773,-3.5747,-3.5678,-3.5678,-3.5646,-3.5589,-3.5411,-3.5232,-3.4997,-2.0634,-2.1359,-2.2,-2.192,-2.1824,-2.1497,-2.0761,-1.9629,-1.974,-2.2175,-2.254,-2.4164,-2.8406,-2.8233,-2.915,-3.2551,-3.2173,-3.1704,-3.1536,-3.1054,-3.0441,-2.9676,-2.8527,-2.8395,-2.9413,-2.8578,-2.8165,-2.8231,-2.801,-2.8131,0.0,0.0,0.0,0.0,-3.0408,-3.1566,-3.3149,-3.3709,-3.4281,-3.493,-3.6578,-3.7874,-3.8935,-3.9811,-3.9776,-3.9318,-3.9909,-4.008,-4.0077,-4.0057,-3.9334,-3.8614,-3.931,-3.8485,-3.7382,-3.8054,-3.7938,-3.7311,-3.6132,-3.6093,-3.5846,-3.3556,-3.0774,-2.8286,-2.7104,-2.4271,-2.1451,-1.9867,-1.6628,-1.4611,-1.6435,-1.3127,0.0,0.0,0.0,0.0,0.0,-1.397,-1.563,-1.8323,-2.3524,-2.7039,-2.7413,-2.882,-3.0423,-3.2143,-3.2965,-3.3984,-3.5307,-3.5704,-3.5905,-3.5898,-3.59,-3.5911,-3.5937,-3.5947,-3.5946,-3.5951,-3.5939,-3.5927,-3.5908,-3.5897,-3.5879,-3.5838,-3.5811,-3.5795,-3.5807,-3.5799,-3.5756,-3.5707,-3.5707,-3.5665,-3.5577,-3.5489,-3.5364,-3.5168,-2.0828,-2.1388,-2.2016,-2.2012,-2.1601,-2.1022,-2.0318,-1.98,-2.0354,-2.2777,-2.3254,-2.4873,-2.8883,-3.0175,-3.1372,-3.2956,-3.3857,-3.4088,-3.344,-3.3425,-3.3783,-3.4514,-3.2543,-3.21,-3.3564,-3.0776,-2.931,-2.9342,-2.8594,-2.8644,0.0,0.0,0.0,0.0,-3.0696,-3.1668,-3.3306,-3.3294,-3.4282,-3.596,-3.7425,-3.9057,-4.059,-4.0623,-3.9422,-3.7957,-3.9706,-4.0269,-4.0215,-4.0138,-4.0118,-4.0158,-4.0408,-4.0473,-4.0454,-4.066,-4.0757,-4.0408,-3.8681,-3.7695,-3.6761,-3.5026,-3.3974,-3.314,-3.2266,-3.2059,-3.0864,-2.6597,-2.4304,-2.235,-2.001,-1.6791,0.0,0.0,0.0,0.0,0.0,-0.928,-0.981,-1.7757,-2.253,-2.5452,-2.6197,-2.6212,-2.7347,-3.0135,-3.1107,-3.2449,-3.4495,-3.5343,-3.5813,-3.5894,-3.5908,-3.5927,-3.5992,-3.5994,-3.5964,-3.5914,-3.5971,-3.5965,-3.5894,-3.5889,-3.5891,-3.5905,-3.5838,-3.5811,-3.5803,-3.5807,-3.5756,-3.5707,-3.5707,-3.5665,-3.5604,-3.5589,-3.5515,-3.5364,-2.0214,-2.0475,-2.0807,-2.0949,-2.0822,-2.0641,-2.0438,-2.1397,-2.3011,-2.5484,-2.7327,-2.9828,-3.3528,-3.4018,-3.4563,-3.5843,-3.6147,-3.626,-3.6177,-3.5716,-3.5796,-3.661,-3.5196,-3.4519,-3.4827,-3.301,-3.1814,-3.1285,-3.045,-3.0147,-3.0367,0.0,0.0,0.0,-3.0742,-3.1747,-3.3372,-3.3322,-3.5014,-3.7739,-3.8186,-3.861,-3.9129,-4.0462,-3.9799,-3.836,-4.0018,-4.0554,-4.0481,-4.0372,-4.0356,-4.0403,-4.0422,-4.0485,-4.0579,-4.0733,-4.0796,-4.0436,-3.8801,-3.8213,-3.75,-3.5173,-3.448,-3.4094,-3.319,-3.2975,-3.245,-3.0674,-2.7589,-2.4553,-2.2407,-1.8627,-1.693,0.0,0.0,0.0,0.0,-1.4831,-1.6757,-1.8503,-2.3191,-2.6142,-2.5732,-2.6792,-2.8117,-2.9552,-3.0399,-3.1954,-3.4468,-3.4101,-3.4484,-3.5927,-3.5938,-3.5929,-3.5992,-3.6009,-3.5999,-3.5968,-3.5994,-3.5997,-3.5977,-3.5919,-3.5903,-3.5897,-3.5885,-3.5872,-3.5872,-3.5815,-3.5765,-3.5699,-3.5699,-3.5678,-3.5651,-3.5509,-3.5422,-3.5379,-1.9758,-2.0421,-2.1113,-2.1306,-2.2476,-2.3006,-2.1927,-2.3011,-2.4923,-2.7662,-2.9527,-3.1771,-3.4832,-3.5688,-3.6323,-3.6996,-3.7038,-3.6983,-3.6803,-3.707,-3.7357,-3.7619,-3.7271,-3.7045,-3.6961,-3.5152,-3.3837,-3.3103,-3.186,-3.1086,-3.0741,0.0,0.0,0.0,-3.0769,-3.1541,-3.2869,-3.3961,-3.5776,-3.7951,-3.875,-3.9265,0.0,-4.07,-4.0435,-3.9648,-4.0537,-4.0789,-4.0636,-4.0563,-4.054,-4.054,-4.0521,-4.0554,-4.0621,-4.0739,-4.0513,-4.0026,-3.9141,-3.8361,-3.7481,-3.6084,-3.5498,-3.5022,-3.4087,-3.3863,-3.3716,-3.3193,-3.0708,-2.8602,-2.8507,-2.4654,-2.1757,0.0,0.0,0.0,-1.6061,-1.6088,-1.6969,-1.8521,-2.1288,-2.3692,-2.5258,-2.6923,-2.8143,-2.8695,-2.9433,-3.0545,-3.2147,-3.2757,-3.3607,-3.4783,-3.5519,-3.5927,-3.5994,-3.5973,-3.5966,-3.6005,-3.5994,-3.5997,-3.6005,-3.5929,-3.5899,-3.5894,-3.5898,-3.5905,-3.5892,-3.5834,-3.5765,-3.5699,-3.5669,-3.5667,-3.5676,-3.554,-3.5489,-3.5457,-2.0092,-2.1174,-2.2268,-2.2593,-2.5321,-2.6776,-2.4745,-2.5371,-2.7072,-2.9773,-3.111,-3.2657,-3.4862,-3.6351,-3.7244,-3.7427,-3.7427,-3.7265,-3.684,-3.808,-3.8652,-3.8285,-3.8939,-3.9265,-3.9165,-3.7044,-3.5476,-3.451,-3.2947,-3.1699,0.0,0.0,0.0,0.0,-3.0762,-3.1295,-3.2335,-3.4843,-3.6467,-3.7519,-3.913,-4.0311,-4.11,-4.1111,-4.1106,-4.11,-4.11,-4.0953,-4.0742,-4.0738,-4.0699,-4.0668,-4.0711,-4.0674,-4.061,-4.0578,-4.0048,-3.9429,-3.9234,-3.814,-3.7072,-3.7033,-3.6508,-3.5783,-3.4963,-3.4783,-3.4756,-3.4704,-3.3517,-3.3106,-3.5027,-3.1623,-2.7991,0.0,-2.3124,-2.0693,-2.0415,-1.6978,-1.5817,-1.9499,-1.9787,0.0,-2.4947,-2.6737,-2.7675,-2.7697,-2.8241,-2.8846,-2.9478,-3.1495,-3.2931,-3.3587,-3.5104,-3.5921,-3.5976,-3.5937,-3.5934,-3.5991,-3.601,-3.6001,-3.5981,-3.5934,-3.5909,-3.5909,-3.5911,-3.5898,-3.5905,-3.583,-3.5773,-3.5699,-3.5635,-3.5635,-3.5697,-3.5623,-3.5601,-3.5601,-2.3509,-2.3431,-2.3416,-2.4288,-2.7203,-2.9515,-2.9848,-3.1051,-3.2128,-3.273,-3.4788,-3.6602,-3.7694,-3.8067,-3.8497,-3.9176,-3.9232,-3.9337,-3.9509,-3.9776,-4.0017,-4.0202,-4.0331,-4.0108,-3.9437,-3.8371,-3.672,-3.451,-3.3537,-3.2264,0.0,0.0,0.0,0.0,-3.0716,-3.1597,-3.3207,-3.5097,-3.6823,-3.8362,-3.9396,-4.0325,-4.1091,-4.1091,-4.1091,-4.1091,-4.1091,-4.1061,-4.1013,-4.0887,-4.0878,-4.0904,-4.0809,-4.0765,-4.0649,-3.9982,-3.9615,-3.9134,-3.7802,-3.7236,-3.6878,-3.628,-3.6056,-3.5968,-3.5783,-3.5704,-3.5666,-3.566,-3.5427,-3.4915,-3.3899,-3.1836,-2.9946,-2.8962,-2.817,-2.7911,-2.86,-2.6802,-2.5698,-2.6443,-2.6463,-2.6122,-2.5459,-2.6309,-2.682,-2.6663,-2.6774,-2.8114,-3.1014,-3.0878,-3.2106,-3.5177,-3.5685,-3.5877,-3.583,-3.5933,-3.5956,-3.5917,-3.5977,-3.5966,-3.5914,-3.5919,-3.5924,-3.5981,-3.5914,-3.5903,-3.5903,-3.5885,-3.5807,-3.5699,-3.5635,-3.5643,-3.5684,-3.5628,-3.5639,-3.5662,-2.3413,-2.4261,-2.5329,-2.6678,-3.0041,-3.2988,-3.4317,-3.5777,-3.6281,-3.5056,-3.6304,-3.7457,-3.7877,-3.875,-3.9435,-3.9816,-3.9981,-4.0177,-4.0386,-4.0419,-4.0511,-4.0738,-4.0757,-4.0556,-4.0184,-3.9392,-3.7728,-3.517,-3.432,-3.2829,0.0,-3.0711,0.0,-3.0723,-3.1173,-3.2085,-3.3445,-3.5644,-3.7326,-3.8612,-3.9934,-4.0725,-4.1106,-4.1091,-4.1111,-4.1106,-4.1106,-4.1106,-4.1086,-4.1032,-4.0984,-4.0949,-4.0878,-4.0538,-4.0081,-3.9672,-3.8883,-3.799,-3.72,-3.6677,-3.625,-3.5961,-3.5919,-3.5955,-3.5985,-3.5951,-3.589,-3.5899,-3.5904,-3.5388,-3.3663,-3.2306,-3.1157,-3.0311,-2.9804,-2.9802,-3.0683,-3.0114,-2.9418,-2.8887,-2.8396,-2.7521,-2.6072,-2.5989,-2.6141,-2.6429,-2.6456,-2.7584,-3.0171,-3.0298,-3.1554,-3.4268,-3.5359,-3.588,-3.5845,-3.5915,-3.5955,-3.5953,-3.5985,-3.5958,-3.5909,-3.5894,-3.5943,-3.6005,-3.5919,-3.5899,-3.5904,-3.5853,-3.5807,-3.5737,-3.5669,-3.5678,-3.5707,-3.5665,-3.5665,-3.5676,-2.425,-2.581,-2.7742,-2.9808,-3.3149,-3.6007,-3.7319,-3.8812,-3.9126,-3.72,-3.7463,-3.7839,-3.7902,-3.9157,-3.9977,-3.9962,-4.0195,-4.0386,-4.053,-4.0568,-4.0649,-4.0796,-4.0796,-4.0807,-4.0818,-4.0197,-3.8719,-3.6345,-3.5294,-3.3593,-3.131,0.0,0.0,-3.1022,-3.189,-3.2859,-3.4001,-3.6442,-3.7985,-3.892,-4.0472,-4.1106,-4.1095,-4.11,-4.11,-4.1089,-4.1089,-4.1095,-4.11,-4.107,-4.102,-4.0918,-4.0707,-4.0168,-3.9529,-3.9111,-3.8044,-3.6948,-3.6764,-3.6212,-3.5732,-3.5833,-3.5878,-3.589,-3.5951,-3.5914,-3.5875,-3.587,-3.5894,-3.5435,-3.3953,-3.3256,-3.2627,-3.1776,-3.1094,-3.0956,-3.1772,-3.1443,-3.0909,-3.0291,-2.9113,-2.8079,-2.7345,-2.6455,-2.621,-2.6959,-2.6882,-2.7517,-2.9235,-3.0017,-3.1233,-3.3015,-3.4559,-3.5337,-3.5302,-3.572,-3.5934,-3.5971,-3.5994,-3.5958,-3.5904,-3.5894,-3.5943,-3.6005,-3.5948,-3.5904,-3.5895,-3.5827,-3.5799,-3.5784,-3.5736,-3.5718,-3.5699,-3.5699,-3.5698,-3.5678,-2.9813,-3.0132,-3.0776,-3.4034,-3.6136,-3.7395,-3.7585,-3.8912,-3.975,-3.9433,-3.9475,-3.9558,-3.9558,-3.9772,-3.987,-3.9807,-4.0001,-4.0196,-4.0323,-4.0434,-4.0602,-4.08,-4.08,-4.0823,-4.0897,-4.0819,-3.9913,-3.8166,-3.6489,-3.4784,-3.3024,-3.1436,-3.1112,-3.1913,-3.2783,-3.4092,-3.5773,-3.7606,-3.8879,-3.977,-4.071,-4.1095,-4.1095,-4.1097,-4.1091,-4.1091,-4.1091,-4.1091,-4.1091,-4.1039,-4.1052,-4.0928,-4.0078,-3.977,-3.938,-3.7786,-3.7162,-3.6831,-3.6048,-3.5756,-3.5693,-3.5721,-3.5755,-3.5813,-3.582,-3.5801,-3.5813,-3.5807,-3.5852,-3.5627,-3.4741,-3.5119,-3.5275,-3.4478,-3.4213,-3.4431,-3.5309,-3.3392,-3.215,-3.2842,-3.0714,-2.9419,-3.0064,-2.8579,-2.7911,-2.8705,-2.8097,-2.8386,-3.0013,-3.0355,-3.1252,-3.2965,-3.3367,-3.3487,-3.3359,-3.5103,-3.5956,-3.5915,-3.5968,-3.5953,-3.5889,-3.5889,-3.5943,-3.6005,-3.5981,-3.5953,-3.5889,-3.5838,-3.5801,-3.5803,-3.5788,-3.5754,-3.5698,-3.5706,-3.5708,-3.5707,-3.1981,-3.2388,-3.323,-3.5567,-3.6948,-3.8021,-3.8956,-3.9558,-3.9867,-3.9781,-3.9758,-3.9735,-3.9735,-3.9873,-3.9939,-3.9918,-4.0139,-4.0356,-4.0469,-4.0526,-4.0636,-4.0784,-4.0804,-4.0826,-4.0897,-4.0907,-4.0079,-3.8399,-3.6693,-3.498,-3.3263,-3.2088,-3.2251,-3.3605,-3.4471,-3.5838,-3.7541,-3.8768,-3.978,-4.0602,-4.0967,-4.1097,-4.1097,-4.1091,-4.111,-4.111,-4.111,-4.111,-4.1013,-4.0481,-4.0266,-4.0188,-3.9831,-3.8972,-3.8004,-3.73,-3.6723,-3.6193,-3.5805,-3.5699,-3.5698,-3.5706,-3.5721,-3.5745,-3.5787,-3.5799,-3.5799,-3.5801,-3.5889,-3.5869,-3.5549,-3.5327,-3.5259,-3.5457,-3.5014,-3.4958,-3.5836,-3.5058,-3.4344,-3.4159,-3.2728,-3.1646,-3.1363,-2.9741,-2.8753,-2.8868,-2.813,-2.8195,-2.9358,-3.0528,-3.1709,-3.2894,-3.4222,-3.485,-3.4728,-3.5565,-3.5984,-3.596,-3.5997,-3.5958,-3.5899,-3.5894,-3.5919,-3.5938,-3.599,-3.5953,-3.5897,-3.5879,-3.5838,-3.5801,-3.5807,-3.5754,-3.5699,-3.5708,-3.5708,-3.5707,-3.388,-3.4385,-3.54,-3.7285,-3.8129,-3.8897,-3.9966,-4.0057,-3.9954,-3.9911,-3.9845,-3.98,-3.9735,-3.9854,-3.9941,-3.9941,-4.0177,-4.0336,-4.0434,-4.0521,-4.0636,-4.073,-4.0784,-4.0837,-4.0907,-4.0907,-4.0334,-3.9156,-3.7464,-3.6001,-3.4785,-3.3687,-3.3963,-3.5408,-3.628,-3.7497,-3.8943,-3.9803,-4.0545,-4.111,-4.111,-4.1085,-4.1065,-4.1085,-4.1085,-4.1065,-4.1085,-4.0935,-4.0623,-3.9974,-3.9403,-3.8968,-3.8967,-3.8123,-3.7085,-3.6822,-3.6293,-3.5782,-3.5737,-3.5708,-3.5708,-3.5698,-3.5698,-3.5708,-3.5763,-3.5771,-3.5771,-3.5776,-3.5866,-3.5934,-3.5934,-3.5444,-3.5267,-3.5908,-3.5483,-3.5309,-3.5916,-3.5781,-3.5286,-3.4398,-3.3285,-3.2523,-3.2331,-3.0707,-2.9766,-3.0009,-2.9467,-2.9295,-2.9679,-3.0955,-3.2087,-3.2966,-3.4456,-3.5166,-3.5041,-3.5682,-3.6007,-3.6001,-3.6009,-3.5958,-3.5909,-3.5899,-3.5899,-3.589,-3.5942,-3.5948,-3.5905,-3.5885,-3.5833,-3.5799,-3.5815,-3.5791,-3.5737,-3.5726,-3.5718,-3.5698,-3.6138,-3.6463,-3.7269,-3.9814,-4.0272,-4.0253,-4.0196,-4.0196,-4.0176,-4.0117,-4.0096,-4.0015,-3.9826,-3.9867,-3.987,-3.9804,-4.0,-4.0081,-4.0003,-4.0383,-4.0588,-4.0602,-4.073,-4.0837,-4.0907,-4.0907,-4.0917,-4.0971,-3.9215,-3.8351,-3.8297,-3.6562,-3.6269,-3.7204,-3.8082,-3.8959,-3.9844,-4.0721,-4.1091,-4.111,-4.111,-4.1059,-4.1013,-4.1065,-4.1059,-4.1013,-4.1085,-4.0545,-3.9799,-3.9728,-3.8604,-3.7233,-3.7235,-3.7209,-3.7034,-3.6177,-3.585,-3.5799,-3.5791,-3.5745,-3.5699,-3.5698,-3.5707,-3.5697,-3.5695,-3.5704,-3.5695,-3.5707,-3.5754,-3.5799,-3.5799,-3.5844,-3.5919,-3.5982,-3.5989,-3.5993,-3.5996,-3.5267,-3.4371,-3.3425,-3.1796,-3.1397,-3.3126,-3.1592,-3.1177,-3.281,-3.2826,-3.2396,-3.1603,-3.1778,-3.2297,-3.3166,-3.3346,-3.3375,-3.3229,-3.5074,-3.6007,-3.6001,-3.6009,-3.5958,-3.5909,-3.5909,-3.5909,-3.5909,-3.5894,-3.5903,-3.5885,-3.5826,-3.5795,-3.5799,-3.5866,-3.5857,-3.5793,-3.5799,-3.5749,-3.5699,-3.8988,-3.9138,-3.9404,-4.0229,-4.0345,-4.029,-4.0215,-4.0157,-4.0118,-4.0098,-4.0117,-4.0096,-4.0015,-4.0036,-4.0036,-4.0015,-4.0058,-4.0138,-4.0196,-4.0321,-4.0473,-4.0654,-4.0707,-4.0769,-4.0897,-4.0907,-4.0898,-4.0917,-3.9232,-3.811,-3.7576,-3.6976,-3.7476,-3.892,-3.9182,-3.9825,-4.0695,-4.0928,-4.1025,-4.1032,-4.1038,-4.1011,-4.1003,-4.1011,-4.1018,-4.1006,-4.1018,-4.0877,-4.0578,-3.9922,-3.8974,-3.7974,-3.7383,-3.6793,-3.6255,-3.5983,-3.5838,-3.5788,-3.5801,-3.5784,-3.5766,-3.5699,-3.5699,-3.5679,-3.5637,-3.5626,-3.5637,-3.5678,-3.5754,-3.5799,-3.5799,-3.582,-3.5836,-3.587,-3.5892,-3.5929,-3.5932,-3.5722,-3.5483,-3.5188,-3.4658,-3.4506,-3.5026,-3.3898,-3.285,-3.2102,-3.1463,-3.0957,-3.0653,-3.2488,-3.3414,-3.3145,-3.4459,-3.5136,-3.5036,-3.5677,-3.5991,-3.6007,-3.5994,-3.5958,-3.5894,-3.5894,-3.5894,-3.5894,-3.5889,-3.5897,-3.5911,-3.5878,-3.585,-3.5799,-3.5823,-3.5791,-3.5718,-3.5726,-3.5727,-3.5698,-4.0309,-4.0345,-4.0363,-4.0363,-4.0327,-4.029,-4.0253,-4.0215,-4.0195,-4.0195,-4.0195,-4.0195,-4.0195,-4.0195,-4.0157,-4.0098,-4.0117,-4.0138,-4.0215,-4.027,-4.0372,-4.053,-4.0607,-4.0739,-4.0865,-4.0856,-4.0877,-4.0907,-3.9871,-3.9123,-3.863,-3.8591,-3.915,-4.0201,-4.0186,-4.0505,-4.1071,-4.1023,-4.1003,-4.0991,-4.1003,-4.0988,-4.1007,-4.0996,-4.0996,-4.1003,-4.0996,-4.0816,-4.0487,-3.9896,-3.9163,-3.8357,-3.7467,-3.6838,-3.632,-3.6009,-3.5845,-3.5795,-3.5801,-3.5793,-3.5793,-3.5747,-3.5737,-3.5728,-3.5658,-3.5629,-3.5658,-3.5697,-3.5737,-3.5763,-3.5763,-3.5764,-3.5762,-3.5807,-3.5855,-3.5899,-3.5899,-3.595,-3.5722,-3.5058,-3.4986,-3.4963,-3.4924,-3.4358,-3.377,-3.3244,-3.2715,-3.2386,-3.233,-3.3011,-3.3648,-3.4176,-3.5367,-3.5976,-3.5937,-3.5987,-3.5996,-3.5991,-3.597,-3.5948,-3.5908,-3.5908,-3.5908,-3.5908,-3.5903,-3.5905,-3.5898,-3.5872,-3.585,-3.5799,-3.5799,-3.5773,-3.5737,-3.5708,-3.5689,-3.5697,-4.031,-4.031,-4.031,-4.031,-4.031,-4.031,-4.031,-4.031,-4.031,-4.031,-4.031,-4.031,-4.031,-4.031,-4.0253,-4.0137,-4.0117,-4.0117,-4.0117,-4.0233,-4.03,-4.0317,-4.0481,-4.0648,-4.0788,-4.0788,-4.0815,-4.0898,-4.0974,-4.1002,-4.101,-4.0999,-4.0996,-4.0996,-4.0988,-4.0996,-4.0996,-4.0988,-4.0988,-4.0996,-4.0988,-4.0999,-4.0982,-4.0988,-4.0999,-4.101,-4.0988,-4.0462,-3.9789,-3.9792,-3.9254,-3.8436,-3.7637,-3.7292,-3.7013,-3.6145,-3.5864,-3.5803,-3.5799,-3.5799,-3.581,-3.5812,-3.5803,-3.5785,-3.5728,-3.5708,-3.5689,-3.5706,-3.5706,-3.5707,-3.5707,-3.5708,-3.5713,-3.5784,-3.5846,-3.5885,-3.5885,-3.5903,-3.5293,-3.3671,-3.3485,-3.3496,-3.3473,-3.3481,-3.4116,-3.5617,-3.5716,-3.5727,-3.5718,-3.3356,-3.3223,-3.5918,-3.5995,-3.5994,-3.5991,-3.6005,-3.5999,-3.5991,-3.5947,-3.5904,-3.5908,-3.5908,-3.5908,-3.5908,-3.5891,-3.5892,-3.5898,-3.583,-3.5807,-3.5791,-3.5791,-3.5801,-3.5775,-3.5728,-3.5679,-3.5687,-4.031,-4.0291,-4.029,-4.0291,-4.0291,-4.029,-4.0291,-4.031,-4.031,-4.031,-4.031,-4.031,-4.031,-4.031,-4.0291,-4.0253,-4.0253,-4.0253,-4.0253,-4.0272,-4.0307,-4.037,-4.0422,-4.0515,-4.0648,-4.0648,-4.072,-4.0815,-4.0888,-4.0945,-4.1002,-4.0954,-4.0943,-4.0996,-4.0943,-4.0943,-4.0996,-4.0963,-4.0954,-4.0991,-4.0935,-4.0926,-4.0917,-4.0926,-4.0954,-4.0982,-4.0945,-4.0807,-4.0684,-4.0696,-4.0112,-3.9369,-3.9176,-3.8195,-3.6956,-3.6138,-3.5898,-3.5864,-3.5807,-3.5799,-3.5791,-3.581,-3.5793,-3.5794,-3.5785,-3.5737,-3.5698,-3.5708,-3.5697,-3.5706,-3.5707,-3.5707,-3.5707,-3.5718,-3.5779,-3.582,-3.582,-3.5875,-3.575,-3.5321,-3.5324,-3.5332,-3.5291,-3.5322,-3.495,-3.3999,-3.391,-3.3929,-3.3925,-3.332,-3.3904,-3.5934,-3.601,-3.6007,-3.6005,-3.5999,-3.6007,-3.5994,-3.5986,-3.5953,-3.5908,-3.5908,-3.5903,-3.5891,-3.5898,-3.5864,-3.5807,-3.581,-3.5765,-3.5727,-3.5784,-3.5775,-3.5728,-3.5637,-3.5593,-3.5538,-4.031,-4.031,-4.0291,-4.031,-4.029,-4.0308,-4.0291,-4.031,-4.0309,-4.0309,-4.0291,-4.0291,-4.0291,-4.0291,-4.031,-4.031,-4.031,-4.031,-4.031,-4.031,-4.0328,-4.0342,-4.0342,-4.0392,-4.05,-4.0515,-4.0588,-4.08,-4.0846,-4.0898,-4.0945,-4.0917,-4.0926,-4.0943,-4.0917,-4.0926,-4.0943,-4.0917,-4.0917,-4.0945,-4.0917,-4.0907,-4.0907,-4.0907,-4.0917,-4.0945,-4.0917,-4.0926,-4.0963,-4.0982,-4.068,-4.0229,-3.9831,-3.9052,-3.8052,-3.6846,-3.619,-3.5838,-3.5815,-3.5799,-3.5799,-3.5799,-3.5801,-3.5794,-3.5766,-3.5728,-3.5708,-3.5708,-3.5707,-3.5687,-3.5707,-3.5706,-3.5704,-3.5704,-3.5418,-3.5324,-3.5693,-3.5503,-3.5456,-3.5846,-3.5935,-3.5935,-3.5908,-3.5956,-3.5585,-3.4605,-3.4527,-3.4527,-3.453,-3.453,-3.4975,-3.5971,-3.6009,-3.6007,-3.6005,-3.5996,-3.6004,-3.6005,-3.5962,-3.5948,-3.5908,-3.5908,-3.5903,-3.5905,-3.5911,-3.5864,-3.5807,-3.5793,-3.5775,-3.5747,-3.5747,-3.5737,-3.5699,-3.5585,-3.5538,-3.547,-4.031,-4.031,-4.031,-4.031,-4.0309,-4.029,-4.0291,-4.0309,-4.0289,-4.0289,-4.0291,-4.031,-4.0308,-4.0291,-4.031,-4.031,-4.031,-4.031,-4.031,-4.031,-4.031,-4.031,-4.031,-4.0327,-4.0392,-4.0389,-4.0515,-4.0732,-4.0764,-4.0804,-4.0878,-4.0869,-4.0898,-4.0917,-4.0907,-4.0907,-4.0907,-4.0907,-4.0878,-4.0888,-4.0888,-4.0888,-4.0888,-4.0888,-4.0888,-4.0888,-4.0888,-4.0888,-4.0888,-4.0927,-4.0956,-4.0837,-4.0093,-3.977,-3.9369,-3.7812,-3.6693,-3.5943,-3.5807,-3.5771,-3.5745,-3.5745,-3.5747,-3.5728,-3.5699,-3.5669,-3.5689,-3.5698,-3.5688,-3.5707,-3.5707,-3.5687,-3.5646,-3.5521,-3.502,-3.4875,-3.5427,-3.5076,-3.5048,-3.5788,-3.5889,-3.5875,-3.5875,-3.5949,-3.5979,-3.5971,-3.5989,-3.5994,-3.5991,-3.6007,-3.6007,-3.601,-3.6009,-3.6007,-3.6003,-3.5996,-3.6007,-3.6005,-3.5938,-3.5909,-3.5894,-3.5894,-3.5903,-3.5905,-3.5905,-3.5838,-3.576,-3.5793,-3.5785,-3.5737,-3.5689,-3.5659,-3.5609,-3.5495,-3.5457,-3.5418,-4.031,-4.031,-4.031,-4.031,-4.0291,-4.0291,-4.031,-4.0291,-4.0291,-4.0291,-4.031,-4.031,-4.0291,-4.031,-4.031,-4.031,-4.031,-4.031,-4.031,-4.031,-4.031,-4.031,-4.031,-4.0291,-4.0328,-4.0358,-4.0422,-4.0469,-4.0593,-4.0681,-4.0818,-4.0815,-4.0877,-4.0982,-4.0936,-4.0907,-4.0907,-4.0907,-4.0868,-4.0823,-4.0823,-4.0823,-4.0823,-4.0823,-4.0823,-4.0823,-4.0823,-4.0823,-4.0812,-4.07,-4.075,-4.0798,-4.061,-4.0087,-3.9342,-3.8346,-3.7424,-3.658,-3.5892,-3.5639,-3.5543,-3.5543,-3.5562,-3.5562,-3.5588,-3.5626,-3.5626,-3.5689,-3.5698,-3.5707,-3.5707,-3.5646,-3.5392,-3.4719,-3.5065,-3.5259,-3.4759,-3.5175,-3.5581,-3.5717,-3.5776,-3.582,-3.582,-3.5875,-3.5926,-3.5923,-3.5964,-3.5992,-3.5991,-3.6007,-3.6005,-3.6005,-3.5999,-3.5996,-3.5994,-3.6001,-3.5996,-3.5997,-3.5997,-3.5947,-3.5904,-3.5904,-3.5908,-3.5905,-3.5905,-3.5799,-3.5639,-3.5737,-3.5676,-3.5463,-3.5589,-3.5507,-3.5353,-3.5281,-3.5254,-3.5223,-4.0138,-4.0234,-4.031,-4.031,-4.031,-4.0291,-4.031,-4.031,-4.0309,-4.0309,-4.031,-4.0291,-4.0309,-4.031,-4.031,-4.031,-4.031,-4.031,-4.031,-4.031,-4.0272,-4.0253,-4.0272,-4.031,-4.031,-4.0327,-4.036,-4.0406,-4.0469,-4.0559,-4.0694,-4.0688,-4.0732,-4.0773,-4.0742,-4.073,-4.073,-4.073,-4.0725,-4.0688,-4.0688,-4.0688,-4.0688,-4.0688,-4.0688,-4.0688,-4.0688,-4.0688,-4.0675,-4.0635,-4.0642,-4.0681,-4.0649,-4.0378,-3.983,-3.8501,-3.7215,-3.6162,-3.5764,-3.5604,-3.5558,-3.5507,-3.5502,-3.5502,-3.5546,-3.5562,-3.5615,-3.5639,-3.5679,-3.5708,-3.5708,-3.5678,-3.5521,-3.5155,-3.5058,-3.5039,-3.5137,-3.5078,-3.5224,-3.565,-3.5736,-3.5743,-3.5743,-3.5801,-3.585,-3.5904,-3.5903,-3.5916,-3.5946,-3.5942,-3.5935,-3.5899,-3.5962,-3.5991,-3.5991,-3.5965,-3.5955,-3.5953,-3.5903,-3.5859,-3.5794,-3.5753,-3.5741,-3.5736,-3.5708,-3.563,-3.5543,-3.5574,-3.5502,-3.5402,-3.543,-3.5378,-3.5283,-3.5168,-3.5174,-3.5157,-3.9998,-4.0118,-4.0253,-4.0291,-4.0291,-4.029,-4.0291,-4.0291,-4.0271,-4.0308,-4.0291,-4.0291,-4.0308,-4.031,-4.031,-4.031,-4.031,-4.0291,-4.0291,-4.0291,-4.0272,-4.0196,-4.0234,-4.0253,-4.0253,-4.0253,-4.0291,-4.0321,-4.0358,-4.0406,-4.0526,-4.0545,-4.0559,-4.0588,-4.0588,-4.0588,-4.0588,-4.0588,-4.0574,-4.0545,-4.0545,-4.0545,-4.0545,-4.0545,-4.0545,-4.0545,-4.0545,-4.0545,-4.0545,-4.0534,-4.0549,-4.0559,-4.054,-4.0554,-4.0207,-3.8472,-3.6851,-3.5593,-3.5558,-3.5534,-3.5496,-3.5464,-3.5438,-3.543,-3.5443,-3.5489,-3.5531,-3.5543,-3.5588,-3.5639,-3.5679,-3.5658,-3.559,-3.5446,-3.5049,-3.4914,-3.5369,-3.504,-3.502,-3.5641,-3.5689,-3.5679,-3.5679,-3.5726,-3.5784,-3.5852,-3.5827,-3.5827,-3.5875,-3.5875,-3.5858,-3.5801,-3.5909,-3.5955,-3.5955,-3.5909,-3.5864,-3.5846,-3.5803,-3.5735,-3.5688,-3.5631,-3.559,-3.5577,-3.5516,-3.5488,-3.5477,-3.5432,-3.5378,-3.534,-3.5296,-3.5247,-3.5193,-3.5086,-3.5072,-3.5072,-3.9973,-3.9996,-4.0077,-4.0253,-4.031,-4.031,-4.031,-4.0253,-4.0215,-4.0291,-4.0253,-4.0215,-4.0291,-4.031,-4.031,-4.031,-4.031,-4.0272,-4.0215,-4.0253,-4.0272,-4.0196,-4.0157,-4.0117,-4.0117,-4.0117,-4.0117,-4.0118,-4.0177,-4.0233,-4.0334,-4.0386,-4.0485,-4.0588,-4.0588,-4.0588,-4.0588,-4.0588,-4.053,-4.0422,-4.0422,-4.0422,-4.0422,-4.0422,-4.0422,-4.0422,-4.0422,-4.0422,-4.0425,-4.0345,-4.0396,-4.0489,-4.0358,-4.036,-4.0087,-3.8399,-3.6673,-3.534,-3.5391,-3.5326,-3.5242,-3.5308,-3.5258,-3.5239,-3.53,-3.533,-3.534,-3.5405,-3.5418,-3.5445,-3.5581,-3.5507,-3.523,-3.4671,-3.5098,-3.5291,-3.4689,-3.5175,-3.563,-3.5688,-3.5646,-3.5612,-3.5612,-3.5609,-3.5631,-3.5718,-3.5768,-3.5806,-3.5807,-3.5807,-3.582,-3.5799,-3.5801,-3.5814,-3.5814,-3.5813,-3.5772,-3.571,-3.5715,-3.566,-3.5611,-3.5591,-3.556,-3.5504,-3.5504,-3.5451,-3.5407,-3.5477,-3.5355,-3.5145,-3.5187,-3.5102,-3.4926,-3.4908,-3.4831,-3.4749,-3.9496,-3.9693,-3.9892,-3.9975,-4.0077,-4.0195,-4.0195,-4.0176,-4.0196,-4.0215,-4.0253,-4.0272,-4.031,-4.031,-4.031,-4.031,-4.031,-4.0291,-4.0253,-4.0215,-4.0176,-4.0196,-4.0176,-4.0157,-4.0157,-4.0137,-4.0117,-4.0157,-4.0157,-4.0157,-4.0177,-4.0252,-4.0289,-4.0288,-4.0323,-4.036,-4.036,-4.036,-4.0362,-4.0326,-4.0326,-4.0326,-4.0326,-4.0326,-4.0326,-4.0326,-4.0326,-4.0326,-4.0326,-4.031,-4.0328,-4.0363,-4.0309,-4.0328,-4.0002,-3.828,-3.6544,-3.5193,-3.527,-3.5273,-3.5261,-3.5248,-3.5212,-3.5209,-3.5229,-3.5289,-3.5364,-3.534,-3.5364,-3.5405,-3.5418,-3.5425,-3.5391,-3.5171,-3.5424,-3.5542,-3.5223,-3.5444,-3.5635,-3.5631,-3.5628,-3.5596,-3.5596,-3.5593,-3.5629,-3.5679,-3.5728,-3.5727,-3.5741,-3.5688,-3.5698,-3.5735,-3.5699,-3.5698,-3.5745,-3.5696,-3.566,-3.565,-3.5604,-3.5534,-3.5477,-3.5424,-3.5397,-3.5369,-3.5321,-3.5296,-3.5273,-3.5254,-3.5174,-3.5092,-3.5054,-3.4963,-3.4908,-3.4908,-3.4811,-3.4708,-3.9183,-3.9427,-3.9623,-3.9693,-3.987,-4.0015,-4.0015,-4.0098,-4.0176,-4.0196,-4.0234,-4.0253,-4.0291,-4.0272,-4.0291,-4.031,-4.031,-4.031,-4.031,-4.0176,-4.0118,-4.0098,-4.0098,-4.0098,-4.0098,-4.0057,-4.0077,-4.0157,-4.0077,-4.0077,-4.0137,-4.0157,-4.0157,-4.0137,-4.0157,-4.0176,-4.0176,-4.0176,-4.0215,-4.0272,-4.0272,-4.0272,-4.031,-4.031,-4.031,-4.031,-4.031,-4.031,-4.031,-4.031,-4.031,-4.031,-4.031,-3.9928,-3.926,-3.8056,-3.6493,-3.5145,-3.5196,-3.5229,-3.5248,-3.5198,-3.5179,-3.516,-3.5147,-3.5212,-3.5273,-3.5223,-3.5235,-3.5243,-3.5273,-3.5331,-3.5418,-3.5457,-3.5538,-3.5604,-3.5596,-3.5593,-3.5589,-3.5608,-3.5604,-3.5591,-3.556,-3.5565,-3.557,-3.5596,-3.5643,-3.5665,-3.5659,-3.5604,-3.5581,-3.5648,-3.5596,-3.5577,-3.5611,-3.5579,-3.5554,-3.5526,-3.5463,-3.5398,-3.5335,-3.5293,-3.5277,-3.5261,-3.5226,-3.5193,-3.5196,-3.5145,-3.5057,-3.4927,-3.4851,-3.4753,-3.4672,-3.4672,-3.4586,-3.4473,-3.9156,-3.9183,-3.9245,-3.9477,-3.967,-3.9804,-3.9804,-3.9954,-4.0137,-4.0196,-4.0137,-4.0157,-4.0291,-4.0253,-4.0234,-4.0291,-4.031,-4.031,-4.031,-4.0234,-4.0098,-3.9911,-3.9889,-3.9889,-3.9889,-3.9889,-3.9933,-3.9996,-3.9996,-4.0077,-4.0196,-4.0137,-4.0137,-4.0196,-4.0137,-4.0117,-4.0117,-4.0117,-4.0137,-4.0196,-4.0196,-4.0234,-4.031,-4.031,-4.031,-4.031,-4.031,-4.031,-4.031,-4.031,-4.031,-4.031,-4.0291,-3.9107,-3.7693,-3.7693,-3.6509,-3.5193,-3.5198,-3.52,-3.5181,-3.5124,-3.5108,-3.5075,-3.502,-3.5001,-3.5001,-3.5001,-3.4945,-3.4963,-3.5168,-3.5187,-3.5239,-3.5364,-3.5391,-3.5432,-3.5589,-3.5538,-3.5519,-3.5596,-3.5589,-3.556,-3.5515,-3.5502,-3.5476,-3.5412,-3.5522,-3.5591,-3.5591,-3.5528,-3.5502,-3.5502,-3.5501,-3.546,-3.5398,-3.5463,-3.5463,-3.5398,-3.533,-3.527,-3.5209,-3.5209,-3.5209,-3.5209,-3.5209,-3.5196,-3.52,-3.52,-3.4945,-3.4612,-3.4612,-3.4439,-3.4197,-3.4197,-3.4074,-3.3921,-3.884,-3.895,-3.9073,-3.9137,-3.9324,-3.9502,-3.9623,-3.9781,-3.9954,-4.0117,-4.0176,-4.0253,-4.0291,-4.0272,-4.0291,-4.031,-4.0253,-4.0196,-4.0098,-4.0077,-3.9996,-3.9911,-3.9954,-3.9975,-3.9975,-3.9933,-3.9933,-3.9996,-3.9954,-3.9954,-3.9975,-4.0057,-4.0057,-3.9975,-4.0057,-4.0077,-4.0036,-4.0036,-4.0077,-4.0137,-4.0137,-4.0137,-4.0157,-4.0157,-4.0157,-4.0157,-4.0157,-4.0157,-4.0157,-4.0196,-4.0196,-4.0061,-3.9509,-3.8573,-3.7597,-3.7024,-3.6071,-3.5198,-3.5147,-3.5111,-3.5038,-3.5019,-3.511,-3.5129,-3.4983,-3.5001,-3.502,-3.4889,-3.4851,-3.4851,-3.4908,-3.5001,-3.5072,-3.5105,-3.5168,-3.5212,-3.5232,-3.5232,-3.5247,-3.5311,-3.5364,-3.5398,-3.5422,-3.5476,-3.5502,-3.5476,-3.5449,-3.5455,-3.5455,-3.5315,-3.5219,-3.5219,-3.5171,-3.5138,-3.5119,-3.5379,-3.5427,-3.5324,-3.53,-3.5254,-3.5198,-3.5193,-3.5176,-3.5108,-3.5019,-3.4945,-3.4831,-3.4653,-3.4467,-3.4311,-3.4325,-3.4274,-3.4197,-3.4197,-3.4074,-3.3895,-3.8792,-3.8833,-3.8921,-3.8989,-3.9082,-3.9219,-3.935,-3.9551,-3.9717,-3.9848,-3.9954,-4.0036,-4.0057,-4.0036,-4.0036,-4.0057,-4.0098,-4.0077,-3.9975,-3.9996,-4.0015,-3.9933,-3.9954,-3.9954,-3.9954,-3.9911,-3.9933,-3.9996,-3.9933,-3.9933,-3.9994,-4.0015,-4.0015,-3.9994,-4.0015,-3.9996,-3.9996,-3.9975,-3.9996,-4.0057,-4.0057,-4.0077,-4.0117,-4.0117,-4.0117,-4.0117,-4.0117,-4.0117,-4.0117,-4.0157,-4.0137,-3.9945,-3.9109,-3.8308,-3.7506,-3.6667,-3.5829,-3.5147,-3.5075,-3.502,-3.5001,-3.4965,-3.502,-3.5039,-3.4908,-3.4927,-3.4983,-3.485,-3.4811,-3.481,-3.4829,-3.4888,-3.4908,-3.4908,-3.4945,-3.4999,-3.5035,-3.5072,-3.5089,-3.5193,-3.5209,-3.5242,-3.5289,-3.533,-3.534,-3.534,-3.53,-3.527,-3.5235,-3.5102,-3.5034,-3.5034,-3.4981,-3.4963,-3.4963,-3.5141,-3.5174,-3.5089,-3.5088,-3.4999,-3.4927,-3.4908,-3.4889,-3.4831,-3.4733,-3.4632,-3.4486,-3.4334,-3.4171,-3.4043,-3.403,-3.3972,-3.3868,-3.3868,-3.3807,-3.3698,-3.895,-3.8822,-3.875,-3.8931,-3.896,-3.8989,-3.8989,-3.9272,-3.9477,-3.9502,-3.9575,-3.9623,-3.9693,-3.9647,-3.9623,-3.9693,-3.987,-3.9954,-3.987,-3.9996,-4.0036,-3.9954,-3.9933,-3.9911,-3.9889,-3.9889,-3.9933,-3.9996,-3.9933,-3.9954,-4.0077,-3.9954,-3.9954,-4.0096,-3.9973,-3.9954,-3.9996,-3.9933,-3.9933,-3.9996,-3.9996,-4.0036,-4.0077,-4.0077,-4.0077,-4.0077,-4.0077,-4.0077,-4.0077,-4.0077,-4.0039,-3.9831,-3.8956,-3.8137,-3.7319,-3.6463,-3.5663,-3.5075,-3.502,-3.5001,-3.4983,-3.4926,-3.4907,-3.487,-3.4809,-3.4827,-3.4868,-3.4868,-3.4809,-3.4768,-3.4868,-3.4809,-3.4788,-3.4788,-3.4788,-3.481,-3.4946,-3.4964,-3.5001,-3.5141,-3.5105,-3.5088,-3.5088,-3.5088,-3.5088,-3.5088,-3.507,-3.5034,-3.4962,-3.4888,-3.4851,-3.4851,-3.4851,-3.487,-3.487,-3.4773,-3.4753,-3.4793,-3.4714,-3.4632,-3.4508,-3.4508,-3.4464,-3.4379,-3.4357,-3.4288,-3.4152,-3.4147,-3.3968,-3.3753,-3.3707,-3.3559,-3.3364,-3.3334,-3.3334,-3.3334,-3.875,-3.8719,-3.8689,-3.875,-3.878,-3.8822,-3.896,-3.9137,-3.9324,-3.9477,-3.958,-3.9693,-3.9693,-3.9693,-3.9693,-3.9693,-3.9693,-3.9647,-3.9599,-3.9762,-3.9781,-3.9623,-3.9911,-3.9954,-3.9739,-3.9867,-3.9911,-3.9911,-3.9911,-3.9911,-3.9933,-3.9954,-3.9954,-3.9951,-4.0015,-4.0036,-3.9996,-3.9975,-3.9975,-3.9996,-3.9933,-3.9933,-3.9933,-3.9933,-3.9933,-3.9933,-3.9933,-3.9933,-3.9933,-3.9933,-3.9559,-3.8937,-3.8061,-3.7224,-3.6425,-3.5606,-3.5245,-3.5075,-3.502,-3.5001,-3.4983,-3.4926,-3.4907,-3.4868,-3.4747,-3.4645,-3.4602,-3.4645,-3.4517,-3.4473,-3.4645,-3.4645,-3.4645,-3.4645,-3.4645,-3.4666,-3.4668,-3.4708,-3.473,-3.487,-3.487,-3.4908,-3.5001,-3.4982,-3.4945,-3.4945,-3.4812,-3.4695,-3.4675,-3.4569,-3.4502,-3.4502,-3.452,-3.4498,-3.4498,-3.4409,-3.4458,-3.4714,-3.4653,-3.4569,-3.4498,-3.4505,-3.442,-3.4298,-3.4154,-3.3979,-3.377,-3.3587,-3.3386,-3.3238,-3.3147,-3.3055,-3.2979,-3.2834,-3.277,-3.2737,-3.8683,-3.8621,-3.8578,-3.8683,-3.8621,-3.859,-3.8755,-3.8892,-3.9007,-3.9137,-3.9253,-3.9331,-3.9324,-3.9324,-3.9324,-3.935,-3.9452,-3.9477,-3.9427,-3.9599,-3.9647,-3.9526,-3.9693,-3.9717,-3.9575,-3.9758,-3.9867,-3.9889,-3.9889,-3.9889,-3.9889,-3.9933,-3.9954,-3.9954,-3.9994,-3.9996,-3.9996,-3.9954,-3.9954,-3.9954,-3.9911,-3.9889,-3.9889,-3.9889,-3.9889,-3.9889,-3.9889,-3.9889,-3.9889,-3.9889,-3.9302,-3.845,-3.7633,-3.672,-3.5809,-3.4997,-3.4771,-3.4771,-3.4849,-3.4869,-3.4849,-3.4887,-3.4868,-3.4829,-3.4768,-3.4623,-3.4517,-3.4539,-3.4381,-3.4245,-3.434,-3.4409,-3.4473,-3.4473,-3.4517,-3.4561,-3.4602,-3.4561,-3.4604,-3.4751,-3.4711,-3.4711,-3.4771,-3.4792,-3.4753,-3.467,-3.4612,-3.4569,-3.4524,-3.4409,-3.434,-3.434,-3.4316,-3.4316,-3.434,-3.4197,-3.4203,-3.4416,-3.4325,-3.4232,-3.4173,-3.416,-3.4062,-3.3921,-3.3807,-3.3643,-3.3415,-3.3256,-3.3104,-3.2912,-3.2816,-3.2719,-3.2621,-3.2504,-3.247,-3.2437,-3.8628,-3.8523,-3.8428,-3.8628,-3.8523,-3.8415,-3.851,-3.8609,-3.8719,-3.8792,-3.8844,-3.8902,-3.8892,-3.891,-3.8921,-3.8997,-3.9183,-3.9272,-3.9245,-3.9427,-3.9502,-3.9401,-3.9458,-3.9452,-3.935,-3.9575,-3.9758,-3.9867,-3.9911,-3.9911,-3.9911,-3.9911,-3.9933,-3.9975,-3.9933,-3.9954,-3.9996,-3.9933,-3.9911,-3.9933,-3.9911,-3.9911,-3.9911,-3.9911,-3.9889,-3.9889,-3.9889,-3.9889,-3.9848,-3.9697,-3.8961,-3.7976,-3.7167,-3.6231,-3.5268,-3.4591,-3.4386,-3.445,-3.4583,-3.4645,-3.4666,-3.4768,-3.4747,-3.4666,-3.4666,-3.4539,-3.4409,-3.4473,-3.4221,-3.4049,-3.4074,-3.4173,-3.4245,-3.4245,-3.4363,-3.4473,-3.4517,-3.4517,-3.4539,-3.4666,-3.4623,-3.4539,-3.4473,-3.4545,-3.4545,-3.4386,-3.448,-3.4483,-3.4363,-3.4293,-3.4269,-3.4269,-3.4221,-3.4221,-3.4269,-3.4099,-3.4023,-3.4074,-3.3947,-3.3842,-3.3807,-3.3807,-3.3671,-3.3538,-3.3481,-3.3316,-3.3086,-3.3086,-3.2912,-3.2752,-3.2654,-3.247,-3.2248,-3.2179,-3.2197,-3.2179,-3.8446,-3.8415,-3.8415,-3.8446,-3.8415,-3.8415,-3.851,-3.8609,-3.8719,-3.8792,-3.8862,-3.8892,-3.891,-3.891,-3.8892,-3.8892,-3.895,-3.895,-3.895,-3.9129,-3.9183,-3.9007,-3.9324,-3.9401,-3.9156,-3.9298,-3.9502,-3.9717,-3.9892,-3.9975,-3.9975,-3.9933,-3.9911,-3.9911,-3.9954,-3.9996,-3.9996,-3.9996,-4.0036,-4.0057,-3.9951,-3.9933,-3.9975,-3.9911,-3.9889,-3.9889,-3.9889,-3.9781,-3.9534,-3.8841,-3.7892,-3.69,-3.6058,-3.5254,-3.4535,-3.4423,-3.4386,-3.4404,-3.4431,-3.4404,-3.4363,-3.4381,-3.4293,-3.4197,-3.4197,-3.4124,-3.4124,-3.4293,-3.4023,-3.3807,-3.3972,-3.4023,-3.4049,-3.4049,-3.4197,-3.4316,-3.4269,-3.4404,-3.4517,-3.4583,-3.4539,-3.4473,-3.434,-3.4293,-3.4269,-3.4221,-3.4227,-3.4245,-3.4221,-3.4173,-3.4148,-3.4221,-3.4148,-3.4148,-3.4221,-3.4074,-3.3998,-3.4023,-3.3868,-3.3807,-3.3807,-3.3753,-3.3671,-3.3577,-3.3393,-3.3244,-3.3086,-3.2961,-3.2916,-3.2834,-3.2422,-3.2249,-3.2161,-3.1746,-3.1614,-3.1576,-3.8289,-3.8289,-3.8289,-3.8289,-3.8289,-3.8322,-3.8401,-3.8465,-3.8559,-3.8628,-3.8725,-3.878,-3.878,-3.8822,-3.8833,-3.8833,-3.8881,-3.8862,-3.8851,-3.895,-3.8979,-3.8851,-3.9045,-3.9101,-3.895,-3.9101,-3.92,-3.9268,-3.9371,-3.9445,-3.9445,-3.9396,-3.9508,-3.967,-3.9693,-3.9804,-3.9933,-3.9933,-3.9954,-3.9975,-3.9911,-3.9911,-3.9933,-3.9911,-3.9889,-3.9889,-3.9889,-3.9826,-3.9702,-3.9232,-3.8094,-3.6758,-3.6298,-3.5212,-3.4074,-3.4074,-3.4074,-3.4099,-3.4197,-3.4173,-3.4173,-3.4269,-3.4197,-3.4099,-3.4099,-3.3947,-3.386,-3.3947,-3.3726,-3.3549,-3.3643,-3.3753,-3.3815,-3.3815,-3.3972,-3.4074,-3.4049,-3.4173,-3.4316,-3.4473,-3.4473,-3.4404,-3.4316,-3.4173,-3.4124,-3.4197,-3.3998,-3.3972,-3.4197,-3.4074,-3.4049,-3.4148,-3.4124,-3.4124,-3.4148,-3.4049,-3.3998,-3.3998,-3.3895,-3.3834,-3.3753,-3.3726,-3.3605,-3.3422,-3.3352,-3.3183,-3.2961,-3.2916,-3.282,-3.2623,-3.2249,-3.1912,-3.1634,-3.1445,-3.1406,-3.1368]},{"header":{"parameterUnit":"m.s-1","parameterCategory":1,"la1":30.6,"la2":28.766,"lo1":-90.7593,"lo2":-88.6598,"dy":0.0162,"dx":0.0183,"nx":116,"ny":114,"refTime":"2023-05-25T18:00:00:Z","depth":0,"parameterNumber":3,"parameterNumberName":"V-component_of_WINDS"},"data":[0.0,0.0,0.0,0.0,0.0,0.0,0.0,0.0,0.0,0.0,0.0,0.0,0.0,0.0,0.0,0.0,0.0,0.0,0.0,0.0,0.0,0.0,0.0,0.0,0.0,0.0,0.0,0.0,0.0,0.0,0.0,0.0,0.0,0.0,0.0,0.0,0.0,0.0,0.0,0.0,0.0,0.0,0.0,0.0,0.0,0.0,0.0,0.0,0.0,0.0,0.0,0.0,0.0,0.0,0.0,0.0,0.0,0.0,0.0,0.0,0.0,0.0,0.0,0.0,0.0,0.0,0.0,0.0,0.0,0.0,0.0,0.0,0.0,0.0,0.0,0.0,0.0,0.0,0.0,0.0,0.0,0.0,0.0,0.0,0.0,0.0,0.0,0.0,0.0,0.0,0.0,0.0,0.0,0.0,0.0,0.0,0.0,0.0,0.0,0.0,0.0,0.0,0.0,0.0,0.0,0.0,0.0,0.0,0.0,0.0,0.0,0.0,0.0,0.0,0.0,0.0,0.0,0.0,0.0,0.0,0.0,0.0,0.0,0.0,0.0,0.0,0.0,0.0,0.0,0.0,0.0,0.0,0.0,0.0,0.0,0.0,0.0,0.0,0.0,0.0,0.0,0.0,0.0,0.0,0.0,0.0,0.0,0.0,0.0,0.0,0.0,0.0,0.0,0.0,0.0,0.0,0.0,0.0,0.0,0.0,0.0,0.0,0.0,0.0,0.0,0.0,0.0,0.0,0.0,0.0,0.0,0.0,0.0,0.0,0.0,0.0,0.0,0.0,0.0,0.0,0.0,0.0,0.0,0.0,0.0,0.0,0.0,0.0,0.0,0.0,0.0,0.0,0.0,0.0,0.0,0.0,0.0,0.0,0.0,0.0,0.0,0.0,0.0,0.0,0.0,0.0,0.0,0.0,0.0,0.0,0.0,0.0,0.0,0.0,0.0,0.0,0.0,0.0,0.0,0.0,0.0,0.0,0.0,0.0,0.0,0.0,0.0,0.0,0.0,0.0,0.0,0.0,0.0,0.0,0.0,0.0,0.0,0.0,0.0,0.0,0.0,0.0,0.0,0.0,0.0,0.0,0.0,0.0,0.0,0.0,0.0,0.0,0.0,0.0,0.0,0.0,0.0,0.0,0.0,0.0,0.0,0.0,0.0,0.0,0.0,0.0,0.0,0.0,0.0,0.0,0.0,0.0,0.0,0.0,0.0,0.0,0.0,0.0,0.0,0.0,0.0,0.0,0.0,0.0,0.0,0.0,0.0,0.0,0.0,0.0,0.0,0.0,0.0,0.0,0.0,0.0,0.0,0.0,0.0,0.0,0.0,0.0,0.0,0.0,0.0,0.0,0.0,0.0,0.0,0.0,0.0,0.0,0.0,0.0,0.0,0.0,0.0,0.0,0.0,0.0,0.0,0.0,0.0,0.0,0.0,0.0,0.0,0.0,0.0,0.0,0.0,0.0,0.0,0.0,0.0,0.0,0.0,0.0,0.0,0.0,0.0,0.0,0.0,0.0,0.0,0.0,0.0,0.0,0.0,0.0,0.0,0.0,0.0,0.0,0.0,0.0,0.0,0.0,0.0,0.0,0.0,0.0,0.0,0.0,0.0,0.0,0.0,0.0,0.0,0.0,0.0,0.0,0.0,0.0,0.0,0.0,0.0,0.0,0.0,0.0,0.0,0.0,0.0,0.0,0.0,0.0,0.0,0.0,0.0,0.0,0.0,0.0,0.0,0.0,0.0,0.0,0.0,0.0,0.0,0.0,0.0,0.0,0.0,0.0,0.0,0.0,0.0,0.0,0.0,0.0,0.0,0.0,0.0,0.0,0.0,0.0,0.0,0.0,0.0,0.0,0.0,0.0,0.0,0.0,0.0,0.0,0.0,0.0,0.0,0.0,0.0,0.0,0.0,0.0,0.0,0.0,0.0,0.0,0.0,0.0,0.0,0.0,0.0,0.0,0.0,0.0,0.0,0.0,0.0,0.0,0.0,0.0,0.0,0.0,0.0,0.0,0.0,0.0,0.0,0.0,0.0,0.0,0.0,0.0,0.0,0.0,0.0,0.0,0.0,0.0,0.0,0.0,0.0,0.0,0.0,0.0,0.0,0.0,0.0,0.0,0.0,0.0,0.0,0.0,0.0,0.0,0.0,0.0,0.0,0.0,0.0,0.0,0.0,0.0,0.0,0.0,0.0,0.0,0.0,0.0,0.0,0.0,0.0,0.0,0.0,0.0,0.0,0.0,0.0,0.0,0.0,0.0,0.0,0.0,0.0,0.0,0.0,0.0,0.0,0.0,0.0,0.0,0.0,0.0,0.0,0.0,0.0,0.0,0.0,0.0,0.0,0.0,0.0,0.0,0.0,0.0,0.0,0.0,0.0,0.0,0.0,0.0,0.0,0.0,0.0,0.0,0.0,0.0,0.0,0.0,0.0,0.0,0.0,0.0,0.0,0.0,0.0,0.0,0.0,0.0,0.0,0.0,0.0,0.0,0.0,0.0,0.0,0.0,0.0,0.0,0.0,0.0,0.0,0.0,0.0,0.0,0.0,0.0,0.0,0.0,0.0,0.0,0.0,0.0,0.0,0.0,0.0,0.0,0.0,0.0,0.0,0.0,0.0,0.0,0.0,0.0,0.0,0.0,0.0,0.0,0.0,0.0,0.0,0.0,0.0,0.0,0.0,0.0,0.0,0.0,0.0,0.0,0.0,0.0,0.0,0.0,0.0,0.0,0.0,0.0,0.0,0.0,0.0,0.0,0.0,0.0,0.0,0.0,0.0,0.0,0.0,0.0,0.0,0.0,0.0,0.0,0.0,0.0,0.0,0.0,0.0,0.0,0.0,0.0,0.0,0.0,0.0,0.0,0.0,0.0,0.0,0.0,0.0,0.0,0.0,0.0,0.0,0.0,0.0,0.0,0.0,0.0,0.0,0.0,0.0,0.0,0.0,0.0,0.0,0.0,0.0,0.0,0.0,0.0,0.0,0.0,0.0,0.0,0.0,0.0,0.0,0.0,0.0,0.0,0.0,0.0,0.0,0.0,0.0,0.0,0.0,0.0,0.0,0.0,0.0,0.0,0.0,0.0,0.0,0.0,0.0,0.0,0.0,0.0,0.0,0.0,0.0,0.0,0.0,0.0,0.0,0.0,0.0,0.0,0.0,0.0,0.0,0.0,0.0,0.0,0.0,0.0,0.0,0.0,0.0,0.0,0.0,0.0,0.0,0.0,0.0,0.0,0.0,0.0,0.0,0.0,0.0,0.0,0.0,0.0,0.0,0.0,0.0,0.0,0.0,0.0,0.0,0.0,0.0,0.0,0.0,0.0,0.0,0.0,0.0,0.0,0.0,0.0,0.0,0.0,0.0,0.0,0.0,0.0,0.0,0.0,0.0,0.0,0.0,0.0,0.0,0.0,0.0,0.0,0.0,0.0,0.0,0.0,0.0,0.0,0.0,0.0,0.0,0.0,0.0,0.0,0.0,0.0,0.0,0.0,0.0,0.0,0.0,0.0,0.0,0.0,0.0,0.0,0.0,0.0,0.0,0.0,0.0,0.0,0.0,0.0,0.0,0.0,0.0,0.0,0.0,0.0,0.0,0.0,0.0,0.0,0.0,0.0,0.0,0.0,0.0,0.0,0.0,0.0,0.0,0.0,0.0,0.0,0.0,0.0,0.0,0.0,0.0,0.0,0.0,0.0,0.0,0.0,0.0,0.0,0.0,0.0,0.0,0.0,0.0,0.0,0.0,0.0,0.0,0.0,0.0,0.0,0.0,0.0,0.0,0.0,0.0,0.0,0.0,0.0,0.0,0.0,0.0,0.0,0.0,0.0,0.0,0.0,0.0,0.0,0.0,0.0,0.0,0.0,0.0,0.0,0.0,0.0,0.0,0.0,0.0,0.0,0.0,0.0,0.0,0.0,0.0,0.0,0.0,0.0,0.0,0.0,0.0,0.0,0.0,0.0,0.0,0.0,0.0,0.0,0.0,0.0,0.0,0.0,0.0,0.0,0.0,0.0,0.0,0.0,0.0,0.0,0.0,0.0,0.0,0.0,0.0,0.0,0.0,0.0,0.0,0.0,0.0,0.0,0.0,0.0,0.0,0.0,0.0,0.0,0.0,0.0,0.0,0.0,0.0,0.0,0.0,0.0,0.0,0.0,0.0,0.0,0.0,0.0,0.0,0.0,0.0,0.0,0.0,0.0,0.0,0.0,0.0,0.0,0.0,0.0,0.0,0.0,0.0,0.0,0.0,0.0,0.0,0.0,0.0,0.0,0.0,0.0,0.0,0.0,0.0,0.0,0.0,0.0,0.0,0.0,0.0,0.0,0.0,0.0,0.0,0.0,0.0,0.0,0.0,0.0,0.0,0.0,0.0,0.0,0.0,0.0,0.0,0.0,0.0,0.0,0.0,0.0,0.0,0.0,0.0,0.0,0.0,0.0,0.0,0.0,0.0,0.0,0.0,0.0,0.0,0.0,0.0,0.0,0.0,0.0,0.0,0.0,0.0,0.0,0.0,0.0,0.0,0.0,0.0,0.0,0.0,0.0,0.0,0.0,0.0,0.0,0.0,0.0,0.0,0.0,0.0,0.0,0.0,0.0,0.0,0.0,0.0,0.0,0.0,0.0,0.0,0.0,0.0,0.0,0.0,0.0,0.0,0.0,0.0,0.0,0.0,0.0,0.0,0.0,0.0,0.0,0.0,0.0,0.0,0.0,0.0,0.0,0.0,0.0,0.0,0.0,0.0,0.0,0.0,0.0,0.0,0.0,0.0,0.0,0.0,0.0,0.0,0.0,0.0,0.0,0.0,0.0,0.0,0.0,0.0,0.0,0.0,0.0,0.0,0.0,0.0,0.0,0.0,0.0,0.0,0.0,0.0,0.0,0.0,0.0,0.0,0.0,0.0,0.0,0.0,0.0,0.0,0.0,0.0,0.0,0.0,0.0,0.0,0.0,0.0,0.0,0.0,0.0,0.0,0.0,0.0,0.0,0.0,0.0,0.0,0.0,0.0,0.0,0.0,0.0,0.0,0.0,0.0,0.0,0.0,0.0,0.0,0.0,0.0,0.0,0.0,0.0,0.0,0.0,0.0,0.0,0.0,0.0,0.0,0.0,0.0,0.0,0.0,0.0,0.0,0.0,0.0,0.0,0.0,0.0,0.0,0.0,0.0,0.0,0.0,0.0,0.0,0.0,0.0,0.0,0.0,0.0,0.0,0.0,0.0,0.0,0.0,0.0,0.0,0.0,0.0,0.0,0.0,0.0,0.0,0.0,0.0,0.0,0.0,0.0,0.0,0.0,0.0,0.0,0.0,0.0,0.0,0.0,0.0,0.0,0.0,0.0,0.0,0.0,0.0,0.0,0.0,0.0,0.0,0.0,0.0,0.0,0.0,0.0,0.0,0.0,0.0,0.0,0.0,0.0,0.0,0.0,0.0,0.0,0.0,0.0,0.0,0.0,0.0,0.0,0.0,0.0,0.0,0.0,0.0,0.0,0.0,0.0,0.0,0.0,0.0,0.0,0.0,0.0,0.0,0.0,0.0,0.0,0.0,0.0,0.0,0.0,0.0,0.0,0.0,0.0,0.0,0.0,0.0,0.0,0.0,0.0,0.0,0.0,0.0,0.0,0.0,0.0,0.0,0.0,0.0,0.0,0.0,0.0,0.0,0.0,0.0,0.0,0.0,0.0,0.0,0.0,0.0,0.0,0.0,0.0,0.0,0.0,0.0,0.0,0.0,0.0,0.0,0.0,0.0,0.0,0.0,0.0,0.0,0.0,0.0,0.0,0.0,0.0,0.0,0.0,0.0,0.0,0.0,0.0,0.0,0.0,0.0,0.0,0.0,0.0,0.0,0.0,0.0,0.0,0.0,0.0,0.0,0.0,0.0,0.0,0.0,0.0,0.0,0.0,0.0,0.0,0.0,0.0,0.0,0.0,0.0,0.0,0.0,0.0,0.0,0.0,0.0,0.0,0.0,0.0,0.0,0.0,0.0,0.0,0.0,0.0,0.0,0.0,0.0,0.0,0.0,0.0,0.0,0.0,0.0,0.0,0.0,0.0,0.0,0.0,0.0,0.0,0.0,0.0,0.0,0.0,0.0,0.0,1.037,0.9086,0.0,0.0,0.0,0.0,0.0,0.0,0.0,0.0,0.0,0.0,0.0,0.0,0.0,0.0,0.0,0.0,0.0,0.0,0.0,0.0,0.0,0.0,0.0,0.0,0.0,0.0,0.0,0.0,0.0,0.0,0.0,0.0,0.0,0.0,0.0,0.0,0.0,0.0,0.0,0.0,0.0,0.0,0.0,0.0,0.0,0.0,0.0,0.0,0.0,0.0,0.0,0.0,0.0,0.0,0.0,0.0,0.0,0.0,0.0,0.0,0.0,0.0,0.0,0.0,0.0,0.0,0.0,0.0,0.0,0.0,0.0,0.0,0.0,0.0,0.0,0.0,0.0,0.0,0.0,0.0,0.0,0.0,0.0,0.0,0.0,0.0,0.0,0.0,0.0,0.0,0.0,0.0,0.0,0.0,0.0,0.0,0.0,0.0,0.0,0.0,0.0,0.0,0.0,0.0,0.0,0.0,0.0,0.0,0.0,0.0,0.0,0.0,0.0,0.0,1.135,1.0608,0.0,0.0,0.0,0.0,0.0,0.0,0.0,0.0,0.0,0.0,0.0,0.0,0.0,0.0,0.0,0.0,0.0,0.0,0.0,0.0,0.0,0.0,0.0,0.0,0.0,0.0,0.0,0.0,0.0,0.0,0.0,0.0,0.0,0.0,0.0,0.0,0.0,0.0,0.0,0.0,0.0,0.0,0.0,0.0,0.0,0.0,0.0,0.0,0.0,0.0,0.0,0.0,0.0,0.0,0.0,0.0,0.0,0.0,0.0,0.0,0.0,0.0,0.0,0.0,0.0,0.0,0.0,0.0,0.0,0.0,0.0,0.0,0.0,0.0,0.0,0.0,0.0,0.0,0.0,0.0,0.0,0.0,0.0,0.0,0.0,0.0,0.0,0.0,0.0,0.0,0.0,0.0,0.0,0.0,0.0,0.0,0.0,0.0,0.0,0.0,0.0,0.0,0.0,0.0,0.0,0.0,0.0,0.0,0.9088,0.9821,1.0551,1.0857,1.2132,1.4083,1.2492,1.2516,1.3374,1.051,0.0,0.0,0.0,0.0,0.0,0.0,0.0,0.0,0.0,0.0,0.0,0.0,0.0,0.0,0.0,0.0,0.0,0.0,0.0,0.0,0.0,0.0,0.0,0.0,0.0,0.0,0.0,0.0,0.0,0.0,0.0,0.0,0.0,0.0,0.0,0.0,0.0,0.0,-1.927,-1.7973,-1.7415,-1.7335,-1.4429,0.0,0.0,0.0,0.0,0.0,0.0,0.0,0.0,0.0,0.0,0.0,0.0,0.0,0.0,0.0,0.0,0.0,0.0,0.0,0.0,0.0,0.0,0.0,0.0,0.0,0.0,0.0,0.0,0.0,0.0,0.0,0.0,0.0,0.0,0.0,0.0,0.0,0.0,0.0,0.0,0.0,0.0,0.0,-0.3367,-0.2316,0.0,0.0,0.0,0.0,0.0,0.0,0.0,0.0,0.0,0.0,0.0,0.0,0.0,0.7822,0.8219,0.9489,1.0236,1.0351,1.2171,1.3057,1.3214,1.4328,1.5107,1.5515,1.5531,0.0,1.368,1.3367,0.0,0.0,0.0,0.0,0.0,0.0,0.0,0.0,0.0,0.0,0.0,0.0,0.0,0.0,0.0,0.0,0.0,0.0,0.0,0.0,0.0,0.0,0.0,0.0,0.0,0.0,0.0,0.0,0.0,0.0,0.0,0.0,0.0,0.0,0.0,0.0,-1.9829,-2.0337,-2.0394,-1.9428,-1.9029,-1.909,-1.7235,-1.6004,-1.528,-1.4515,0.0,0.0,0.0,0.0,0.0,0.0,0.0,0.0,0.0,0.0,0.0,0.0,0.0,0.0,0.0,0.0,0.0,0.0,0.0,0.0,0.0,0.0,0.0,0.0,0.0,0.0,0.0,0.0,0.0,0.0,0.0,0.0,0.0,0.0,0.0,0.0,0.0,0.0,0.0,-0.5955,-0.4792,-0.4117,-0.3196,-0.2043,0.0,0.0,0.0,0.0,0.0,0.0,0.0,0.0,0.0,0.7286,0.87,0.9909,1.0912,1.2105,1.2572,1.2226,1.3557,1.4618,1.5565,1.5759,1.6418,1.7352,1.7032,1.6479,1.5652,1.412,1.3122,1.248,0.0,0.0,0.0,0.0,1.1262,1.1494,0.0,0.0,0.0,0.0,0.0,0.0,0.0,0.0,0.0,0.0,0.0,0.0,0.0,0.0,0.0,-1.8263,0.0,0.0,0.0,0.0,0.0,0.0,0.0,0.0,0.0,0.0,0.0,-2.1183,-2.1594,-2.183,-2.1859,-1.9344,-1.9063,-2.0545,-1.7191,-1.6215,-1.7042,-1.612,-1.5785,0.0,0.0,0.0,0.0,0.0,0.0,0.0,0.0,0.0,0.0,0.0,0.0,0.0,0.0,0.0,0.0,0.0,0.0,0.0,0.0,0.0,0.0,0.0,0.0,0.0,0.0,0.0,0.0,0.0,0.0,0.0,0.0,0.0,0.0,0.0,0.0,0.0,0.0,-0.722,-0.5982,-0.5374,-0.3904,-0.2396,0.0,0.0,0.0,0.0,0.0,0.0,0.4834,0.5632,0.7142,0.9418,1.0864,1.2324,1.3885,1.4649,1.483,1.439,1.512,1.613,1.7308,1.709,1.7687,1.8846,1.8073,1.7905,1.7869,1.5355,1.4615,1.4928,1.3184,1.2597,1.2773,1.3297,1.3452,1.3653,0.0,0.0,0.0,0.0,0.0,0.0,0.0,0.0,0.0,0.0,0.0,0.0,0.0,0.0,-1.9193,-2.0084,-1.9971,-1.9898,0.0,0.0,0.0,0.0,0.0,0.0,0.0,0.0,0.0,-2.3799,-2.3716,-2.408,-2.4717,-1.7229,-1.6899,-2.2098,-1.1475,-1.0585,-1.7122,-1.7547,-1.7102,-1.6109,0.0,0.0,0.0,0.0,0.0,0.0,0.0,0.0,0.0,0.0,0.0,0.0,0.0,0.0,0.0,0.0,0.0,0.0,0.0,0.0,0.0,0.0,0.0,0.0,0.0,0.0,0.0,0.0,0.0,0.0,0.0,0.0,0.0,0.0,0.0,0.0,0.0,0.0,0.0,-0.4711,-0.253,0.0,0.0,0.0,0.0,0.3299,0.2918,0.3724,0.6182,0.7497,0.9648,1.2933,1.4269,1.5638,1.7052,1.7144,1.7154,1.7092,1.7789,1.8137,1.8259,1.9149,1.9562,1.9633,1.9003,1.9162,1.9728,1.8178,1.7014,1.6244,1.6322,1.5828,1.5304,1.6653,1.6865,1.6744,0.0,0.0,0.0,0.0,0.0,0.0,0.0,0.0,0.0,0.0,0.0,0.0,0.0,-1.9587,-1.9999,-2.0344,-2.0217,-2.0181,-2.0302,0.0,0.0,0.0,0.0,0.0,0.0,0.0,-2.333,-2.3731,-2.0233,-1.8648,-1.8713,-1.1835,-0.9751,-1.1715,-1.0535,-1.0435,-1.1322,-1.4495,-1.7071,-1.8914,-1.7868,-1.7624,0.0,0.0,0.0,0.0,0.0,0.0,0.0,0.0,0.0,0.0,0.0,0.0,0.0,0.0,0.0,0.0,0.0,0.0,0.0,0.0,0.0,0.0,0.0,0.0,0.0,0.0,0.0,0.0,0.0,0.0,0.0,0.0,0.0,0.0,0.0,0.0,0.0,-0.4424,-0.2978,0.0,0.1018,0.2183,0.343,0.4937,0.5698,0.6688,0.8115,0.8642,1.0441,1.3917,1.4453,1.5759,1.8065,1.8311,1.8207,1.7701,1.8189,1.8849,1.9624,1.9565,1.9992,2.0772,2.022,1.9992,1.9989,1.9458,1.8792,1.8127,1.7875,1.7601,1.7485,1.8078,1.8287,1.8367,0.0,0.0,0.0,0.0,0.0,0.0,0.0,0.0,0.0,0.0,0.0,-1.7627,-1.9401,-1.9241,-1.9395,-2.0328,-2.0314,-2.0308,-2.0381,0.0,0.0,0.0,0.0,0.0,0.0,-2.2179,-2.2784,-2.4207,-1.8534,-1.5705,-1.5392,-0.6938,-0.405,-0.5958,-0.5575,-0.6175,-0.7565,-0.9499,-1.295,-1.7069,-1.7031,-1.6901,-1.6773,0.0,0.0,0.0,0.0,0.0,0.0,0.0,0.0,0.0,0.0,0.0,0.0,0.0,0.0,0.0,0.0,0.0,0.0,0.0,0.0,0.0,0.0,0.0,0.0,0.0,0.0,0.0,0.0,0.0,0.0,0.0,0.0,0.0,0.0,-0.911,-0.7367,-0.3955,-0.2378,-0.0507,0.2258,0.3407,0.4625,0.6086,0.7596,0.8819,0.9682,1.0716,1.263,1.5667,1.5965,1.7105,1.9371,2.0057,1.9885,1.903,1.942,2.0019,2.0655,2.0392,2.0703,2.1511,2.1091,2.0761,2.0604,2.0421,2.0246,1.9978,1.923,1.9035,1.9214,1.943,1.9488,1.9522,0.0,0.0,0.0,0.0,0.0,0.0,0.0,0.0,0.0,0.0,-1.6242,-1.6406,-1.9883,-1.7977,-1.7467,-2.0036,-2.0346,-2.0404,-2.0418,-1.9663,0.0,0.0,0.0,0.0,-2.3857,-2.0241,-2.0452,-2.4889,-1.862,-1.5489,-1.5072,-0.2608,-0.0033,-0.5474,0.3869,0.2718,-0.601,-0.2803,-0.467,-1.0048,-1.3626,-1.4336,-1.3575,0.0,0.0,0.0,0.0,0.0,0.0,0.0,0.0,0.0,0.0,0.0,0.0,0.0,0.0,0.0,0.0,0.0,0.0,0.0,0.0,0.0,0.0,0.0,0.0,0.0,0.0,0.0,0.0,0.0,0.0,0.0,0.0,0.0,-1.1001,-0.9761,-0.7476,-0.3475,-0.0599,0.2034,0.4731,0.5398,0.5946,0.6595,0.8399,0.9904,1.0808,1.3674,1.62,1.8415,1.9034,2.0008,2.1331,2.2396,2.2396,2.1343,2.1774,2.1869,2.1561,2.171,2.1898,2.1975,2.1644,2.1642,2.1851,2.1321,2.1381,2.1631,2.0511,2.0233,2.0474,2.0814,2.0678,2.0335,0.0,0.0,0.0,0.0,0.0,0.0,0.0,0.0,0.0,0.0,-1.5896,-1.5183,-1.6958,-1.8454,-1.875,-1.7267,-1.9177,-2.0483,-2.0538,0.0,0.0,0.0,0.0,0.0,-1.9312,-1.8206,-1.633,-1.3645,-0.6786,-0.3161,-0.251,0.5952,0.9188,0.7877,0.9799,0.839,0.4533,0.4334,0.2694,-0.038,-0.745,-1.0858,-1.2009,0.0,0.0,0.0,0.0,0.0,0.0,0.0,0.0,0.0,0.0,0.0,0.0,0.0,0.0,0.0,0.0,0.0,0.0,0.0,0.0,0.0,0.0,0.0,0.0,0.0,0.0,0.0,0.0,0.0,0.0,0.0,-1.3653,-1.3255,-1.1002,-0.9718,-0.7976,-0.4956,-0.1258,0.1793,0.3756,0.5732,0.7257,0.8286,0.9969,1.1403,1.252,1.4915,1.7342,1.9863,2.0575,2.1884,2.4002,2.4482,2.4558,2.428,2.4367,2.4532,2.4668,2.4198,2.4189,2.4416,2.3859,2.3651,2.3632,2.3458,2.3393,2.3272,2.1916,2.145,2.1679,2.2008,2.2172,2.2226,0.0,0.0,0.0,0.0,0.0,0.0,0.0,0.0,0.0,0.0,-1.5958,-1.5456,-1.7583,-1.7074,-1.6298,-1.566,-1.7221,-1.8262,-1.8322,0.0,0.0,0.0,0.0,-1.6265,-1.7216,-1.3556,-1.0844,-0.9246,-0.2663,0.1017,0.2067,0.8577,1.2012,1.2733,1.2009,1.1055,0.9879,0.8972,0.7522,0.5399,0.0426,-0.4022,-0.8121,-1.2471,-1.4131,-1.4563,-1.7876,-1.8717,-1.8228,-1.78,0.0,0.0,0.0,0.0,0.0,0.0,0.0,0.0,0.0,0.0,0.0,0.0,0.0,0.0,0.0,0.0,0.0,0.0,0.0,0.0,0.0,0.0,0.0,0.0,-1.5109,-1.4673,-1.3034,-1.0764,-0.8225,-0.5303,-0.1017,0.2594,0.46,0.6671,0.8218,0.8961,1.0634,1.2405,1.4064,1.6687,1.9203,2.1676,2.2271,2.3257,2.4835,2.5345,2.5486,2.5369,2.5588,2.5766,2.5893,2.5489,2.5428,2.5517,2.5181,2.498,2.4804,2.4804,2.481,2.4695,0.0,0.0,0.0,0.0,2.4034,2.4268,0.0,0.0,0.0,0.0,0.0,0.0,0.0,0.0,0.0,0.0,0.0,-1.5676,-1.9015,-1.4356,-1.1813,-1.3899,-1.4325,-1.4513,0.0,0.0,0.0,-1.628,-0.8326,-0.744,-1.5076,-0.7475,-0.4693,-0.7354,-0.2112,0.1163,0.2568,0.7893,1.102,1.2051,1.1793,1.163,1.1492,1.1453,1.0284,0.841,0.8269,0.4103,-0.2775,-0.9322,-1.3065,-1.5121,-1.7568,-1.8856,-1.9245,-1.8377,0.0,0.0,0.0,0.0,0.0,0.0,0.0,0.0,0.0,0.0,0.0,0.0,0.0,0.0,0.0,0.0,0.0,0.0,0.0,0.0,0.0,0.0,0.0,0.0,-1.6424,-1.6253,-1.6102,-1.2564,-0.8841,-0.5686,-0.0747,0.3219,0.539,0.7038,0.8304,0.9056,1.0704,1.2989,1.6037,1.8831,0.0,0.0,0.0,2.466,2.5179,2.5922,2.6233,2.6041,2.6514,2.6728,2.6668,2.6539,2.6516,2.6392,2.6323,2.6119,2.5892,2.5892,2.6065,2.6146,2.5121,2.4731,2.4936,2.5666,2.6072,2.6358,0.0,0.0,0.0,0.0,0.0,0.0,0.0,0.0,0.0,-1.7221,-1.3356,-1.0716,-1.2336,-1.1093,-0.9354,-0.7383,-0.932,-1.0783,0.0,0.0,-1.1458,-1.1686,-1.0444,-0.8072,-0.4509,-0.3046,0.0,0.4734,0.6199,0.7622,0.9072,1.0394,1.1397,1.2026,1.1859,1.1737,1.1539,1.1204,1.077,1.0289,1.0303,0.7404,0.2425,-0.3452,-0.7175,-0.996,-1.5444,-1.7952,-1.8665,-1.8462,-1.7955,-1.7394,-1.7236,0.0,0.0,0.0,0.0,0.0,0.0,0.0,0.0,0.0,0.0,0.0,0.0,0.0,0.0,0.0,0.0,0.0,0.0,0.0,0.0,-1.7042,-1.7397,-1.761,-1.7562,-1.494,-1.2175,-0.9805,-0.418,-0.0388,0.0,0.2134,0.5294,0.9632,0.9969,1.3201,2.0535,2.1677,2.3576,2.701,2.7605,2.8116,2.865,2.9388,2.9772,2.9867,3.0616,0.0,3.1177,3.0649,3.0307,3.0123,2.9552,2.8967,2.8308,2.8308,2.8658,2.8968,2.6751,2.6317,2.6934,2.716,2.7793,2.8571,0.0,0.0,0.0,0.0,0.0,0.0,0.0,0.0,0.0,0.0,-1.4497,-1.2649,-1.279,-1.1751,-0.9685,-0.6261,-0.6933,0.0,0.0,-0.7069,-0.6935,-0.68,-0.4882,-0.2974,-0.1277,0.0525,0.3487,0.7605,0.7575,0.8435,1.01,1.0203,1.083,1.1802,1.1747,1.1685,1.16,1.1616,1.1507,1.1279,1.1261,0.9828,0.6793,-0.1965,-0.6695,-0.9591,-1.6733,-1.9795,-2.0286,-1.95,-1.8863,-1.8341,-1.8071,-1.733,-1.6677,0.0,0.0,0.0,0.0,0.0,0.0,0.0,0.0,0.0,0.0,0.0,0.0,0.0,0.0,-1.81,0.0,0.0,-1.8654,-1.867,-1.8744,-1.8667,-1.834,-1.6457,-1.4152,-1.1521,-0.6246,-0.2434,-0.1461,0.0891,0.4591,1.0084,1.0206,1.3578,2.1773,2.2397,2.3875,2.6842,2.7446,2.8117,2.8944,2.9393,2.9922,3.0524,3.1174,3.166,3.2038,3.2068,3.206,3.1939,3.1577,3.1291,3.1015,3.0819,3.0983,3.1213,2.9587,2.9386,3.0044,3.0061,3.0453,3.1048,0.0,0.0,0.0,0.0,0.0,0.0,0.0,0.0,0.0,0.0,-1.5203,-1.4644,-1.4473,-1.2472,-0.9944,0.0,0.0,0.0,0.0,-0.3159,-0.2506,-0.2201,0.1515,0.2475,0.0138,0.3341,0.5769,0.7241,0.6856,0.7561,0.9215,0.9208,0.9847,1.1062,1.1124,1.1124,1.1171,1.1606,1.1636,1.1344,1.1283,1.1011,0.9494,-0.1448,-0.6632,-0.9052,-1.6497,-1.9992,-2.0984,-2.0365,-1.9836,-1.934,-1.8567,-1.7951,-1.7357,-1.6797,-1.7005,0.0,0.0,0.0,0.0,0.0,0.0,0.0,0.0,0.0,-1.9895,-2.0437,-2.0015,-1.997,-2.1387,-2.071,-2.0084,-2.0579,-2.0172,-1.9748,-1.962,-1.8203,-1.611,-1.325,-0.8467,-0.4772,-0.3055,-0.058,0.3213,0.8792,0.8679,1.2172,2.1028,2.1333,2.2855,2.6277,2.7209,2.8029,2.8983,2.9327,3.0116,3.1317,3.1546,3.1925,3.2377,3.3297,3.3454,3.3095,3.3059,3.3184,3.3359,3.2882,3.2875,3.309,3.2707,3.2875,3.3281,3.2742,3.2793,3.3138,0.0,0.0,0.0,0.0,0.0,0.0,0.0,0.0,0.0,0.0,0.0,0.0,0.0,0.0,0.0,0.0,0.0,0.0,-0.3477,-0.121,0.0539,0.1465,0.2239,0.3149,0.4217,0.5171,0.6421,0.7818,0.7732,0.8093,0.8832,0.8798,0.8887,0.9126,0.9421,0.9532,0.959,0.9849,0.9895,0.966,0.9845,0.9753,0.8714,0.0968,-0.2272,-0.3384,-0.8814,-1.3325,-1.7105,-1.9807,-2.0256,-1.9426,-1.8106,-1.7724,-1.7595,-1.6909,0.0,-1.644,-1.7475,-1.8251,-1.9106,-2.0665,-2.0448,-2.0703,0.0,0.0,-2.2997,-2.3023,-2.2539,-2.1946,-2.1445,-2.078,-2.0858,-2.2428,-2.1536,-2.1208,-2.2928,-2.1468,-1.9531,-1.7548,-1.2434,-0.8903,-0.8639,-0.6048,-0.2218,0.2946,0.1376,0.585,1.8826,1.7748,2.0288,2.7984,3.019,3.1305,3.1389,3.2434,3.3865,3.5665,3.4788,3.4611,3.5111,3.6557,3.6304,3.4658,3.4387,3.4324,3.4306,3.3661,3.39,3.4709,3.5354,3.5762,3.5704,3.3551,3.3314,3.4067,0.0,0.0,0.0,0.0,0.0,0.0,0.0,0.0,0.0,0.0,0.0,0.0,0.0,0.0,0.0,0.0,0.0,0.0,-0.3441,-0.0091,0.2409,0.3559,0.3868,0.4508,0.5496,0.5773,0.6376,0.73,0.7296,0.7577,0.8055,0.8279,0.8409,0.8493,0.8857,0.9038,0.902,0.9636,0.9528,0.9,0.9099,0.8612,0.7442,0.4157,0.1933,-0.0512,-0.8482,-1.3988,0.0,0.0,-1.8395,-1.7742,-1.9108,-1.9301,-1.8884,-1.8247,-1.8479,0.0,-1.9584,-1.9896,-2.0428,-2.1569,-2.2474,-2.3372,-2.4591,-2.4685,-2.4685,-2.4957,-2.466,-2.4387,-2.4609,-2.4416,-2.4274,0.0,-2.3927,-2.3781,-2.4213,-2.336,-2.2373,-2.1607,-1.7711,-1.4367,-1.2832,-1.2632,-0.9207,-0.0979,-0.2553,0.1401,1.3453,1.738,2.0918,2.4594,3.0351,3.3378,3.3378,3.4167,3.5013,3.5932,3.5773,3.5913,3.6266,3.7406,3.7553,3.6946,3.7153,3.7229,3.7204,3.6767,3.6864,3.7265,3.7129,3.7201,3.7132,3.5514,3.4907,3.4895,0.0,0.0,0.0,0.0,0.0,0.0,0.0,0.0,0.0,0.0,0.0,0.0,0.0,0.0,0.0,0.0,0.0,0.0,0.0,-0.1718,0.1287,0.1972,0.3458,0.446,0.4827,0.5109,0.566,0.649,0.6598,0.6843,0.7338,0.7728,0.788,0.7879,0.823,0.8408,0.8447,0.9172,0.9058,0.8318,0.8387,0.7694,0.6556,0.5837,0.2771,-0.2079,-0.9161,-1.3362,0.0,0.0,-1.8232,-1.7107,-1.9984,-2.048,-1.9906,-1.9462,-2.0382,-2.1427,-2.1108,-2.1429,-2.2007,-2.2814,-2.4418,-2.5763,-2.558,-2.6224,-2.6981,-2.7291,-2.7122,-2.71,-2.7723,-2.7527,-2.7134,-2.678,-2.6526,-2.6347,-2.622,-2.5828,-2.5515,-2.546,-2.3501,-2.1371,-1.959,-1.7906,-1.4079,-0.7146,-0.6931,-0.3262,0.5508,1.2636,1.7178,1.8833,2.75,3.2119,3.2119,3.4699,3.6321,3.6958,3.6837,3.689,3.7116,3.7622,3.8203,3.8841,3.9071,3.9202,3.9276,3.9061,3.9035,3.9071,3.872,3.849,3.8274,3.7586,3.6663,3.5746,0.0,0.0,0.0,0.0,0.0,0.0,0.0,0.0,0.0,0.0,0.0,0.0,0.0,0.0,0.0,0.0,0.0,0.0,0.0,-0.7162,-0.4043,-0.4789,-0.0248,0.2148,0.1949,0.289,0.4103,0.5542,0.5756,0.6204,0.6944,0.7041,0.7047,0.6954,0.7209,0.7365,0.7365,0.8014,0.7901,0.7348,0.7616,0.7224,0.6244,0.4933,-0.1364,-0.9514,-0.9275,0.0,0.0,0.0,-2.1292,-1.8707,-2.0391,-2.0568,0.0,-2.0267,-2.1314,-2.2288,-2.1485,-2.2594,-2.4117,-2.5057,-2.6284,-2.7538,-2.8685,-2.9779,-3.0489,-3.038,-3.0193,-3.0041,-2.9904,-2.8866,-2.8446,-2.9973,-2.8973,-2.8482,-2.9772,-2.9571,-2.9206,-2.8923,-2.9668,-3.0313,0.0,-2.0715,-1.5286,-1.7379,-1.2942,-0.8689,-0.5259,0.0236,0.5688,1.092,2.0803,2.6071,2.6071,3.3808,3.8611,4.0329,3.8587,3.7798,3.7855,3.7559,3.834,3.9931,3.9282,3.9199,3.9489,3.941,3.9387,3.9461,4.0287,4.0064,3.9303,3.9582,3.8415,3.6665,0.0,0.0,0.0,0.0,0.0,0.0,0.0,0.0,0.0,0.0,0.0,0.0,0.0,0.0,0.0,0.0,0.0,0.0,0.0,-0.7813,-0.5736,-0.6032,-0.2626,-0.0883,-0.1322,0.1616,0.3445,0.4048,0.444,0.4886,0.5441,0.5773,0.61,0.6431,0.6869,0.6864,0.6637,0.7509,0.5097,0.1011,0.4879,0.3491,-0.1013,-0.1318,-0.3594,-0.7413,0.0,0.0,0.0,-1.9648,-1.9977,-1.9473,-2.208,-2.2747,-2.2547,-2.2292,-2.2637,-2.314,-2.3366,-2.4706,-2.6171,-2.6685,-2.7463,-2.8479,-3.0039,-3.0705,-3.1292,-3.2157,-3.1715,-3.1132,-3.1087,-3.108,-3.107,-3.1024,-3.1503,-3.1982,-3.2114,-3.1435,-3.0904,-3.0951,-3.0769,0.0,0.0,0.0,-2.624,-2.3779,-2.3282,-2.1042,-1.6263,-0.6164,0.0396,0.2338,1.6709,2.441,2.441,2.9824,3.3701,3.5936,3.6977,3.7775,3.8349,3.815,3.8719,3.9867,3.9715,3.9744,3.9902,4.0078,4.0098,4.0096,4.0437,4.0351,4.0072,4.0304,3.9627,3.8412,0.0,0.0,0.0,0.0,0.0,0.0,0.0,0.0,0.0,0.0,0.0,0.0,0.0,0.0,0.0,0.0,0.0,0.0,0.0,0.0,-0.7993,-0.8095,-0.4865,-0.31,-0.3241,-0.0623,0.1013,0.156,0.2439,0.3056,0.3351,0.4371,0.5105,0.5592,0.6041,0.6213,0.6159,0.6918,0.4444,0.0341,0.4108,0.2519,-0.2059,-0.1908,-0.4261,0.0,0.0,0.0,0.0,-2.1479,-2.0487,-2.0019,-2.3051,-2.4032,-2.4069,-2.4164,-2.4408,-2.4909,-2.6122,-2.7208,-2.826,-2.9118,-2.9726,-3.0506,-3.1959,-3.2628,-3.3247,-3.4293,-3.3559,-3.2769,-3.2874,-3.314,-3.29,-3.1719,-3.2907,-3.3806,-3.3286,-3.2917,-3.2885,-3.3388,-3.3306,-3.3192,0.0,0.0,0.0,-2.9493,-2.8725,-2.7291,-2.4728,-1.4841,-0.9321,-0.9405,0.7541,1.6626,1.6628,2.5503,3.1224,3.3636,3.5972,3.7527,3.828,3.8074,3.8497,3.9407,3.9548,3.9769,4.0033,4.0207,4.0293,4.0304,4.0382,4.0366,4.0316,4.0552,4.0344,3.9799,0.0,0.0,0.0,0.0,0.0,0.0,0.0,0.0,0.0,0.0,0.0,0.0,0.0,0.0,0.0,0.0,0.0,0.0,0.0,0.0,0.0,-1.1175,-0.7189,-0.4763,-0.4237,-0.3813,-0.2995,-0.1788,-0.0104,0.0687,0.0806,0.2745,0.3877,0.4197,0.4707,0.5214,0.5773,0.6159,0.5396,0.4088,0.4918,0.3781,0.1671,0.1843,0.0,0.0,0.0,0.0,0.0,-2.5283,-2.2991,-2.0755,-2.3609,-2.462,-2.4956,-2.5904,-2.6639,-2.7558,-2.9479,-2.9955,-3.0379,-3.2187,-3.2795,-3.326,-3.4394,-3.5332,-3.6061,-3.6522,-3.5592,-3.4747,-3.4978,-3.4641,-3.3825,-3.2232,-3.3279,-3.4085,-3.3499,-3.4259,-3.515,0.0,0.0,0.0,0.0,0.0,0.0,-3.4621,-2.9772,-2.8078,-3.0806,-2.5653,-2.2928,-2.3533,-0.6379,0.2826,0.2814,2.03,3.0459,3.3276,3.5396,3.678,3.7487,3.7126,3.7558,3.8548,3.8658,3.9107,3.9711,3.9746,3.9831,4.0,4.0125,4.0137,4.008,4.0339,4.0568,4.0655,0.0,0.0,0.0,0.0,0.0,0.0,0.0,0.0,0.0,0.0,0.0,0.0,0.0,0.0,0.0,0.0,0.0,0.0,0.0,0.0,0.0,0.0,0.0,0.0,0.0,0.0,0.0,0.0,0.0,-0.197,-0.14,-0.0962,0.0054,0.1518,0.2019,0.2417,0.2762,0.4146,-0.0197,-0.7279,0.0,-0.2789,-1.2611,0.0,0.0,0.0,0.0,0.0,0.0,-2.6137,-2.6409,-2.6832,-2.8169,-2.8435,-2.8296,-2.8651,-2.9467,-3.0396,-3.0986,-3.1574,-3.2127,-3.2804,-3.2616,-3.2647,-3.4078,-3.4681,-3.5084,-3.5483,-3.432,-3.3058,-3.2474,-3.3164,-3.3593,-3.2911,-3.4936,0.0,-3.6541,-3.6684,0.0,-3.7488,0.0,-3.815,-3.8394,-3.8432,0.0,-3.7963,-3.6287,-3.5828,-3.7,-3.1991,-2.9124,-2.9282,-1.7933,-1.1814,-1.1821,0.5226,1.8722,2.8458,3.0502,3.2578,3.4607,3.4173,3.4779,3.608,3.6174,3.663,3.7283,3.7453,3.789,3.8459,3.8451,3.8794,3.9377,3.9542,3.9871,4.0183,0.0,0.0,0.0,0.0,0.0,0.0,0.0,0.0,0.0,0.0,0.0,0.0,0.0,0.0,0.0,0.0,0.0,0.0,0.0,0.0,0.0,0.0,0.0,0.0,0.0,0.0,0.0,0.0,0.0,0.0,0.0,-0.3381,-0.2904,-0.2652,-0.2295,-0.1653,-0.0882,-0.1377,0.0,0.0,0.0,0.0,0.0,0.0,0.0,0.0,0.0,0.0,0.0,0.0,0.0,-2.9135,-2.9967,-3.0043,-2.9931,-3.0633,-3.1279,-3.1909,-3.2605,-3.3062,-3.346,-3.3981,-3.3835,-3.3824,-3.4768,-3.4998,-3.4961,-3.5014,-3.3523,-3.2125,-3.177,-3.2847,-3.343,0.0,0.0,0.0,-3.6803,-3.6939,-3.7402,0.0,-3.8436,0.0,-3.8689,-3.8841,-3.8958,-3.8982,-3.8877,-3.9044,-3.9665,-3.6875,-3.5373,-3.5658,-2.6077,-1.658,-0.7497,0.3051,1.4104,2.5574,2.8394,3.0626,3.2306,3.2751,3.373,3.502,3.5111,3.558,3.6387,3.686,3.7374,3.7895,3.8206,3.8612,3.9017,3.9133,3.9378,3.9656,0.0,0.0,0.0,0.0,0.0,0.0,0.0,0.0,0.0,0.0,0.0,0.0,0.0,0.0,0.0,0.0,0.0,0.0,0.0,0.0,0.0,0.0,0.0,0.0,0.0,0.0,0.0,0.0,0.0,0.0,0.0,0.0,0.0,0.0,0.0,0.0,0.0,0.0,0.0,0.0,0.0,0.0,0.0,0.0,0.0,0.0,0.0,0.0,0.0,0.0,-2.9406,-2.977,-3.0668,-3.0936,-3.1163,-3.2398,-3.2724,-3.2917,-3.4139,-3.4423,-3.4506,-3.5212,-3.5454,-3.555,-3.5601,-3.5412,-3.5034,-3.443,-3.2852,-3.161,-3.1781,-3.2944,-3.3283,-3.1395,0.0,-3.6333,-3.5845,-3.63,-3.7184,-3.8475,-3.8832,-3.8934,-3.886,-3.902,-3.9053,-3.8812,-3.9033,-3.945,-4.0111,-4.0123,-4.0409,-4.1063,-3.2406,-1.8446,0.0938,0.4337,1.1338,2.1976,2.6645,2.9366,3.0218,3.168,3.301,3.4261,3.4386,3.4964,3.5842,3.6573,3.7149,3.7566,3.8248,3.8619,3.8781,3.8839,3.8979,3.9108,0.0,0.0,0.0,0.0,0.0,0.0,0.0,0.0,0.0,0.0,-1.2849,-1.3902,0.0,0.0,0.0,0.0,0.0,0.0,0.0,0.0,0.0,0.0,0.0,0.0,0.0,0.0,0.0,0.0,0.0,0.0,0.0,0.0,0.0,0.0,0.0,0.0,0.0,0.0,0.0,0.0,0.0,0.0,0.0,0.0,0.0,0.0,0.0,0.0,0.0,0.0,-3.0774,-3.2565,-3.3497,-3.4224,-3.4804,-3.512,-3.5103,-3.5052,-3.5307,-3.5244,-3.5126,-3.5278,-3.5262,-3.5018,-3.4314,-3.416,0.0,0.0,-3.1583,-3.1197,-3.0423,-3.1703,-3.2916,-3.3072,-3.4682,-3.6129,-3.6672,-3.7305,-3.7862,0.0,-3.885,-3.9396,-3.958,-3.9159,0.0,-3.9167,-3.8798,-3.8924,-3.9749,-3.9721,-4.0073,-4.0907,-3.9204,-3.23,-1.989,-1.138,-0.1041,1.097,1.9452,2.5099,2.8025,2.8052,2.9237,3.1258,3.184,3.2447,3.3087,3.3534,3.4648,3.6056,3.598,3.6847,3.8168,3.815,3.8401,3.8702,0.0,0.0,0.0,0.0,0.0,0.0,0.0,-1.1523,-1.2517,-1.1454,-1.3033,-1.4157,-1.3892,-1.3584,0.0,0.0,0.0,0.0,0.0,0.0,0.0,0.0,0.0,0.0,0.0,0.0,-1.2888,-1.2899,0.0,0.0,0.0,-1.362,-1.4379,-1.5294,0.0,0.0,0.0,0.0,0.0,0.0,0.0,0.0,0.0,0.0,0.0,0.0,0.0,0.0,0.0,0.0,-3.0099,-3.2826,-3.4183,-3.517,-3.583,-3.5722,-3.5655,-3.5573,-3.5472,-3.5418,-3.5386,-3.535,-3.5359,-3.5012,-3.369,0.0,0.0,-3.1064,-3.0701,-3.0572,-3.0083,-3.1413,-3.2502,-3.2364,-3.4319,-3.5878,-3.596,-3.723,-3.8184,-3.8315,-3.9146,-3.9769,-3.984,-3.9337,-3.8879,-3.8531,-3.7892,-3.7938,-3.8918,-3.9432,-4.0078,-4.0937,-4.0988,-3.5899,-2.5261,-2.0578,-0.9951,0.6527,1.1961,1.7988,2.4484,2.6316,2.7811,2.9045,3.0377,3.1522,3.2437,3.2971,3.379,3.4851,3.5693,3.6464,3.7122,3.765,3.7962,3.8085,0.0,0.0,0.0,0.0,0.0,0.0,0.0,-1.2016,-1.1846,-1.1982,-1.3467,-1.435,-1.3944,-1.3704,-1.341,0.0,0.0,0.0,0.0,0.0,0.0,0.0,0.0,0.0,0.0,0.0,0.0,-1.3494,-1.3588,0.0,0.0,0.0,0.0,0.0,-1.918,-1.8924,0.0,0.0,0.0,0.0,0.0,-2.4462,0.0,0.0,0.0,0.0,0.0,0.0,0.0,0.0,-2.8777,-3.149,-3.289,-3.4427,-3.5678,-3.5466,-3.5405,-3.5383,-3.5416,-3.5482,-3.5532,-3.5485,-3.556,-3.5185,-3.342,-3.2949,0.0,-3.0655,-3.026,-3.019,-3.0144,-3.1207,-3.1909,0.0,-3.3349,-3.4908,-3.4792,-3.657,-3.7996,0.0,-3.9333,0.0,-3.9984,-3.9346,0.0,-3.7935,-3.7032,-3.7063,-3.8229,-3.9238,-4.0129,-4.0933,-4.1007,-3.7028,-2.8674,-2.6615,-1.6586,0.1179,0.4904,1.1754,2.1171,2.4437,2.6388,2.7236,2.8934,3.0527,3.2003,3.2616,3.3216,3.3874,3.5413,3.6017,3.6074,3.7006,3.7431,3.7503,0.0,0.0,0.0,0.0,0.0,0.0,0.0,-1.4788,-1.4679,-1.4576,-1.4585,-1.4501,-1.4271,-1.3961,-1.363,0.0,0.0,0.0,0.0,0.0,0.0,0.0,0.0,0.0,0.0,0.0,0.0,-1.6328,-1.6339,0.0,0.0,0.0,0.0,0.0,0.0,-1.9454,-1.7593,-2.1798,0.0,0.0,0.0,0.0,0.0,0.0,0.0,0.0,0.0,0.0,0.0,0.0,0.0,-2.8521,-2.8791,-3.1615,-3.4802,-3.4782,0.0,0.0,-3.5632,-3.5768,-3.5685,-3.5676,-3.5721,-3.5302,-3.3507,0.0,-3.2628,-3.0706,-3.043,-3.05,-3.0325,-3.0554,-3.0942,-3.1482,0.0,-3.2403,-3.3802,-3.5431,-3.6805,-3.768,0.0,0.0,-4.026,-3.895,-3.8125,-3.816,-3.6806,-3.6654,-3.8219,-3.9208,-4.0039,-4.0798,-4.0818,-4.033,-3.9282,-3.0182,-2.0805,-1.1237,-0.0696,0.9622,1.9505,2.111,2.3279,2.5853,2.6588,2.8334,3.0601,3.0983,3.1986,3.332,3.3693,3.4454,3.5392,3.6,3.6689,3.7334,0.0,0.0,0.0,0.0,0.0,0.0,-1.24,-1.2255,-1.2118,-1.2031,-1.3449,-1.4428,-1.4252,-1.4078,-1.3838,0.0,0.0,0.0,0.0,0.0,0.0,0.0,0.0,0.0,0.0,0.0,-1.6082,-1.6454,-1.641,0.0,0.0,0.0,0.0,0.0,0.0,-2.0306,-1.9952,-2.1716,0.0,0.0,0.0,0.0,0.0,0.0,0.0,0.0,0.0,0.0,-2.5472,0.0,0.0,0.0,-2.6989,-2.8928,0.0,0.0,-3.3861,-3.4847,-3.5711,-3.5919,-3.5878,-3.584,-3.5444,-3.4743,-3.3448,0.0,-3.2053,-3.0762,-3.053,-3.0588,-3.051,-3.055,-3.0675,-3.0893,0.0,0.0,-3.2434,-3.4395,-3.6055,-3.6889,-3.8491,-3.9747,0.0,0.0,-3.8344,-3.7536,-3.6414,-3.6326,-3.756,-3.8494,-3.9318,-4.0109,-4.062,-4.0823,-4.0766,-3.6588,-2.7332,-1.3112,-0.7896,0.2543,1.7338,1.9669,2.1881,2.3841,2.5232,2.6998,2.8899,2.9439,3.0321,3.1438,3.2645,3.3794,3.4923,3.5633,3.6528,3.7297,0.0,0.0,0.0,0.0,0.0,-1.163,-1.0592,-1.1083,-1.1195,-1.0201,-1.2609,-1.438,-1.4288,-1.4245,-1.4105,-1.3818,0.0,0.0,0.0,0.0,0.0,0.0,0.0,0.0,0.0,0.0,-1.5798,-1.6,-1.6193,-1.6625,0.0,0.0,-1.9011,-1.995,0.0,0.0,0.0,0.0,0.0,0.0,0.0,0.0,0.0,0.0,0.0,0.0,0.0,0.0,0.0,0.0,0.0,0.0,0.0,0.0,0.0,0.0,-3.2573,-3.4174,-3.532,-3.5796,-3.5994,-3.5943,-3.5271,-3.432,0.0,0.0,-3.1635,-3.0468,-3.0433,-3.0598,-3.0598,-3.0598,-3.0569,0.0,0.0,-3.1425,-3.1614,-3.341,-3.4885,-3.5377,0.0,-3.8387,-3.9309,-3.934,-3.8695,-3.72,-3.6532,-3.6367,-3.6797,-3.7896,-3.8887,-3.9694,-4.0494,-4.089,-4.0849,-4.0546,-3.1485,-1.3924,-1.2616,-0.2385,1.5493,1.7961,1.9983,2.16,2.3514,2.5244,2.6972,2.8136,2.9018,2.9718,3.12,3.2577,3.376,3.4263,3.5511,3.6885,0.0,0.0,0.0,0.0,0.0,0.0,-1.0791,-1.2833,-1.361,-1.0413,-1.2639,-1.4488,-1.4506,-1.4506,-1.4434,-1.4296,0.0,0.0,0.0,0.0,0.0,0.0,0.0,0.0,0.0,0.0,-1.5358,-1.5317,-1.6108,-1.6648,-1.6915,-1.7658,-1.8652,-1.981,0.0,0.0,0.0,0.0,0.0,0.0,0.0,0.0,0.0,0.0,0.0,0.0,0.0,0.0,0.0,0.0,0.0,0.0,0.0,0.0,0.0,0.0,-3.0761,-3.2516,-3.4234,-3.5339,-3.5991,-3.5991,-3.5335,-3.4246,0.0,-3.2104,-3.1587,-2.9783,-3.0042,-3.0598,-3.0598,-3.0598,-3.0598,-3.0598,-3.0613,0.0,-3.1603,-3.252,-3.3082,0.0,-3.4494,-3.5921,-3.6942,-3.8702,-3.9103,-3.7419,-3.7283,-3.6871,-3.5968,-3.7565,-3.8892,-3.9772,-4.0519,-4.0939,-4.1006,-4.0592,-3.1967,-1.5358,-1.3741,-0.3498,1.4092,1.5418,1.7195,1.9349,2.0988,2.2812,2.4785,2.717,2.8204,2.847,2.9177,3.0293,3.1486,3.131,3.3285,3.5978,0.0,0.0,0.0,0.0,0.0,0.0,0.0,-1.1006,-1.1196,-1.0077,-1.2561,-1.4405,-1.4301,-1.4349,-1.4349,-1.4301,0.0,0.0,0.0,0.0,0.0,0.0,0.0,0.0,0.0,0.0,-1.5073,-1.5499,-1.5798,-1.635,-1.712,-1.7902,-1.8653,-1.9324,-1.9459,-1.9782,0.0,0.0,0.0,0.0,0.0,0.0,0.0,0.0,0.0,0.0,0.0,0.0,0.0,0.0,0.0,0.0,0.0,0.0,0.0,0.0,0.0,0.0,-3.246,-3.3122,-3.3199,-3.2647,-3.2315,-3.1786,-3.0609,-3.0326,-3.015,-2.953,-2.9566,-2.989,-3.0485,-3.0595,-3.0615,-3.0656,-3.0622,0.0,0.0,0.0,0.0,-3.4689,-3.7336,-3.9254,-3.9568,-3.9725,-3.9588,-3.9047,-3.7946,-3.7167,-3.6872,-3.7943,-3.8671,-3.8906,-4.0196,-4.0897,-4.0866,-4.0556,-3.1964,-1.5328,-1.4051,-0.3791,1.4001,1.5123,1.7601,2.0911,2.1303,2.2722,2.4815,2.5506,2.6228,2.6817,2.7066,2.8497,3.0514,3.0941,3.2403,3.4288,0.0,0.0,0.0,0.0,0.0,0.0,0.0,-1.1202,-1.1423,-1.0192,-1.2568,-1.435,-1.4255,-1.4273,-1.4273,-1.4237,0.0,0.0,0.0,0.0,0.0,0.0,0.0,0.0,0.0,-1.4504,-1.459,-1.525,-1.5618,-1.6265,-1.7197,-1.8038,-1.8661,-1.9077,-1.917,-1.9382,0.0,0.0,0.0,0.0,0.0,0.0,-2.1058,0.0,0.0,0.0,0.0,0.0,0.0,0.0,0.0,0.0,0.0,0.0,0.0,0.0,-2.688,-2.8151,0.0,-3.1405,-3.1521,-3.1032,-3.0641,0.0,-2.9264,-2.9045,-2.8933,-2.8532,-2.8955,-2.9535,-3.0042,-3.0428,-3.0642,-3.0691,-3.0698,-3.0794,-3.1112,-3.2571,-3.4003,-3.5091,-3.7713,-3.9574,-3.9896,-4.014,-4.0157,-3.9818,-3.8828,-3.8103,-3.7809,-3.8593,-3.9041,-3.9032,-4.0258,-4.0878,-4.0792,-4.0535,-3.195,-1.5265,-1.4541,-0.4522,1.3243,1.4241,1.6332,1.9233,2.0584,2.1834,0.0,2.4201,2.4958,2.5539,2.5318,2.6627,2.8816,2.9173,3.0725,3.2686,0.0,0.0,0.0,0.0,0.0,0.0,0.0,-1.3075,-1.3772,-1.0896,-1.2784,-1.4375,-1.4306,-1.4299,-1.4242,-1.411,0.0,0.0,0.0,0.0,0.0,0.0,0.0,0.0,0.0,-1.3798,-1.4134,-1.4761,-1.5662,-1.6482,-1.7179,-1.8097,-1.8715,-1.9048,-1.9107,-1.9291,-1.9553,0.0,0.0,0.0,0.0,0.0,0.0,0.0,0.0,0.0,0.0,0.0,0.0,0.0,0.0,0.0,0.0,0.0,0.0,0.0,0.0,0.0,0.0,-2.99,-3.0618,-3.0546,-2.9961,-2.9199,-2.8309,-2.8164,0.0,-2.7082,-2.8233,-2.9413,-2.9399,-3.0119,-3.0703,-3.0709,-3.075,-3.1061,-3.1806,-3.2238,-3.3059,-3.4683,-3.6411,-3.7747,-3.843,-4.0084,-4.0754,-3.9959,-3.9836,-3.9471,-3.8725,-3.9406,-3.984,-3.9906,-4.0564,-4.0876,-4.0799,-4.0571,-3.2286,-1.6187,-1.5403,-0.5807,1.1242,1.2759,1.4105,1.5433,1.9076,2.0487,2.0428,2.3041,2.4285,2.4652,2.3887,2.4813,2.6534,2.6567,2.8417,3.1014,0.0,0.0,0.0,0.0,0.0,0.0,0.0,0.0,0.0,0.0,-1.408,-1.4362,-1.4302,-1.4289,-1.4245,0.0,0.0,0.0,0.0,0.0,0.0,0.0,0.0,0.0,0.0,-1.4709,-1.5174,-1.5392,-1.6612,-1.7429,-1.7887,-1.8467,-1.8966,-1.938,-1.9339,-1.9529,-1.9888,-1.9928,0.0,0.0,0.0,0.0,0.0,0.0,0.0,0.0,-2.1986,-2.252,0.0,0.0,0.0,0.0,0.0,0.0,0.0,0.0,-2.4256,-2.3728,-2.5214,0.0,-2.7751,-2.7086,-2.7263,-2.7382,0.0,0.0,0.0,-2.6965,-2.776,-2.87,-2.9362,-3.0141,-3.0725,-3.0778,-3.0798,-3.1083,-3.1941,-3.434,-3.6391,-3.7471,-3.9085,-3.9687,-3.86,-4.0075,-4.1015,-4.0801,-4.0186,-3.9741,-3.9602,-3.9771,-3.988,-3.9901,-4.0658,-4.0976,-4.0808,-4.0792,-3.5469,-2.4922,-1.7874,-0.8334,0.3276,1.0919,1.5651,1.7966,1.9043,2.0407,2.1846,2.1832,2.2603,2.3643,2.2858,2.3492,2.4975,2.6083,2.7205,2.8513,0.0,0.0,0.0,0.0,0.0,0.0,0.0,0.0,0.0,0.0,0.0,0.0,0.0,0.0,0.0,0.0,0.0,0.0,0.0,0.0,0.0,0.0,0.0,-1.432,-1.4693,-1.5248,-1.5896,-1.6609,-1.749,-1.8352,-1.9198,-1.9561,-2.0092,-2.0728,-2.0354,-2.0113,-2.0,-1.9969,-2.0019,0.0,-2.0125,0.0,0.0,0.0,0.0,0.0,-2.1188,-2.151,0.0,-2.2405,-2.3115,-2.3805,0.0,0.0,0.0,0.0,-2.4062,-2.3886,-2.4761,-2.5975,-2.6894,-2.6401,-2.6657,-2.6874,-2.6404,0.0,0.0,-2.6356,-2.7362,-2.8395,-2.8862,-3.0258,-3.1217,-3.085,-3.1804,-3.2745,-3.3236,-3.4866,-3.6475,-3.7759,-3.9053,-3.9819,-3.9707,-4.0543,-4.1108,-4.1108,-4.0667,-4.0405,-4.0444,-4.0457,-4.0459,-4.0457,-4.0878,-4.1035,-4.0898,-4.089,-3.6568,-2.7932,-1.9041,-0.9974,-0.0744,0.8661,1.4239,1.6343,1.7404,1.914,2.124,2.0881,2.1541,2.2731,2.2166,2.2494,2.3479,2.4745,2.6155,2.7628,0.0,0.0,0.0,0.0,0.0,0.0,0.0,0.0,0.0,0.0,0.0,0.0,0.0,0.0,0.0,0.0,0.0,0.0,0.0,0.0,0.0,0.0,0.0,-1.4643,-1.5386,-1.5764,-1.6575,-1.7855,-1.8398,-1.93,-2.0531,-2.0849,-2.1372,-2.2023,-2.1394,-2.0702,-1.9998,-1.9939,-2.0,-2.0108,-2.0167,0.0,0.0,0.0,0.0,0.0,0.0,0.0,0.0,-2.1431,-2.2234,-2.2916,-2.2914,0.0,0.0,0.0,0.0,0.0,-2.5458,-2.6529,-2.7292,-2.6908,-2.691,-2.6968,-2.6832,0.0,0.0,0.0,-2.6978,-2.8172,-2.8454,-3.0251,-3.1542,-3.1074,-3.3083,-3.4791,-3.5053,-3.5263,-3.5903,-3.724,-3.8292,-3.9373,-4.0594,-4.0945,-4.1108,-4.1108,-4.1108,-4.1108,-4.1108,-4.1097,-4.1108,-4.1111,-4.1094,-4.1074,-4.103,-3.9759,-3.5475,-2.8162,-1.8369,-0.9791,-0.2275,0.6947,1.1997,1.3607,1.5284,1.7446,1.9762,1.9845,2.0722,2.1892,2.1717,2.1803,2.2224,2.3433,2.5177,2.7081,0.0,0.0,0.0,0.0,0.0,0.0,0.0,0.0,0.0,0.0,0.0,0.0,0.0,0.0,0.0,0.0,0.0,0.0,0.0,0.0,0.0,-1.5629,-1.5632,-1.5545,-1.5396,-1.6874,-1.7768,-1.8042,-1.9531,-2.0381,-2.0685,-2.1521,-2.1671,-2.1268,-2.1209,-2.0744,-1.9998,-2.004,-2.0079,-2.0117,-2.0159,0.0,0.0,0.0,0.0,0.0,0.0,0.0,0.0,-2.0749,-2.1375,-2.2078,-2.2076,0.0,0.0,0.0,0.0,0.0,-2.5464,-2.7362,-2.8593,-2.6435,-2.6451,-2.6804,-2.6062,0.0,0.0,0.0,0.0,-2.7651,-2.9137,-2.9668,-3.0332,-3.168,-3.3474,-3.5191,-3.662,-3.8085,-3.8847,-3.8435,-3.9763,-4.0248,-3.9097,-4.0268,-4.1108,-4.1108,-4.1108,-4.1108,-4.1108,-4.1091,-4.1094,-4.1097,-4.1094,-4.1099,-4.1071,-3.4419,-3.0392,-2.884,-1.3268,-0.4526,-0.1848,0.7552,1.2832,1.4475,1.5061,1.6604,1.882,1.8331,1.9403,2.1302,2.1526,2.1803,2.2286,2.3577,2.4182,2.4732,0.0,0.0,0.0,0.0,0.0,0.0,0.0,0.0,0.0,0.0,0.0,0.0,0.0,0.0,0.0,0.0,0.0,0.0,0.0,0.0,0.0,-1.5987,-1.6835,-1.7212,-1.7032,-1.8335,-1.9159,-1.9457,-2.0978,-2.1845,-2.2126,-2.273,-2.2621,-2.1885,-2.1481,-2.0852,-2.005,-2.0161,-2.0214,-2.0214,0.0,0.0,0.0,0.0,0.0,0.0,0.0,0.0,0.0,0.0,-2.1181,-2.1905,-2.1901,0.0,0.0,0.0,0.0,0.0,-2.5595,-2.6893,-2.7968,-2.7226,-2.8398,-2.9607,-2.9234,-2.8763,0.0,0.0,-2.8456,-2.9431,-3.0676,-3.1647,-3.3127,-3.5773,-3.5685,-3.5892,-3.7609,-3.7756,-3.7899,-3.8475,-3.9253,-3.9808,-3.9937,-4.0659,-4.1108,-4.1108,-4.1108,-4.1108,-4.1108,-4.1108,-4.1097,-4.1095,-4.11,-4.1094,-4.1101,-2.9592,-2.5713,-2.9304,-1.6919,-0.8153,-0.2475,0.629,1.1804,1.4294,1.3881,1.5287,1.7685,1.756,1.8308,1.9705,2.1089,2.1553,2.1842,2.3948,2.4774,2.5108,0.0,0.0,0.0,0.0,0.0,0.0,0.0,0.0,0.0,0.0,0.0,0.0,0.0,0.0,0.0,0.0,0.0,0.0,0.0,0.0,-1.6314,-1.6413,-1.7851,-1.8669,-1.8701,-1.9647,-2.0383,-2.0945,-2.2258,-2.3202,-2.3756,-2.3796,-2.3403,-2.2585,-2.1788,-2.0943,-2.0122,-2.0242,-2.0292,-2.0299,0.0,0.0,0.0,0.0,0.0,0.0,0.0,0.0,0.0,0.0,0.0,0.0,0.0,0.0,0.0,-2.3817,-2.457,-2.5439,-2.565,-2.6464,-2.7477,-2.8317,-2.9695,-3.0986,-3.1629,-3.0903,-3.0069,-2.986,-3.0331,-3.105,-3.1874,-3.3427,-3.5441,-3.8065,-3.7338,-3.6973,-3.8507,-3.78,-3.7617,-3.8945,-3.9154,-3.9683,-4.0971,-4.1108,-4.1108,-4.1108,-4.1108,-4.1108,-4.1108,-4.1108,-4.1104,-4.1105,-4.1096,-4.1096,-4.1105,-2.8275,-2.3552,-2.6869,-1.6881,-0.8012,-0.0293,0.5939,1.0692,1.3782,1.2991,1.4193,1.6556,1.6916,1.7446,1.8295,2.0429,2.1302,2.1592,2.3882,2.4873,2.5217,0.0,0.0,0.0,0.0,0.0,0.0,0.0,0.0,0.0,0.0,0.0,0.0,0.0,0.0,0.0,0.0,0.0,0.0,0.0,0.0,-1.6746,-1.7366,-1.8463,-1.9241,-1.9594,-2.0407,-2.1176,-2.1906,-2.2997,-2.4049,-2.5041,-2.4247,-2.3466,-2.2662,-2.1854,-2.1007,-2.0208,-2.0272,-2.0294,-2.032,-2.0366,0.0,0.0,0.0,0.0,0.0,0.0,0.0,0.0,0.0,0.0,0.0,0.0,0.0,-2.2078,-2.2089,-2.3223,-2.4667,-2.5478,-2.6874,-2.8335,-2.9277,-2.8415,-2.7954,-3.0275,-2.9549,-2.8828,-3.037,-3.0752,-3.1055,-3.1936,-3.3414,-3.4594,-3.4841,-3.6794,-3.8636,-3.9574,-4.0294,-4.0776,-4.089,-4.0912,-4.0971,-4.1088,-4.1108,-4.1108,-4.1108,-4.1108,-4.1108,-4.1108,-4.1108,-4.1091,-4.1097,-4.109,-4.109,-4.1097,-3.3676,-2.6236,-1.8758,-0.4621,0.4151,0.8018,0.8372,1.0331,1.3464,1.3099,1.3822,1.5325,1.5955,1.6821,1.793,1.9552,2.0974,2.2113,2.2798,2.3005,2.316,0.0,0.0,0.0,0.0,0.0,0.0,0.0,0.0,0.0,0.0,0.0,0.0,0.0,0.0,0.0,0.0,0.0,0.0,0.0,-1.5835,-1.6718,-1.7584,-1.8496,-1.9569,-2.0852,-2.1634,-2.231,-2.2929,-2.3841,-2.4645,-2.5284,-2.3842,-2.3035,-2.2766,-2.1415,-2.0933,-2.1107,-2.0634,-2.0718,-2.1132,-2.0607,-2.041,0.0,0.0,0.0,0.0,0.0,0.0,0.0,0.0,-2.0965,-2.1494,-2.2,-2.2754,-2.3449,-2.3443,-2.4288,-2.5151,-2.4941,-2.6518,-2.8279,-2.8586,-2.82,-2.8556,-3.1612,-3.1822,-3.1563,-3.222,-3.279,-3.3254,-3.3546,-3.5853,-3.7537,-3.6953,-3.8626,-4.0103,-4.0448,-4.0803,-4.1042,-4.1042,-4.1078,-4.1108,-4.1108,-4.1055,-4.1042,-4.1042,-4.0998,-4.0989,-4.1049,-4.103,-4.1058,-4.1107,-4.1062,-4.1051,-4.1094,-3.0119,-2.2845,-1.9304,-0.9025,-0.0642,0.5852,0.6923,0.9018,1.1849,1.1987,1.2795,1.3967,1.4556,1.5396,1.6522,1.9069,2.0921,2.2101,2.231,2.2763,2.3378,0.0,0.0,0.0,0.0,0.0,0.0,0.0,0.0,0.0,0.0,0.0,0.0,0.0,0.0,0.0,0.0,0.0,0.0,-1.5126,-1.6131,-1.7016,-1.7664,-1.8769,-2.0053,-2.1536,-2.2087,-2.2796,-2.3728,-2.4524,-2.4916,-2.4936,-2.3716,-2.3032,-2.2817,-2.1404,-2.1113,-2.163,-2.0832,-2.0803,-2.1249,-2.0658,-2.0468,0.0,0.0,0.0,0.0,0.0,0.0,0.0,0.0,-2.1178,-2.1997,-2.252,-2.3288,-2.3998,-2.3993,-2.4974,-2.5952,-2.5383,-2.6679,-2.833,-2.8825,-2.8564,-2.9069,-3.2513,-3.2855,-3.2759,-3.3842,-3.4523,-3.4854,-3.4528,-3.7086,-3.8952,-3.8085,-3.9599,-4.0906,-4.0921,-4.0942,-4.0974,-4.0974,-4.1003,-4.1046,-4.1074,-4.1003,-4.0986,-4.1037,-4.0974,-4.0967,-4.103,-3.8758,-3.8571,-4.1013,-3.8739,-3.8622,-4.1049,-2.7606,-2.0801,-2.0631,-1.0633,-0.2475,0.3997,0.5954,0.8146,1.0282,1.0964,1.1742,1.2653,1.3245,1.4411,1.6096,1.8926,2.0602,2.1416,2.1791,2.2421,2.3233,0.0,0.0,0.0,0.0,0.0,0.0,0.0,0.0,0.0,0.0,0.0,0.0,0.0,0.0,0.0,0.0,0.0,0.0,-1.5394,-1.6969,-1.7834,-1.7716,-1.943,-2.0734,-2.1466,-2.1562,-2.2441,-2.4184,-2.4996,-2.4896,-2.3995,-2.4061,-2.3627,-2.2742,-2.1958,-2.1591,-2.1539,-2.0812,-2.0464,-2.042,-2.0482,-2.0502,-2.0507,0.0,0.0,0.0,0.0,0.0,0.0,0.0,-2.12,-2.1901,-2.184,-2.2429,-2.3108,-2.3101,-2.4904,-2.688,-2.6963,-2.7588,-2.8636,-3.0342,-2.9445,-2.9045,-3.2499,-3.1909,-3.1584,-3.5008,-3.5688,-3.5427,-3.4561,-3.6484,-3.7976,-3.7308,-3.9286,-4.0921,-4.0992,-4.0935,-4.0898,-4.0898,-4.0898,-4.0921,-4.0992,-4.0935,-4.0968,-4.1085,-4.1042,-4.1037,-4.1108,-3.3908,-3.3235,-4.0755,-3.3696,-3.3352,-4.0727,-2.7543,-2.1213,-2.1596,-0.6743,0.1608,0.3909,0.6128,0.7716,0.8913,1.0058,1.0858,1.1232,1.2192,1.4237,1.7005,1.9013,1.977,1.9966,2.1175,2.1803,2.2286,0.0,0.0,0.0,0.0,0.0,0.0,0.0,0.0,0.0,0.0,0.0,0.0,0.0,0.0,0.0,0.0,0.0,0.0,-1.541,-1.6405,-1.7245,-1.7814,-1.8934,-1.9944,-2.0773,-2.1424,-2.2258,-2.3291,-2.3476,-2.3445,-2.323,-2.3201,-2.2755,-2.1945,-2.1707,-2.1636,-2.163,-2.0832,-2.0827,-2.1265,-2.0716,-2.0491,-2.0495,0.0,0.0,0.0,0.0,0.0,0.0,0.0,0.0,0.0,-2.3435,-2.3806,-2.4004,-2.4014,-2.4514,-2.5075,-2.5102,-2.7439,-2.9717,-2.8946,-3.015,-3.1816,-3.278,-3.2742,-3.3128,-3.5325,-3.5127,-3.4552,-3.4486,-3.6521,-3.7947,-3.7191,-3.9217,-4.0906,-4.0921,-4.0906,-4.0914,-4.0955,-4.0974,-4.0998,-4.1055,-4.1003,-4.0986,-4.1033,-4.0974,-4.0967,-4.103,-3.3663,-3.0587,-3.3067,-3.0705,-2.8244,-2.5883,-2.2453,-1.872,-1.4604,-0.447,0.0537,0.0804,0.4098,0.6048,0.6987,0.8809,1.0131,1.1152,1.3223,1.4759,1.6035,1.822,1.9386,1.9901,2.0655,2.1175,2.1815,0.0,0.0,0.0,0.0,0.0,0.0,0.0,0.0,0.0,0.0,0.0,0.0,0.0,0.0,0.0,0.0,0.0,0.0,0.0,-1.6671,-1.7504,-1.8387,-1.9259,-1.9955,-2.0495,-2.1013,-2.1507,-2.1958,-2.2574,-2.2731,-2.2443,-2.306,-2.2912,-2.2126,-2.2507,-2.2493,-2.2125,-2.1348,-2.1103,-2.1182,-2.0711,-2.0711,-2.0975,0.0,0.0,0.0,0.0,0.0,0.0,0.0,0.0,0.0,-2.423,-2.4641,-2.4974,-2.5269,-2.5581,-2.6046,-2.6993,-2.888,-3.0028,-2.7619,-2.8048,-2.8575,-2.6736,-3.037,-3.2928,-2.8711,-2.9628,-3.0446,-2.7926,-3.1465,-3.459,-3.4127,-3.7865,-3.9897,-3.7252,-3.9204,-3.9917,-3.7224,-3.9306,-4.0986,-4.1051,-4.0998,-4.0986,-4.1037,-4.098,-3.968,-3.6814,-2.9323,-2.5228,-2.5404,-2.2261,-2.0028,-1.9042,-1.7179,-1.4603,-1.1138,-0.333,0.0,-0.0538,0.3477,0.5432,0.5766,0.8062,0.9546,1.0472,1.2748,1.426,1.5334,1.7179,1.8509,1.932,1.9835,2.0473,2.1302,0.0,0.0,0.0,0.0,0.0,0.0,0.0,0.0,0.0,0.0,0.5804,0.0,0.0,0.0,0.0,0.0,0.0,0.0,0.0,0.0,-1.8052,-1.9136,-2.0003,-2.046,-2.0469,-2.0471,-2.0474,-2.0499,-2.2029,-2.2362,-2.1648,-2.3314,-2.3637,-2.2829,-2.3844,-2.3786,-2.2876,-2.2193,-2.1452,-2.0745,-2.0736,-2.1217,-2.1823,-2.1038,0.0,0.0,0.0,0.0,0.0,0.0,0.0,0.0,-2.4482,-2.4997,-2.5734,-2.6465,-2.7282,-2.8456,-3.0723,-3.1023,-2.9843,-2.6333,-2.3913,-2.118,-1.6442,-2.4814,-3.0222,-1.8323,-2.1192,-2.3951,-1.7899,-2.3158,-2.8463,-2.8547,-3.4357,-3.6742,-3.0712,-3.5192,-3.6752,-3.041,-3.5229,-3.9324,-3.9914,-3.9982,-3.9999,-4.0087,-4.0052,-3.6813,-2.9481,-2.1868,-1.7751,-1.7811,-1.1031,-1.0299,-1.6378,-1.1803,-0.9516,-0.9563,-0.2778,0.0,-0.0717,0.3554,0.5318,0.5207,0.778,0.9063,0.9448,1.1205,1.2947,1.4775,1.6062,1.7335,1.8405,1.8942,1.9704,2.0643,0.0,0.0,0.0,0.0,0.0,0.0,0.0,0.0,0.0,0.0,0.0,0.0,0.0,0.0,0.0,0.0,0.0,0.0,0.0,0.0,-1.6356,-1.8863,-1.9803,-2.0254,-2.0254,-2.0253,-2.0331,-2.05,-2.0866,-2.0967,-2.0876,-2.2557,-2.2878,-2.2103,-2.3631,-2.3806,-2.2979,-2.287,-2.2717,-2.2539,-2.2536,-2.2652,-2.281,-2.2602,-2.2762,0.0,0.0,0.0,0.0,0.0,0.0,0.0,-2.5149,-2.5036,-2.4836,-2.5634,-2.5952,-2.6472,-2.825,-3.0025,-3.0132,-2.4892,-2.0412,-1.5718,-0.9595,-1.4289,-1.9253,-1.6903,-1.7523,-1.8074,-1.667,-1.8597,-2.0464,-2.0628,-2.2969,-2.4273,-2.2855,-2.4204,-2.4472,-2.2088,-2.3796,-2.6992,-3.1741,-3.2662,-3.2833,-3.2502,-3.2461,-2.9215,-2.185,-1.4061,-0.9971,-1.0186,-0.813,-0.5539,-0.2264,-0.6471,-0.6847,-0.3343,-0.0265,0.009,-0.179,0.1842,0.427,0.5858,0.7821,0.8926,0.9448,1.1205,1.2517,1.3693,1.5773,1.6775,1.7198,1.8576,1.9452,2.015,0.0,0.0,0.0,0.0,0.0,0.0,0.0,0.0,0.0,0.0,0.0,0.0,0.0,0.0,0.0,0.0,0.0,0.0,0.0,0.0,-1.6129,-1.939,-1.9957,-2.0244,-2.0349,-2.0256,-2.0304,-2.055,-1.7914,-1.8187,-2.1213,-2.2921,-2.3478,-2.31,-2.439,-2.4487,-2.3673,-2.3717,-2.3476,-2.3093,-2.3105,-2.3359,-2.3685,-2.326,-2.3622,-2.4294,-2.3874,0.0,0.0,0.0,0.0,0.0,0.0,0.0,-2.513,-2.5949,-2.5907,-2.618,-2.8846,-3.0309,-2.9271,-2.1734,-1.32,-0.5863,-0.2556,-0.4602,-0.7236,-0.703,-0.9356,-1.0585,-0.7958,-1.0573,-1.3363,-1.3838,-1.7364,-1.8919,-1.5663,-1.823,-1.9066,-1.53,-1.8001,-2.1449,-2.472,-2.5135,-2.5102,-2.4835,-2.4818,-2.1615,-1.4213,-0.9938,-0.6115,-0.2656,-0.2292,-0.0826,0.1971,-0.199,-0.3238,-0.1613,-0.0627,-0.0713,-0.1676,0.1477,0.396,0.5805,0.7334,0.842,0.9372,1.0248,1.1937,1.4053,1.5201,1.6349,1.7482,1.8259,1.8921,1.953,0.0,0.0,0.0,0.0,0.0,0.0,0.0,0.0,0.0,0.0,0.0,0.0,0.0,0.0,0.0,0.0,0.0,0.0,0.0,0.0,0.0,-1.9313,-1.9486,-1.9818,-2.0458,-1.9428,-1.8965,-1.9182,-1.3892,-1.3915,-1.9018,-2.1578,-2.2751,-2.2792,-2.4801,-2.5291,-2.4592,-2.4605,-2.4184,-2.3521,-2.3535,-2.3965,-2.4546,-2.3828,-2.4431,-2.5603,-2.4888,-2.5044,-2.5626,-2.5604,0.0,0.0,0.0,0.0,-2.5727,-2.6385,-2.6242,-2.6611,-2.9889,-2.9181,-2.5488,-1.6998,-0.5796,0.3062,0.2826,0.2431,0.2273,0.3134,-0.1004,-0.3303,0.1536,-0.2458,-0.6643,-0.724,-1.2249,-1.4154,-0.8558,-1.274,-1.4216,-0.8564,-1.2712,-1.6521,-1.774,-1.7621,-1.7426,-1.7352,-1.734,-1.411,-0.6698,-0.632,-0.3409,0.2857,0.2957,0.2418,0.1612,0.0895,-0.0358,-0.197,-0.2149,-0.1857,-0.1209,0.1376,0.3522,0.5151,0.643,0.7766,0.9069,0.9145,1.1057,1.4053,1.4419,1.5773,1.7628,1.793,1.8345,1.8934,0.0,0.0,0.0,0.0,0.0,0.0,0.0,0.0,0.0,0.0,0.2762,0.0,0.0,0.0,0.0,0.0,0.0,0.0,0.0,0.0,0.0,-1.6352,-1.6637,-1.7863,-2.0269,-1.5851,-1.3514,-1.3482,-0.9043,-0.7089,-0.7634,-1.3511,-1.6122,-1.62,-2.2769,-2.5578,-2.5369,-2.5424,-2.5364,-2.5278,-2.5263,-2.5377,-2.5505,-2.5405,-2.5503,-2.5672,-2.5579,-2.5595,-2.5673,-2.5613,-2.5604,0.0,0.0,0.0,-2.561,-2.5667,-2.6144,-2.6887,-2.7984,-2.2029,-1.4395,-0.9806,-0.2722,0.3062,0.2826,0.2746,0.2746,0.2824,0.1778,0.1304,0.2968,0.165,0.0394,0.063,-0.0869,-0.169,-0.0587,-0.1572,-0.174,0.0,-0.1277,-0.4284,-0.9524,-1.051,-1.0653,-1.0211,-1.0204,-0.6964,0.043,0.0955,0.1491,0.2332,0.1881,0.1343,0.0628,0.0,-0.1074,-0.2777,-0.3317,-0.2722,-0.0928,0.042,0.1655,0.2984,0.5294,0.703,0.8309,0.8456,0.9442,1.1019,1.3404,1.4554,1.5122,1.7217,1.8221,1.8518,0.0,0.0,0.0,0.0,0.0,0.0,0.0,0.0,0.0,0.0,0.0,-0.1023,0.0,0.0,0.0,0.0,0.0,0.0,0.0,0.0,0.0,-1.1768,-1.4502,-1.471,-1.1841,-1.2251,-1.1091,-0.8187,-0.3236,-0.0696,-0.0558,-0.3973,-0.7166,-1.0156,-1.3428,-1.493,-1.5245,-1.8729,-2.0281,-2.0689,-2.419,-2.3758,-2.1324,-2.4462,-2.3708,-2.1379,-2.4447,-2.5577,-2.564,-2.556,-2.5565,-2.5595,-2.5595,0.0,0.0,0.0,-2.5829,-2.5861,-2.465,-1.9185,-1.2914,-0.9052,-0.2693,0.2511,0.2353,0.2275,0.2431,0.3057,0.2508,0.2117,0.2744,0.2372,0.2,0.2189,0.172,0.1413,0.1531,0.1365,0.1284,0.1384,0.1212,-0.0084,-0.3039,-0.34,-0.3398,-0.3244,-0.3165,-0.1928,0.0789,0.1233,0.1062,0.0627,0.0358,-0.0268,-0.1254,-0.1415,-0.2098,-0.3199,-0.3286,-0.2911,-0.2014,0.0165,0.154,0.2296,0.4784,0.6707,0.808,0.8232,0.9357,1.1292,1.2611,1.3973,1.5379,1.6305,1.7149,1.7815,0.0,0.0,0.0,0.0,0.0,0.0,0.0,0.0,0.0,0.0,0.0,0.0,0.0,0.0,0.0,0.0,0.0,0.0,0.0,0.0,0.0,-0.8407,-1.1379,-1.0848,-0.6091,-0.7689,-0.6658,-0.2765,0.3106,0.589,0.5794,0.5336,0.2836,-0.1391,-0.513,-0.6855,-0.7253,-1.1889,-1.3913,-1.4417,-1.8952,-1.8244,-1.492,-1.9014,-1.8057,-1.5257,-2.0871,-2.3039,-2.3494,-2.5006,-2.5549,-2.5581,-2.5595,-2.56,0.0,0.0,0.0,-2.4886,-2.1783,-1.8178,-1.4083,-0.9107,-0.3745,0.0591,0.1475,0.1803,0.2117,0.2899,0.2508,0.2196,0.2431,0.2275,0.2129,0.2249,0.2094,0.1948,0.2077,0.2,0.1671,0.0925,0.1178,0.1093,0.0337,0.0841,0.1009,0.0588,0.084,0.0592,-0.0258,-0.0086,-0.026,-0.0792,-0.088,-0.1409,-0.2555,-0.2689,-0.2902,-0.3025,-0.3023,-0.2929,-0.2579,0.0245,0.1518,0.1794,0.4377,0.6247,0.7544,0.7927,0.9271,1.1199,1.1957,1.3425,1.5088,1.5436,1.6044,1.6677,0.0,0.0,0.0,0.0,0.0,0.0,0.0,0.0,0.0,0.0,0.0,0.0,-0.3439,-0.7656,-0.9867,-0.7897,0.0,0.0,0.0,0.0,0.0,-0.7916,-0.627,0.0,-0.8364,-0.1493,0.2397,0.3055,0.9836,1.2988,1.2702,1.3724,1.3743,1.2246,-0.17,-0.7705,-0.7384,-0.7794,-0.7891,-0.7762,-0.7649,-0.7251,-0.6788,-0.68,-0.6881,-0.7749,-1.385,-1.6377,-1.7757,-2.3628,-2.5547,-2.5515,-2.5585,-2.5609,-2.5591,0.0,0.0,0.0,-2.0354,-1.8585,-1.6037,-0.8178,-0.5445,-0.374,0.0075,0.1412,0.1882,0.196,0.2353,0.2668,0.2511,0.2195,0.204,0.2435,0.2121,0.198,0.219,0.1872,0.1312,0.0503,0.0589,0.0252,-0.1008,0.0,0.0252,-0.1008,-0.0504,-0.042,-0.1094,-0.1092,-0.1093,-0.118,-0.1431,-0.1852,-0.2611,-0.3453,-0.3281,-0.2102,-0.2772,-0.2574,-0.1626,0.0486,0.1279,0.1093,0.3832,0.5401,0.6093,0.7306,0.8228,0.9074,1.152,1.238,1.2544,1.479,1.5216,1.4916,0.0,0.0,0.0,0.0,0.0,0.0,0.0,0.0,0.0,0.0,0.0,0.0,0.0,-0.9338,-0.9673,-0.7712,-0.6254,0.0,0.0,0.0,0.0,-0.0839,-0.175,-0.0365,0.3707,0.3255,0.4813,0.8547,1.1781,1.2758,1.164,1.3608,1.3682,1.1985,0.8047,0.6096,0.5541,0.2229,0.0203,-0.1073,-0.3906,-0.3441,-0.1429,-0.4729,-0.3765,-0.1509,-0.8127,-1.0884,-1.225,-1.7929,-2.0452,-2.1725,-2.4715,-2.5632,-2.56,-2.5605,-2.557,-2.4591,-2.0322,-1.8976,-1.7432,-1.175,-0.7773,-0.4931,-0.3664,-0.0439,0.2038,0.1097,0.141,0.1568,0.0705,0.1489,0.2117,0.1568,0.196,0.2045,0.1427,0.127,0.0955,0.0401,-0.0241,-0.0724,-0.0966,-0.0564,-0.0403,-0.0644,-0.0241,-0.0648,-0.1808,-0.1396,-0.1488,-0.2434,-0.21,-0.2251,-0.2874,-0.2795,-0.253,-0.2092,-0.2012,-0.1764,-0.1351,0.0872,0.1811,0.1638,0.399,0.5401,0.6167,0.7015,0.7859,0.8627,1.0201,1.1211,1.1918,1.3512,1.4332,1.4692,0.0,0.0,0.0,0.0,0.0,0.0,0.0,0.0,0.0,-0.8949,0.0,0.0,0.0,0.0,-0.7919,-0.7441,-0.6089,-0.4907,-0.4034,-0.0924,0.1585,0.3191,0.0288,0.2061,0.9395,0.4898,0.5423,1.1471,1.2634,1.2568,1.1313,1.3672,1.3785,1.212,1.3868,1.3921,1.2435,0.9228,0.7152,0.5725,0.2989,0.3312,0.5108,0.1761,0.2644,0.481,-0.1975,-0.4848,-0.6313,-1.2172,-1.4998,-1.6597,-1.9928,-2.2129,-2.3775,-2.5214,-2.5621,-2.4979,-2.2131,-2.1355,-2.0294,-1.5924,-1.2382,-0.9292,-0.652,-0.2898,-0.0074,0.031,0.1097,0.1411,0.047,0.1646,0.2196,0.0627,0.1019,0.1175,0.047,0.047,0.0313,-0.0157,-0.0627,-0.0941,-0.1177,-0.0864,-0.0628,-0.0863,-0.0471,-0.0869,-0.2086,-0.1685,-0.1778,-0.246,-0.2464,-0.2446,-0.2647,-0.2648,-0.2468,-0.2117,-0.1727,-0.1256,-0.0785,0.133,0.2266,0.234,0.4302,0.5479,0.5935,0.6791,0.7557,0.8313,0.9377,1.0268,1.1223,1.2557,1.3349,1.3988,0.0,0.0,0.0,0.0,0.0,0.0,0.0,0.0,-0.678,-0.9339,0.0,0.0,0.0,0.0,0.0,-0.7018,-0.7248,-0.6213,-0.3663,0.0605,0.3098,0.3234,0.0,0.0,0.6739,0.3289,0.4675,1.1323,1.2672,1.2973,1.2403,1.4678,1.5005,1.3713,1.4845,1.4063,1.1861,1.2422,1.2478,1.2351,1.3507,1.3487,1.2814,1.3427,1.2925,1.1026,0.4633,0.1803,0.011,-0.6748,-0.9579,-1.046,-1.1339,-1.5147,-2.0115,-2.4292,-2.5557,-2.5609,0.0,0.0,0.0,-2.0354,-1.9182,-1.6914,-0.8597,-0.6046,-0.4347,-0.0455,0.1486,0.235,0.2117,0.2589,0.2196,-0.0235,-0.0548,-0.0548,-0.0548,-0.047,-0.0627,-0.1254,-0.0549,-0.0549,-0.1725,-0.0785,-0.0549,-0.1725,-0.1256,-0.1178,-0.1803,-0.2038,-0.1882,-0.1332,-0.2196,-0.251,-0.196,-0.3136,-0.3136,-0.1882,-0.1882,-0.1175,0.0078,0.1721,0.2657,0.2888,0.4771,0.5479,0.5395,0.6475,0.7238,0.7914,0.9135,0.976,1.0286,1.1888,1.247,1.2669,0.0,0.0,0.0,0.0,0.0,0.0,0.3278,-0.0157,-0.3044,0.0,0.0,0.0,-0.3269,-0.2031,-0.1511,-0.2201,-0.0749,0.0475,0.1107,0.0075,-0.0591,-0.065,-0.4082,-0.5086,-0.3147,0.0193,0.2937,0.5087,1.0669,1.2708,1.1496,1.3913,1.4277,1.3076,1.4124,1.3944,1.2866,1.388,1.3839,1.3231,1.476,1.4859,1.4028,1.42,1.4101,1.3331,0.9634,0.7511,0.5448,-0.0835,-0.4091,-0.6309,-1.0487,-1.5259,-1.9507,-2.0659,-2.3218,0.0,-2.5613,0.0,0.0,0.0,0.0,0.0,-1.5992,-1.0635,-0.5944,-0.512,-0.2015,0.0306,-0.0624,0.0156,0.0469,-0.0627,0.0078,0.047,-0.0313,-0.1094,-0.1565,-0.1332,-0.1725,-0.1804,-0.1256,-0.0864,-0.0628,-0.0549,-0.0393,-0.055,-0.1178,-0.1256,-0.1178,-0.102,-0.1256,-0.1805,-0.2511,-0.1961,-0.1804,-0.1882,-0.0706,0.0078,0.0471,0.2193,0.2974,0.3129,0.4543,0.5168,0.516,0.6398,0.7246,0.7931,0.8993,0.9617,1.0069,1.1553,1.2539,1.3263,0.0,0.0,0.0,0.0,0.0,0.444,0.4076,0.0804,-0.1833,0.0,0.0,0.0,0.2293,0.191,0.1506,0.1452,0.271,0.3532,0.3618,0.1109,-0.0373,-0.0396,-0.7318,-0.9864,-0.7063,-0.4176,-0.1118,0.2099,0.8436,1.1025,1.0056,1.2686,1.3113,1.1771,1.3037,1.3373,1.3005,1.3356,1.3325,1.3128,1.4884,1.4927,1.3999,1.4611,1.4413,1.3645,1.2025,1.0492,0.8751,0.4794,0.1736,-0.1328,-0.7009,-1.1,-1.4279,-1.8121,-2.103,0.0,0.0,0.0,0.0,-2.5507,0.0,0.0,-1.9866,-1.5784,-1.1366,-0.8054,-0.495,-0.2476,-0.1004,0.0078,0.0782,0.0627,0.094,0.0861,-0.0078,-0.1016,-0.1409,-0.0705,-0.1724,-0.1883,-0.055,-0.0707,-0.0629,-0.0079,0.0,-0.0236,-0.0864,-0.1178,-0.1178,-0.0943,-0.1178,-0.1648,-0.2275,-0.1569,-0.1255,-0.1489,-0.0235,0.0706,0.1334,0.243,0.3136,0.3604,0.4467,0.4932,0.524,0.6167,0.7011,0.7778,0.8694,0.9451,1.0081,1.1161,1.2046,1.2731,0.0,0.0,0.0,0.9615,0.7105,0.4896,0.4153,0.1468,-0.0782,0.0,0.1965,0.6052,0.9954,0.6893,0.4531,0.46,0.4601,0.4734,0.5121,0.2469,0.0921,0.1051,-1.0765,-1.473,-0.9071,-0.9196,-0.6169,0.0326,0.6028,0.8717,0.858,1.1206,1.167,1.0324,1.1859,1.2522,1.2414,1.1751,1.1835,1.2539,1.4098,1.4223,1.3534,1.4782,1.4413,1.3202,1.2617,1.1666,1.0438,0.9227,0.6857,0.3425,-0.185,-0.4369,-0.6944,-1.5314,-1.8396,0.0,0.0,0.0,0.0,-2.5529,-2.5507,0.0,-2.1647,-2.0646,-1.8207,-1.052,-0.8189,-0.605,-0.1453,0.0,0.0749,0.1591,0.0915,0.0308,0.0156,-0.0469,-0.0627,0.0157,-0.094,-0.1255,0.0079,-0.0471,-0.0629,-0.0157,-0.0079,-0.0314,-0.0864,-0.1491,-0.1569,-0.1021,-0.1491,-0.1725,-0.1646,-0.1568,-0.1254,-0.0862,-0.0157,0.0862,0.2118,0.2668,0.3295,0.4001,0.4467,0.4854,0.524,0.5931,0.67,0.7544,0.8394,0.9306,1.0218,1.0812,1.1254,1.17,0.0,0.0,1.0186,1.0151,0.9852,0.9595,0.9421,0.8757,0.8157,0.7924,0.878,0.9668,1.0312,0.961,0.9062,0.8919,0.8926,0.9014,0.9081,-0.0035,-0.5472,-0.5541,-1.6956,-2.2835,-2.1802,-1.3381,-0.8105,-0.6308,0.3481,0.841,0.8678,0.9732,1.0383,1.0638,1.1232,1.1557,1.1616,1.1375,1.1653,1.2368,1.3021,1.3904,1.4723,1.4926,1.5175,1.5152,1.3364,1.2107,1.0861,0.8596,0.6352,0.441,0.3043,-0.0569,-0.4746,-0.7401,-1.3075,-1.8778,-2.011,-2.3026,-2.5657,-2.5538,-2.5495,0.0,-2.4524,-2.2155,-1.9488,-1.719,-1.4057,-1.1359,-1.0163,-0.9008,-0.7511,-0.5366,-0.4075,-0.2329,0.0617,0.0078,-0.0549,-0.0235,-0.0471,-0.055,-0.0471,-0.055,-0.0707,-0.0707,-0.0707,-0.0786,-0.0864,-0.1021,-0.1256,-0.1725,-0.1334,-0.1334,-0.1803,-0.1177,-0.0785,-0.0628,0.0628,0.1414,0.1728,0.2823,0.3294,0.3374,0.4153,0.454,0.4693,0.5928,0.6853,0.7557,0.8394,0.9236,0.9992,1.0293,1.1174,1.2271,1.0164,1.0282,1.0325,1.0298,1.0394,1.0495,1.0495,1.0495,1.0457,1.0351,1.0505,1.039,0.9755,1.003,1.0153,0.986,1.0082,1.0321,1.0478,0.1877,-0.3173,-0.303,-1.2142,-1.7233,-1.7318,-0.9821,-0.5553,-0.4807,0.3348,0.7517,0.7913,0.8981,0.9549,0.9691,0.9821,1.0272,1.0825,1.0219,1.0492,1.1462,1.2857,1.4123,1.5148,1.5569,1.5429,1.4824,1.381,1.2446,1.0938,0.87,0.695,0.5603,0.4651,0.1995,-0.1365,-0.4351,-0.9967,-1.5853,-1.8517,-2.2408,-2.5682,-2.5619,-2.555,0.0,0.0,-2.47,-2.2732,-2.0153,-1.8032,-1.582,-1.314,-1.2121,-1.1167,-0.9527,-0.9309,-0.7704,-0.2813,-0.0812,0.0313,0.0863,0.0157,-0.0235,0.0471,-0.0471,-0.1177,-0.1412,-0.1649,-0.1884,-0.1884,-0.1884,-0.1804,-0.1724,-0.1099,-0.0785,-0.0784,0.0,0.0314,0.0392,0.1412,0.1962,0.2042,0.2902,0.3217,0.3141,0.3841,0.4229,0.4462,0.5467,0.6395,0.7326,0.8403,0.9241,0.9771,1.0067,1.0657,1.1391,1.0397,1.0341,1.0225,1.0157,1.0088,1.001,0.9961,1.0166,1.0244,1.0118,1.0488,1.0443,0.9715,1.0331,1.0739,1.0458,1.0681,1.0874,1.098,0.4734,0.1112,0.1216,-0.5523,-0.9245,-0.9224,-0.4999,-0.2315,-0.1361,0.3827,0.6563,0.6972,0.8302,0.8645,0.8155,0.8508,0.9082,0.9702,0.9074,0.9497,1.073,1.2671,1.3873,1.4634,1.5453,1.5056,1.3977,1.3814,1.2526,1.0714,0.9246,0.7879,0.6627,0.5246,0.3883,0.2044,-0.2202,-0.6805,-1.1443,-1.5533,-1.9748,-2.3237,-2.4165,-2.4297,-2.4598,0.0,0.0,0.0,-2.2106,-2.1373,-2.0099,-1.588,-1.5114,-1.4448,-1.2457,-1.3228,-1.1927,-0.5755,-0.1711,0.0838,0.1525,0.0465,0.0078,0.1007,-0.0541,-0.1707,-0.2037,-0.2489,-0.2798,-0.2824,-0.2668,-0.2275,-0.1568,-0.0785,-0.0079,0.0471,0.11,0.1335,0.1333,0.2038,0.243,0.2666,0.3061,0.3376,0.3452,0.3684,0.4073,0.4618,0.5085,0.586,0.6865,0.825,0.9094,0.9544,0.9922,1.0067,1.0368,1.0088,0.9873,0.9667,0.9597,0.9725,0.9734,0.9439,0.9922,1.0244,1.0118,1.1204,1.1966,1.1875,1.279,1.3456,1.3383,1.3076,1.2508,1.164,0.5795,0.183,0.067,-0.5432,-0.8951,-0.9285,-0.4759,-0.201,-0.1209,0.3275,0.5769,0.6317,0.702,0.6933,0.6215,0.8165,0.8552,0.779,0.8735,0.9958,1.1189,1.1525,1.1935,1.2461,1.2816,1.3354,1.379,1.3083,1.1793,1.0312,0.9985,0.8633,0.71,0.6317,0.5351,0.4173,0.2295,-0.1275,-0.494,-0.6625,-1.0108,-1.4324,-1.8689,-1.9612,-2.0584,-2.4789,0.0,-2.5511,-2.5018,0.0,-2.4692,-2.3917,0.0,0.0,-1.5065,-1.3365,-1.0377,-0.3261,-0.1173,-0.0478,-0.0547,0.0223,0.0308,-0.081,-0.1247,-0.187,-0.2659,-0.2789,-0.2772,-0.282,-0.2275,-0.1803,-0.1332,-0.0157,0.0707,0.1178,0.1415,0.1572,0.1571,0.2508,0.2976,0.3054,0.3684,0.4309,0.4771,0.4073,0.4309,0.5243,0.5243,0.555,0.617,0.7399,0.8403,0.9099,0.9322,0.9771,1.0293,1.0185,0.9922,0.9799,1.008,1.0045,0.9972,0.988,0.9932,0.9862,0.9616,1.0178,1.0581,1.0455,1.0727,1.1097,1.1654,1.1359,1.0903,1.0337,0.7847,0.5791,0.4567,0.1864,0.0305,0.0086,0.1762,0.2846,0.3337,0.4926,0.5878,0.6209,0.6376,0.6458,0.6511,0.7042,0.7542,0.7872,0.7932,0.8506,0.9395,0.9845,1.0083,1.0367,1.2182,1.2702,1.2344,1.1811,1.11,1.0347,0.992,0.8818,0.7539,0.711,0.5761,0.4127,0.3506,-0.0326,-0.4532,-0.512,-0.8659,-1.261,-1.451,-1.7303,-1.9968,-2.1394,-2.4068,-2.6093,-2.555,0.0,0.0,0.0,0.0,0.0,0.0,-1.5668,-1.3133,-0.9149,-0.6854,-0.4352,-0.1004,-0.0279,-0.036,-0.1016,-0.1714,-0.2219,-0.2585,-0.3536,-0.3908,-0.3368,-0.2746,-0.2275,-0.2038,-0.0549,0.047,0.0863,0.1569,0.2041,0.2119,0.2588,0.2823,0.2901,0.3374,0.3763,0.4148,0.3919,0.4075,0.4623,0.4623,0.5087,0.5938,0.6479,0.7169,0.7863,0.8546,0.9003,0.9458,1.0622,1.028,1.0045,1.0371,1.0297,1.0218,1.0203,0.9726,0.9315,0.9177,0.9571,0.9839,0.9843,0.9945,1.0319,1.1159,1.0953,1.0588,1.0134,0.9737,0.9075,0.8189,0.7396,0.6996,0.7121,0.6465,0.6213,0.6426,0.5878,0.574,0.5958,0.0,0.0,0.6,0.5968,0.6436,0.7138,0.6826,0.7211,0.7967,0.8558,0.8866,0.9301,1.154,1.1968,1.1144,1.0903,1.0739,1.047,0.9851,0.8921,0.8035,0.7504,0.6061,0.4469,0.4275,0.0988,-0.2556,-0.2728,-0.5467,-0.8641,-0.99,-1.3042,-1.6025,-1.6712,-1.9774,-2.2675,-2.3278,-2.3477,0.0,0.0,0.0,-2.0282,0.0,0.0,-1.5572,-1.2154,-1.0116,-0.7022,-0.1777,-0.1358,-0.1667,-0.1904,-0.2549,-0.2918,-0.2988,-0.4038,-0.4289,-0.3602,-0.2902,-0.2431,-0.2275,-0.0862,0.0157,0.0862,0.149,0.204,0.2511,0.2588,0.2744,0.3059,0.3295,0.3608,0.3995,0.3841,0.3997,0.4311,0.4155,0.4698,0.5628,0.5628,0.6015,0.663,0.7702,0.8313,0.8856,1.1387,1.0838,1.0301,1.0047,1.0264,1.0357,0.9984,0.9056,0.8578,0.8935,1.0011,1.0934,1.1461,1.2555,1.3437,1.3926,1.3721,1.3216,1.2258,1.1118,1.0342,1.0014,0.8017,0.7128,0.7688,0.6426,0.59,0.6,0.5183,0.4927,0.0,0.0,0.0,0.0,0.5206,0.5338,0.4515,0.5447,0.661,0.7774,0.7807,0.853,0.9675,1.0295,1.0658,1.0707,1.0707,1.0707,1.0555,0.9955,0.9308,0.8653,0.7356,0.6567,0.5981,0.5194,0.4444,0.3745,0.3303,0.2678,0.0899,-0.4075,-0.5069,-0.604,-1.0681,-1.1684,-1.2892,-1.7402,-1.843,-1.9905,-2.4383,-2.5206,-2.2586,0.0,0.0,0.0,0.0,-0.7852,-0.709,-0.3429,-0.3259,-0.3638,-0.4238,-0.4108,-0.4061,-0.4247,-0.3897,-0.3479,-0.2891,-0.2275,-0.1803,-0.1646,-0.094,0.0078,0.1568,0.1177,0.1492,0.2511,0.2663,0.3132,0.3763,0.3999,0.4467,0.5162,0.4231,0.4229,0.4927,0.4311,0.4465,0.5004,0.5004,0.516,0.5476,0.6791,0.7868,0.8703,1.0955,1.0665,1.0514,1.0719,1.0664,1.0487,0.9964,0.9165,0.8814,0.9431,0.9937,1.0454,1.1144,1.1294,1.1575,1.2151,1.1715,1.1261,1.0741,1.0108,0.9556,0.915,0.7506,0.6944,0.7537,0.6334,0.5506,0.5148,0.4987,0.4483,0.0,0.0,0.0,0.0,0.3619,0.4094,0.4458,0.4759,0.5321,0.6039,0.6284,0.7104,0.8287,0.9686,1.0,0.9777,0.9951,0.9951,0.9927,0.97,0.9224,0.8595,0.7843,0.6921,0.5934,0.5305,0.4332,0.3411,0.3389,0.2725,0.1602,0.013,-0.3231,-0.6202,-0.6752,-0.9821,-1.2754,-1.3409,-1.6034,-1.791,-1.6857,-1.932,0.0,0.0,0.0,0.0,0.0,-0.9743,-0.8278,-0.7063,-0.4816,-0.3331,-0.3212,-0.3554,-0.3586,-0.311,-0.3362,-0.3519,-0.3443,-0.2824,-0.2511,-0.2589,-0.1332,-0.0392,0.0157,0.1097,0.1648,0.1885,0.2117,0.243,0.2981,0.3139,0.3528,0.407,0.3761,0.3839,0.4151,0.3997,0.4231,0.4776,0.4776,0.501,0.5398,0.6244,0.7088,0.808,1.057,1.0475,1.0494,1.075,1.041,0.991,0.9407,0.8637,0.8379,0.9242,0.9279,0.964,1.0691,1.0486,1.0538,1.1049,1.0765,1.0378,0.9943,0.9717,0.9452,0.9215,0.7711,0.7212,0.795,0.627,0.5156,0.4661,0.4436,0.3891,0.0,0.0,0.0,0.0,0.246,0.2901,0.3557,0.3469,0.3982,0.4909,0.5385,0.6083,0.6953,0.819,0.8727,0.8897,0.8939,0.9161,0.9345,0.9432,0.9262,0.8737,0.7908,0.7133,0.6423,0.5687,0.4658,0.3757,0.3957,0.3158,0.2271,0.2273,-0.0671,-0.3285,-0.2133,-0.4828,-0.7649,-0.8229,-1.0902,-1.2813,-1.1669,-1.4515,0.0,0.0,0.0,0.0,0.0,-1.3027,-1.1778,-0.9036,-0.592,-0.38,-0.3184,-0.4179,-0.414,-0.2318,-0.3247,-0.3647,-0.3167,-0.2888,-0.2826,-0.2904,-0.1646,-0.0705,-0.0157,0.0863,0.1491,0.1805,0.1648,0.1883,0.2511,0.2668,0.2902,0.3372,0.3448,0.3604,0.3684,0.3763,0.4153,0.4701,0.4701,0.5012,0.5476,0.578,0.6395,0.7395,1.0271,1.0144,1.0091,1.0148,0.9392,0.8708,0.8313,0.7551,0.7408,0.8403,0.8349,0.8808,1.0299,1.039,1.0573,1.0947,1.1083,1.0748,1.0064,0.998,1.0007,1.0223,0.8416,0.7855,0.868,0.6261,0.4839,0.4516,0.3511,0.3074,0.0,0.0,0.0,0.0,0.1676,0.1798,0.1891,0.1745,0.2773,0.4415,0.526,0.5576,0.5614,0.58,0.6774,0.7895,0.7718,0.8193,0.8823,0.9082,0.917,0.8903,0.758,0.7228,0.7224,0.6349,0.5547,0.5051,0.5007,0.4212,0.3135,0.2526,0.245,0.2608,0.2752,0.2875,0.182,-0.2093,-0.347,-0.5211,-0.9172,-1.1326,0.0,0.0,0.0,0.0,0.0,-1.6741,-1.6572,-0.9244,-0.646,-0.489,-0.4149,-0.5751,-0.5378,-0.1909,-0.3544,-0.3841,-0.1959,-0.2471,-0.274,-0.2431,-0.1882,-0.0862,0.055,0.0393,0.0942,0.2118,0.1335,0.1492,0.2431,0.251,0.2746,0.3062,0.3372,0.3448,0.3526,0.3684,0.4153,0.4701,0.4701,0.5012,0.5559,0.5398,0.5864,0.6714,0.9053,0.8797,0.8407,0.7937,0.7941,0.7923,0.7743,0.7682,0.798,0.8837,0.9543,1.0198,1.0894,1.1218,1.1313,1.0958,1.0965,1.0655,0.9948,0.9403,0.9174,0.9383,0.7642,0.6866,0.7403,0.545,0.4047,0.3357,0.2664,0.1712,0.0464,0.0,0.0,0.0,0.0134,0.0831,0.1749,0.1091,0.1758,0.3385,0.3425,0.3718,0.4026,0.3629,0.4008,0.505,0.5891,0.6514,0.6956,0.7665,0.7753,0.7397,0.7401,0.7048,0.6609,0.5997,0.5552,0.5144,0.4335,0.3764,0.3198,0.2382,0.1882,0.1787,0.2466,0.245,0.2127,0.1339,-0.1627,-0.4495,-0.5795,-0.9645,-1.1259,0.0,0.0,0.0,0.0,-1.1535,-0.992,-0.8286,-0.5301,-0.3442,-0.3559,-0.4004,-0.3702,-0.2391,-0.2793,-0.2725,-0.1731,-0.2834,-0.2941,-0.1883,-0.1176,-0.0784,-0.055,0.0707,0.11,0.0785,0.1257,0.165,0.2043,0.2354,0.2589,0.2668,0.3061,0.3217,0.3217,0.3606,0.4075,0.4462,0.4462,0.4776,0.5249,0.6022,0.6405,0.6637,0.8033,0.7788,0.7373,0.6667,0.7303,0.7754,0.7284,0.7035,0.7323,0.8523,0.9168,0.9713,1.0318,1.0996,1.1192,1.0783,1.0708,1.0256,0.9176,0.9071,0.8796,0.8168,0.7245,0.6866,0.7101,0.541,0.408,0.3042,0.2438,0.1289,-0.0268,0.0,0.0,0.0,-0.0873,-0.0344,0.0359,0.0519,0.1327,0.2404,0.2455,0.266,0.0,0.2578,0.2739,0.3295,0.4082,0.4828,0.5711,0.6334,0.6602,0.6602,0.6599,0.6514,0.6343,0.5816,0.5604,0.5269,0.446,0.3863,0.3197,0.2523,0.186,0.1606,0.2234,0.2368,0.2505,0.2904,0.0938,-0.0811,-0.0684,-0.3905,-0.6034,0.0,0.0,0.0,-1.0085,-1.0004,-0.931,-0.8198,-0.6458,-0.4928,-0.3831,-0.3784,-0.3331,-0.2321,-0.3223,-0.348,-0.253,-0.3371,-0.331,-0.2051,-0.1396,-0.0862,-0.0393,0.0471,0.0863,0.0864,0.1257,0.165,0.1887,0.2198,0.2353,0.2431,0.2904,0.3062,0.2982,0.3608,0.4075,0.4462,0.4696,0.4854,0.4935,0.5709,0.6018,0.6093,0.7214,0.7136,0.6861,0.616,0.7141,0.7805,0.7095,0.6502,0.6625,0.8117,0.8336,0.8674,0.9423,1.0338,1.0768,1.0555,1.0555,0.9811,0.8167,0.8879,0.8657,0.6923,0.7041,0.71,0.6994,0.5702,0.4356,0.3095,0.2304,0.1107,0.0,0.0,0.0,0.0,-0.1545,-0.1435,-0.1341,0.0152,0.1114,0.172,0.1965,0.2201,0.2424,0.2244,0.2334,0.2424,0.2424,0.3403,0.4732,0.5092,0.5539,0.5897,0.545,0.5716,0.616,0.5703,0.5539,0.5454,0.4991,0.4093,0.3162,0.2671,0.1993,0.1641,0.1985,0.2356,0.2735,0.3113,0.3227,0.3407,0.3991,0.2697,0.0977,0.0,-0.3818,-0.613,-0.6241,-0.9171,-1.0321,-0.7681,-0.7695,0.0,-0.4399,-0.4235,-0.3766,-0.2301,-0.4221,-0.4892,-0.3685,-0.4077,-0.3752,-0.2643,-0.1917,-0.1097,-0.0157,0.0,0.047,0.1335,0.1336,0.1572,0.1964,0.2119,0.2196,0.2196,0.2747,0.2904,0.2826,0.345,0.3997,0.4462,0.5087,0.5087,0.4779,0.5165,0.5321,0.5321,0.7075,0.6996,0.677,0.6168,0.6909,0.7564,0.7442,0.8175,0.8834,0.9,0.9322,0.9722,1.01,1.0289,1.0496,1.068,1.0696,0.999,0.8488,0.8545,0.796,0.6367,0.6298,0.6084,0.5542,0.4967,0.3778,0.2035,0.1098,-0.0352,0.0,0.0,0.0,0.0,-0.2283,-0.1656,-0.1015,0.0077,0.0964,0.1675,0.172,0.1937,0.2243,0.2243,0.2243,0.2243,0.2243,0.2422,0.2868,0.4117,0.4206,0.3939,0.483,0.5186,0.5171,0.4998,0.5391,0.5587,0.4641,0.3914,0.3145,0.2219,0.1653,0.1413,0.1641,0.2027,0.2338,0.2415,0.24,0.2441,0.2668,0.2226,0.1438,0.0379,-0.0861,-0.1463,-0.0874,-0.2227,-0.3212,-0.2896,-0.3074,-0.3439,-0.3805,-0.3932,-0.3949,-0.3807,-0.4721,-0.4768,-0.3671,-0.4408,-0.4369,-0.331,-0.2026,-0.1723,-0.2506,-0.0549,0.0235,-0.0235,0.1178,0.1885,0.2118,0.2354,0.2276,0.1964,0.2433,0.2589,0.2589,0.3061,0.3684,0.4462,0.5087,0.5168,0.5015,0.5404,0.5326,0.5171,0.6493,0.6501,0.6433,0.6343,0.7143,0.792,0.816,0.9169,0.9637,0.9148,0.9473,0.9774,0.9708,0.9841,0.9924,0.9927,0.9414,0.854,0.7485,0.7309,0.6779,0.5544,0.5547,0.5429,0.5112,0.4837,0.3716,0.1766,0.1049,-0.043,0.0,-0.235,0.0,-0.3094,-0.2453,-0.1681,-0.0876,0.0233,0.114,0.177,0.1918,0.2134,0.2334,0.2243,0.2244,0.2334,0.2334,0.2334,0.2333,0.3139,0.3496,0.3673,0.4206,0.4619,0.4833,0.4959,0.5119,0.517,0.4732,0.4179,0.357,0.2594,0.204,0.1727,0.1492,0.1805,0.2195,0.2038,0.2275,0.2397,0.2133,0.1552,0.0952,0.0331,-0.0195,-0.039,-0.0201,-0.046,-0.0963,-0.183,-0.1861,-0.2529,-0.4188,-0.3826,-0.3732,-0.4304,-0.4725,-0.474,-0.4106,-0.4326,-0.4224,-0.3753,-0.224,-0.1645,-0.1957,-0.047,0.0392,0.0549,0.1492,0.2042,0.2196,0.2431,0.2277,0.1887,0.2354,0.2353,0.2275,0.2979,0.3684,0.4309,0.4696,0.4776,0.4701,0.5012,0.5012,0.4935,0.6159,0.6196,0.6341,0.6677,0.7577,0.8396,0.8787,0.9677,1.0028,0.9361,0.9514,0.9698,0.945,0.9582,0.9598,0.941,0.8452,0.7485,0.6782,0.6425,0.5894,0.5099,0.5099,0.501,0.4921,0.4847,0.3813,0.1746,0.1155,-0.0147,-0.2189,0.0,0.0,-0.285,-0.23,-0.1435,-0.0445,0.0477,0.1326,0.1869,0.2121,0.2334,0.2513,0.2424,0.2424,0.2603,0.2603,0.2513,0.2424,0.2602,0.3048,0.358,0.374,0.4045,0.4504,0.4716,0.4755,0.47,0.4758,0.4446,0.3834,0.3214,0.2666,0.2195,0.1805,0.2118,0.243,0.2194,0.2431,0.2556,0.1854,0.1307,0.0783,0.0277,0.0,-0.027,-0.0555,-0.0412,-0.0742,-0.1919,-0.1972,-0.2642,-0.4515,-0.4013,-0.38,-0.4451,-0.4559,-0.4667,-0.4696,-0.4219,-0.3973,-0.42,-0.2492,-0.1543,-0.1464,-0.0468,0.047,0.1335,0.1729,0.2042,0.2275,0.2431,0.2277,0.1887,0.2199,0.2275,0.2117,0.3056,0.3763,0.4077,0.4151,0.4307,0.4462,0.4462,0.4621,0.4776,0.6746,0.6749,0.6823,0.7467,0.8094,0.8633,0.8677,0.9432,1.0188,1.0474,1.0393,1.023,1.023,1.0101,1.0033,1.0202,0.9327,0.8544,0.8021,0.7221,0.634,0.5371,0.5371,0.5193,0.475,0.4741,0.3843,0.2084,0.1035,-0.0304,-0.202,-0.2819,-0.2722,-0.1952,-0.179,-0.0818,0.0781,0.0903,0.1443,0.2084,0.2401,0.2513,0.2513,0.2784,0.2873,0.2873,0.2873,0.2873,0.2873,0.305,0.2871,0.2683,0.3066,0.3479,0.3879,0.3722,0.4234,0.4849,0.4506,0.4153,0.383,0.3754,0.3207,0.274,0.2898,0.3132,0.3212,0.3054,0.2743,0.2335,0.1745,0.1994,0.2003,0.0978,0.0597,0.0451,0.0462,-0.0656,-0.1544,-0.1793,-0.2552,-0.3352,-0.4025,-0.459,-0.4796,-0.4418,-0.4262,-0.4559,-0.536,-0.4199,-0.3976,-0.4853,-0.2699,-0.2122,-0.3433,-0.0996,0.0314,0.047,0.1413,0.212,0.251,0.251,0.2277,0.1887,0.1964,0.212,0.251,0.3372,0.3921,0.4079,0.3682,0.3995,0.4621,0.4068,0.4226,0.4701,0.6798,0.6663,0.6836,0.7398,0.7854,0.8342,0.8994,0.9588,1.0125,1.0381,1.0467,1.0554,1.0554,0.9941,0.9589,0.9676,0.8715,0.7753,0.7136,0.6691,0.5983,0.5188,0.5191,0.5013,0.475,0.4661,0.3947,0.2433,0.1362,0.0153,-0.1089,-0.1611,-0.1479,-0.0733,-0.0301,0.0313,0.1147,0.1777,0.2259,0.2572,0.2685,0.2784,0.2784,0.2873,0.2875,0.2875,0.2875,0.2875,0.2868,0.2919,0.2904,0.2898,0.3222,0.341,0.3492,0.3674,0.3941,0.4284,0.4555,0.4462,0.4304,0.4068,0.3754,0.3521,0.3288,0.3368,0.3368,0.3132,0.251,0.188,0.163,0.1311,0.1,0.0928,0.0611,0.0458,0.0547,-0.0229,-0.0899,-0.1193,-0.1715,-0.2421,-0.3366,-0.3783,-0.4361,-0.522,-0.5341,-0.5417,-0.5574,-0.4767,-0.4668,-0.5431,-0.2543,-0.1522,-0.2581,-0.031,0.0942,0.1099,0.165,0.2042,0.2353,0.2431,0.2354,0.2041,0.1807,0.212,0.2668,0.2902,0.3372,0.3921,0.3684,0.3995,0.4462,0.4226,0.4384,0.4701,0.697,0.684,0.7042,0.7671,0.7931,0.8268,0.9043,0.9432,0.9777,0.9951,1.0212,1.0386,1.0554,0.9937,0.9497,0.9497,0.854,0.7749,0.7221,0.6599,0.5983,0.5453,0.5188,0.4924,0.4661,0.4661,0.415,0.3082,0.2045,0.1021,0.0076,-0.0515,-0.037,0.0386,0.0792,0.1309,0.1785,0.2522,0.2835,0.2875,0.2875,0.2963,0.2962,0.2963,0.2963,0.2962,0.2963,0.2862,0.2841,0.2883,0.2928,0.2981,0.3238,0.3252,0.3245,0.3546,0.3734,0.3919,0.4309,0.4543,0.4543,0.4304,0.4304,0.4226,0.3917,0.3839,0.3839,0.3602,0.2823,0.2119,0.2119,0.1315,0.0693,0.0862,0.0619,0.0462,0.0392,-0.0156,-0.0693,-0.1051,-0.1526,-0.2203,-0.3113,-0.3431,-0.4183,-0.5494,-0.6129,-0.6093,-0.5233,-0.4557,-0.4367,-0.4706,-0.1957,-0.0844,-0.1607,0.0311,0.1415,0.1572,0.1808,0.2042,0.2196,0.2353,0.2353,0.2195,0.1962,0.2199,0.2826,0.2824,0.3214,0.3763,0.3606,0.3841,0.4309,0.407,0.4307,0.4621,0.7434,0.7501,0.7752,0.8463,0.856,0.8648,0.8911,0.8911,0.8999,0.9262,0.9349,0.9607,1.0207,1.0125,1.0033,1.0294,0.9419,0.8978,0.9144,0.7394,0.6428,0.634,0.5453,0.4924,0.4661,0.4661,0.4391,0.3855,0.3086,0.2262,0.1337,0.016,0.0237,0.1299,0.133,0.1871,0.2786,0.2847,0.2873,0.2875,0.2875,0.3051,0.3138,0.2962,0.3051,0.3138,0.2963,0.2835,0.287,0.3039,0.2869,0.2604,0.2849,0.2928,0.2915,0.3086,0.3452,0.3763,0.3841,0.4073,0.4462,0.4621,0.4701,0.4779,0.4937,0.5018,0.4937,0.4701,0.3995,0.3368,0.3368,0.2585,0.1647,0.1021,0.0707,0.0471,0.0079,-0.0693,-0.1275,-0.1459,-0.2502,-0.3231,-0.3409,-0.4089,-0.4659,-0.483,-0.6158,-0.6224,-0.4442,-0.334,-0.2613,-0.2247,-0.0946,-0.051,-0.0943,0.0536,0.1415,0.1572,0.1808,0.2042,0.2196,0.2196,0.2196,0.2196,0.2431,0.2589,0.2824,0.3292,0.3604,0.3763,0.3059,0.3374,0.3999,0.3368,0.3679,0.4462,0.8021,0.7874,0.7838,0.8093,0.8208,0.838,0.864,0.8995,0.917,0.9257,0.9262,0.9349,0.9607,0.9519,0.9519,0.9607,0.934,0.899,0.8544,0.7929,0.7228,0.6257,0.5902,0.5458,0.475,0.4661,0.4569,0.421,0.3346,0.2665,0.2134,0.1614,0.18,0.2551,0.274,0.2785,0.2935,0.3221,0.3229,0.3139,0.332,0.3408,0.3497,0.3408,0.3318,0.3227,0.3318,0.3127,0.2926,0.3054,0.2896,0.2655,0.2696,0.2734,0.2853,0.3069,0.3372,0.3682,0.3921,0.4077,0.4233,0.4462,0.4462,0.4618,0.4929,0.5007,0.4929,0.4776,0.3995,0.3368,0.3368,0.2898,0.2427,0.2194,0.1803,0.1412,0.1333,0.0234,-0.0619,-0.0691,-0.1437,-0.211,-0.2526,-0.3339,-0.4106,-0.4941,-0.5902,-0.5947,-0.4855,-0.3845,-0.307,-0.2536,-0.0978,-0.023,-0.0459,0.0701,0.1335,0.1415,0.1729,0.2042,0.2431,0.2431,0.2431,0.2431,0.251,0.2668,0.2984,0.3139,0.3452,0.3763,0.3528,0.3841,0.4307,0.407,0.4229,0.4621,0.8384,0.8208,0.812,0.812,0.8296,0.838,0.8556,0.8823,0.9003,0.9003,0.9003,0.9003,0.9003,0.9003,0.9087,0.9257,0.9262,0.9082,0.864,0.8285,0.7665,0.6782,0.6432,0.5816,0.5018,0.4926,0.4748,0.43,0.3664,0.3251,0.304,0.2783,0.2909,0.3252,0.3427,0.3366,0.3142,0.3499,0.3497,0.3406,0.3497,0.3676,0.3678,0.3587,0.3587,0.3497,0.3587,0.3392,0.3098,0.314,0.2996,0.2766,0.262,0.2657,0.2779,0.2992,0.3294,0.3604,0.3921,0.3999,0.3999,0.4231,0.4309,0.4387,0.4774,0.4849,0.4774,0.4779,0.4309,0.3917,0.3917,0.3522,0.3129,0.3054,0.2429,0.2038,0.2038,0.0706,-0.0156,-0.0153,-0.0993,-0.1603,-0.1983,-0.2553,-0.3252,-0.3935,-0.4671,-0.4624,-0.3684,-0.2743,-0.2058,-0.1716,-0.054,0.0078,0.0,0.0785,0.1178,0.1335,0.1806,0.2199,0.2511,0.2511,0.2511,0.2511,0.2589,0.2826,0.3141,0.3217,0.3452,0.3763,0.3763,0.3997,0.4309,0.4384,0.454,0.4779,0.8568,0.8568,0.8568,0.8568,0.8568,0.8568,0.8568,0.8568,0.8568,0.8568,0.8568,0.8568,0.8568,0.8568,0.874,0.9174,0.9262,0.9262,0.9262,0.8368,0.7834,0.7746,0.6956,0.6166,0.546,0.546,0.5102,0.4389,0.4036,0.3948,0.3859,0.3767,0.3587,0.3587,0.3676,0.3587,0.3587,0.3676,0.3676,0.3587,0.3676,0.3767,0.3946,0.3676,0.3767,0.3859,0.3676,0.3629,0.3481,0.3219,0.3089,0.3025,0.2714,0.2608,0.2669,0.3003,0.3295,0.3526,0.3763,0.3763,0.3843,0.4001,0.4079,0.4235,0.4545,0.4543,0.454,0.4859,0.4859,0.4701,0.4701,0.4226,0.3832,0.3524,0.2821,0.2273,0.2273,0.1019,0.0154,0.0147,-0.0877,-0.1609,-0.1681,-0.1901,-0.2087,-0.2178,-0.2733,-0.2577,-0.1325,-0.0437,0.0,0.0078,0.0236,0.0393,0.0628,0.0864,0.11,0.1335,0.1884,0.2275,0.2511,0.2511,0.2511,0.2511,0.2746,0.2982,0.3141,0.345,0.3684,0.3841,0.3841,0.3921,0.4155,0.4387,0.4618,0.4857,0.8568,0.8472,0.838,0.8564,0.8472,0.838,0.8564,0.8568,0.8568,0.8568,0.8568,0.8568,0.8568,0.8568,0.8656,0.874,0.874,0.874,0.874,0.856,0.8201,0.7573,0.7401,0.6871,0.6166,0.6166,0.5813,0.5102,0.4478,0.4123,0.3948,0.4034,0.3942,0.3587,0.3942,0.3942,0.3587,0.3944,0.4034,0.3857,0.4032,0.4121,0.421,0.4121,0.4034,0.3946,0.4123,0.3929,0.3559,0.365,0.3598,0.3358,0.3083,0.309,0.3152,0.3082,0.3141,0.3295,0.3684,0.3763,0.3841,0.3843,0.3999,0.4157,0.4235,0.4467,0.4621,0.4543,0.4779,0.4859,0.4701,0.4701,0.4701,0.4623,0.3761,0.3134,0.3134,0.2116,0.1483,0.1465,0.0771,0.0077,-0.0385,-0.0848,-0.145,-0.2079,-0.1926,-0.1556,-0.1185,-0.0218,0.037,0.047,0.0629,0.0786,0.0864,0.11,0.1415,0.1729,0.1886,0.212,0.2511,0.2511,0.2589,0.2746,0.2904,0.3295,0.3684,0.3843,0.4075,0.4229,0.4077,0.4155,0.4387,0.4929,0.524,0.547,0.8568,0.8476,0.8472,0.8568,0.838,0.8292,0.8564,0.8476,0.8384,0.8384,0.8564,0.8564,0.8472,0.8564,0.8568,0.8568,0.8568,0.8568,0.8568,0.8568,0.8388,0.8025,0.8025,0.7669,0.6959,0.6871,0.6428,0.5371,0.5015,0.4569,0.4123,0.421,0.4121,0.3942,0.421,0.4121,0.3942,0.421,0.421,0.4123,0.421,0.43,0.43,0.43,0.421,0.4123,0.421,0.4121,0.3944,0.3946,0.3827,0.3608,0.3222,0.3159,0.3162,0.3062,0.3166,0.3372,0.3606,0.3763,0.3763,0.3763,0.3921,0.4157,0.4233,0.4387,0.4543,0.4543,0.4701,0.4857,0.4701,0.4859,0.5018,0.5018,0.4349,0.3791,0.383,0.295,0.2246,0.2271,0.1726,0.1255,0.0862,0.0314,-0.0233,-0.0529,-0.0527,-0.0527,-0.0301,0.0301,0.061,0.0628,0.0707,0.0786,0.0864,0.1178,0.1493,0.1887,0.1963,0.2199,0.2511,0.2511,0.2589,0.2826,0.2984,0.3295,0.3684,0.3999,0.4155,0.4231,0.4231,0.4309,0.4462,0.516,0.547,0.5777,0.8568,0.8568,0.8568,0.8568,0.8384,0.838,0.8564,0.8384,0.8288,0.8288,0.8472,0.8476,0.8292,0.8472,0.8568,0.8568,0.8568,0.8568,0.8568,0.8568,0.8568,0.8568,0.8568,0.8296,0.7669,0.7577,0.6871,0.5725,0.5638,0.5191,0.4387,0.4476,0.4389,0.421,0.43,0.43,0.43,0.43,0.4387,0.4478,0.4478,0.4478,0.4478,0.4478,0.4478,0.4478,0.4478,0.4478,0.4478,0.4302,0.4214,0.4022,0.3596,0.3479,0.3358,0.3225,0.3452,0.3698,0.3684,0.3839,0.4073,0.4073,0.4231,0.4387,0.4462,0.4538,0.454,0.4621,0.4698,0.4701,0.4701,0.4857,0.501,0.4913,0.4688,0.4437,0.4428,0.3532,0.2989,0.3052,0.251,0.2116,0.2116,0.1412,0.1099,0.1335,0.0707,0.0393,0.0628,0.0786,0.0786,0.0629,0.0707,0.0786,0.0943,0.1178,0.1415,0.1887,0.2041,0.2196,0.2431,0.2431,0.2589,0.2826,0.3062,0.3372,0.3759,0.3999,0.4235,0.4467,0.454,0.4616,0.4846,0.5622,0.5854,0.6086,0.8568,0.8568,0.8568,0.8568,0.8564,0.8564,0.8568,0.8564,0.8564,0.8564,0.8568,0.8568,0.8564,0.8568,0.8568,0.8568,0.8568,0.8568,0.8568,0.8568,0.8568,0.8568,0.8568,0.8564,0.8388,0.7845,0.7401,0.7136,0.652,0.5808,0.4921,0.5102,0.4748,0.3946,0.4212,0.43,0.43,0.43,0.4656,0.5193,0.5193,0.5193,0.5193,0.5193,0.5193,0.5193,0.5193,0.5193,0.5282,0.5811,0.5455,0.4919,0.5166,0.51,0.4918,0.4538,0.4512,0.4654,0.4328,0.4771,0.5312,0.5312,0.5315,0.5315,0.5002,0.5007,0.5007,0.454,0.4621,0.4701,0.4701,0.501,0.5132,0.4725,0.4928,0.4955,0.4422,0.4241,0.4133,0.4148,0.3602,0.3134,0.3134,0.2116,0.149,0.1568,0.0942,0.055,0.0628,0.0786,0.0864,0.0864,0.11,0.1178,0.1257,0.1021,0.1178,0.165,0.165,0.1884,0.2275,0.2275,0.2511,0.3062,0.3062,0.3763,0.4771,0.4309,0.4935,0.6173,0.5398,0.5544,0.6234,0.6938,0.7173,0.7326,0.9082,0.8828,0.8568,0.8568,0.8476,0.8472,0.8568,0.8476,0.8384,0.8384,0.8476,0.8564,0.8384,0.8476,0.8568,0.8568,0.8568,0.8568,0.8568,0.8568,0.8652,0.874,0.8652,0.8568,0.8568,0.8296,0.7937,0.7489,0.7136,0.6605,0.5719,0.5899,0.5725,0.5277,0.5364,0.5453,0.5453,0.5453,0.5633,0.5899,0.5899,0.5899,0.5899,0.5899,0.5899,0.5899,0.5899,0.5899,0.5988,0.6254,0.6074,0.5808,0.5894,0.5855,0.5686,0.5325,0.5065,0.4841,0.4867,0.5162,0.5473,0.5544,0.5702,0.5702,0.555,0.5315,0.5085,0.4771,0.4618,0.4543,0.4543,0.4776,0.4913,0.4706,0.4693,0.4691,0.4392,0.4385,0.4325,0.4377,0.4151,0.3915,0.3915,0.3132,0.2507,0.2275,0.196,0.1725,0.1491,0.1569,0.1726,0.2038,0.157,0.1335,0.1335,0.1492,0.1727,0.212,0.2589,0.2901,0.321,0.3443,0.3756,0.4151,0.4226,0.4691,0.5312,0.5237,0.5702,0.6402,0.6247,0.6318,0.6619,0.7395,0.7557,0.7633,0.951,0.917,0.874,0.8656,0.8472,0.838,0.8564,0.8472,0.8376,0.8292,0.8472,0.8564,0.8292,0.8476,0.8568,0.8568,0.8568,0.8656,0.8656,0.8656,0.8652,0.8911,0.8828,0.874,0.874,0.874,0.8472,0.7929,0.7845,0.7489,0.6691,0.6694,0.6605,0.6428,0.6428,0.6428,0.6428,0.6428,0.6517,0.6694,0.6694,0.6694,0.6694,0.6694,0.6694,0.6694,0.6694,0.6694,0.6694,0.6874,0.6786,0.6605,0.6602,0.6514,0.6458,0.6179,0.5672,0.524,0.5473,0.5628,0.586,0.5935,0.6089,0.6247,0.617,0.578,0.5389,0.5312,0.5002,0.4771,0.4618,0.4774,0.4844,0.4588,0.4459,0.4442,0.4264,0.438,0.4378,0.4455,0.454,0.4618,0.4618,0.407,0.3524,0.3215,0.3056,0.282,0.243,0.243,0.2665,0.3132,0.2196,0.1727,0.1727,0.2196,0.2586,0.2821,0.3526,0.3992,0.4224,0.4533,0.4844,0.5079,0.5229,0.5541,0.5857,0.6009,0.6318,0.663,0.6861,0.7011,0.708,0.7778,0.8016,0.8016,0.9781,0.9602,0.9345,0.874,0.8568,0.8568,0.8568,0.874,0.8823,0.8564,0.874,0.8823,0.8564,0.8568,0.8568,0.8568,0.8568,0.8652,0.8823,0.874,0.8652,0.8911,0.9087,0.9262,0.9262,0.9262,0.9262,0.917,0.8907,0.846,0.7658,0.7485,0.7048,0.6428,0.6428,0.6428,0.6428,0.6428,0.6782,0.7401,0.7401,0.7401,0.7401,0.7401,0.7401,0.7401,0.7401,0.7401,0.7492,0.8208,0.7852,0.7139,0.7845,0.7937,0.7701,0.7377,0.7046,0.663,0.624,0.6707,0.733,0.7103,0.7253,0.7249,0.6942,0.6788,0.663,0.6163,0.6086,0.5931,0.5318,0.5544,0.5422,0.418,0.4543,0.4724,0.4029,0.4397,0.4691,0.4698,0.501,0.5243,0.5243,0.4846,0.4533,0.4307,0.368,0.329,0.3054,0.3054,0.3134,0.3368,0.3132,0.2976,0.2976,0.3212,0.3444,0.3675,0.399,0.43,0.4688,0.4686,0.4919,0.5306,0.5306,0.5774,0.6483,0.5857,0.6553,0.7872,0.7399,0.7702,0.8546,0.8623,0.9008,0.9392,1.1419,1.0636,0.9946,0.9689,0.9345,0.9003,0.9003,0.8999,0.8911,0.8823,0.874,0.8652,0.8568,0.8568,0.8568,0.8568,0.8568,0.8656,0.874,0.8915,0.8999,0.8911,0.8999,0.9087,0.9087,0.9174,0.9262,0.9087,0.9087,0.8995,0.8723,0.8464,0.8288,0.8197,0.8021,0.7937,0.7937,0.7937,0.8028,0.8204,0.8204,0.8204,0.8204,0.8204,0.8204,0.8204,0.8204,0.8204,0.8204,0.8476,0.8388,0.812,0.8384,0.8388,0.8229,0.7875,0.7684,0.7561,0.7096,0.7176,0.7334,0.7492,0.7565,0.7484,0.7488,0.7099,0.6714,0.663,0.6395,0.6163,0.6086,0.5928,0.5526,0.5021,0.49,0.4758,0.4637,0.4902,0.5087,0.5246,0.5404,0.5479,0.5479,0.524,0.4849,0.446,0.4387,0.4229,0.3756,0.4224,0.4304,0.3992,0.4462,0.4304,0.3521,0.3988,0.43,0.4535,0.5162,0.5628,0.5857,0.6167,0.6321,0.6475,0.6626,0.6861,0.7176,0.7173,0.7557,0.8102,0.8093,0.8394,0.8703,0.8703,0.9084,0.9544,1.2448,1.1585,1.0895,1.0636,1.0033,0.9607,0.9607,0.9257,0.8999,0.8911,0.8828,0.874,0.8656,0.8652,0.8656,0.8568,0.8568,0.8568,0.8568,0.8999,0.917,0.9257,0.9257,0.9257,0.9257,0.9432,0.9345,0.9087,0.9345,0.9345,0.9174,0.9087,0.9087,0.9174,0.9087,0.8999,0.8999,0.8999,0.8915,0.8652,0.8652,0.8652,0.8568,0.8568,0.8568,0.8568,0.8568,0.8568,0.8568,0.8568,0.8568,0.8568,0.8568,0.8487,0.8345,0.8089,0.7923,0.7872,0.7642,0.7488,0.7492,0.7723,0.7718,0.7714,0.7953,0.7565,0.7176,0.7326,0.7169,0.693,0.6777,0.6468,0.6086,0.5854,0.547,0.5162,0.5082,0.524,0.5398,0.5401,0.5559,0.5637,0.5712,0.5553,0.5395,0.5082,0.5168,0.5012,0.4616,0.5162,0.5318,0.4851,0.5479,0.5476,0.4688,0.4921,0.5234,0.5547,0.6173,0.6641,0.6868,0.718,0.7257,0.7334,0.7407,0.7561,0.7642,0.7872,0.8255,0.8627,0.8851,0.915,0.9453,0.9453,0.9836,1.0293,1.2534,1.2448,1.2186,1.1413,1.0722,1.0294,1.0294,0.9777,0.9174,0.8911,0.9174,0.9087,0.8656,0.874,0.8828,0.8656,0.8568,0.8568,0.8568,0.8828,0.9257,0.9951,1.0038,1.0038,1.0038,1.0038,0.9864,0.9602,0.9602,0.9345,0.8911,0.9174,0.9174,0.8911,0.9174,0.9262,0.9262,0.9262,0.9174,0.8911,0.8911,0.8828,0.8568,0.8568,0.8568,0.8568,0.8568,0.8568,0.8568,0.8568,0.8568,0.8568,0.8564,0.8312,0.8012,0.8012,0.776,0.7561,0.7723,0.7804,0.7799,0.7787,0.7944,0.8178,0.8327,0.8403,0.8403,0.8403,0.8551,0.8394,0.7395,0.7399,0.7249,0.6395,0.624,0.6009,0.5398,0.547,0.5467,0.5082,0.5398,0.5712,0.5864,0.5941,0.6096,0.6563,0.5944,0.5637,0.5637,0.5786,0.5941,0.5941,0.618,0.6412,0.6641,0.6173,0.6173,0.6641,0.6788,0.7096,0.7484,0.7484,0.7484,0.7484,0.7484,0.7642,0.7804,0.7804,0.8551,0.9599,0.9599,1.0201,1.1111,1.1111,1.1484,1.1929,1.3659,1.3222,1.279,1.2528,1.1929,1.1327,1.0895,1.0381,0.9777,0.9262,0.8999,0.874,0.8656,0.8652,0.8656,0.8568,0.874,0.8911,0.9257,0.9345,0.9602,0.9951,0.9777,0.9689,0.9689,0.9864,0.9864,0.9602,0.9777,0.9777,0.9689,0.9432,0.9432,0.9689,0.9432,0.9345,0.9519,0.9519,0.9345,0.9174,0.9174,0.9174,0.9087,0.9087,0.9087,0.9087,0.9087,0.9087,0.9087,0.8911,0.8911,0.9065,0.8669,0.8287,0.7992,0.787,0.775,0.7723,0.7953,0.8106,0.825,0.8246,0.8025,0.803,0.8479,0.8403,0.8327,0.8699,0.8851,0.8851,0.8703,0.8403,0.8016,0.7783,0.7395,0.7084,0.7088,0.7088,0.7011,0.6784,0.6714,0.6641,0.6405,0.6096,0.5941,0.6096,0.6251,0.6331,0.6331,0.6865,0.7246,0.7246,0.7476,0.7629,0.7625,0.6637,0.6486,0.7026,0.6942,0.7173,0.7723,0.7561,0.7638,0.7944,0.8246,0.8551,0.8927,0.9448,0.9965,1.049,1.0576,1.0807,1.1111,1.1111,1.1484,1.2003,1.3737,1.3561,1.3307,1.3045,1.2699,1.2272,1.1843,1.1154,1.0549,1.012,0.9777,0.9519,0.9432,0.9519,0.9519,0.9432,0.9257,0.9345,0.9689,0.9602,0.9607,0.9864,0.9777,0.9777,0.9777,0.9951,0.9864,0.9602,0.9864,0.9864,0.9694,0.9607,0.9607,0.9694,0.9607,0.9602,0.9602,0.9689,0.9602,0.9432,0.9432,0.9345,0.9262,0.9262,0.9262,0.9262,0.9262,0.9262,0.9262,0.9087,0.9174,0.9222,0.8849,0.8493,0.8229,0.8045,0.7943,0.7953,0.8178,0.8327,0.8403,0.8637,0.8408,0.8331,0.8784,0.8708,0.856,0.8932,0.9084,0.9165,0.917,0.8941,0.8784,0.8784,0.847,0.8161,0.8089,0.8016,0.794,0.7561,0.7484,0.733,0.7099,0.6788,0.663,0.663,0.6942,0.7096,0.7169,0.7702,0.8008,0.8008,0.8237,0.8313,0.8313,0.771,0.7557,0.794,0.7859,0.8161,0.8627,0.8542,0.8618,0.8927,0.9226,0.9523,0.997,1.0415,1.0938,1.1391,1.1552,1.1781,1.2077,1.2077,1.2305,1.2599,1.3222,1.3652,1.3913,1.3215,1.313,1.3045,1.3045,1.21,1.1413,1.1327,1.1068,1.0895,1.0636,1.0809,1.0895,1.0636,1.0033,0.9777,1.0033,0.9602,0.9519,0.9777,0.9864,0.9951,1.0038,1.0038,0.9864,0.9602,0.9864,0.9777,0.9345,0.9777,0.9777,0.9349,0.9781,0.9777,0.9602,0.9864,0.9864,0.9602,0.9602,0.9519,0.9345,0.9345,0.9345,0.9345,0.9345,0.9345,0.9345,0.9345,0.9336,0.9196,0.8994,0.8805,0.8616,0.8418,0.8234,0.8178,0.8327,0.8403,0.8479,0.887,0.8865,0.8856,0.9246,0.9251,0.9099,0.9099,0.9246,0.9397,0.9099,0.9246,0.9322,0.9322,0.9322,0.9165,0.8632,0.8556,0.8322,0.771,0.7783,0.7859,0.7859,0.7859,0.7859,0.7859,0.7936,0.8008,0.8232,0.8456,0.8609,0.8609,0.877,0.8856,0.8856,0.9074,0.915,0.8998,0.9221,0.9523,0.9895,0.9895,1.0045,1.0265,1.034,1.0565,1.0932,1.1013,1.1613,1.2452,1.2519,1.2966,1.3564,1.3637,1.3637,1.3637,1.3913,1.3997,1.4082,1.3913,1.3828,1.3652,1.313,1.2528,1.1929,1.1413,1.0977,1.0636,1.0636,1.0636,1.0636,1.0636,1.0636,1.0809,1.0982,1.0376,1.0381,1.0895,0.9951,0.9777,1.0463,1.0125,0.9951,0.9951,0.9951,0.9951,0.9864,0.9777,0.9777,0.9868,0.9607,0.9519,0.9602,0.9689,0.9689,0.9602,0.9864,0.9864,0.9864,0.9864,0.9864,0.9864,0.9864,0.9864,0.9864,0.9864,0.9497,0.8989,0.8962,0.8765,0.8409,0.822,0.8137,0.8178,0.8327,0.8403,0.8479,0.887,0.8946,0.9018,0.9473,0.9771,0.9922,0.9771,1.0143,1.0293,0.9771,0.9771,0.9771,0.9771,0.9771,0.9695,0.9614,0.9544,0.9387,0.8775,0.8694,0.8623,0.8322,0.8399,0.847,0.847,0.8922,0.9216,0.9291,0.975,1.0056,1.0056,1.0062,1.0137,1.0137,1.0438,1.0207,0.9221,0.9448,0.975,1.0137,0.9976,1.0196,1.0732,1.118,1.17,1.2291,1.2893,1.3404,1.3768,1.3985,1.4201,1.4425,1.4705,1.4848,1.4919,1.3984,1.4153,1.4328,1.3984,1.4153,1.4237,1.3724,1.3392,1.3052,1.2528,1.2095,1.1837,1.1929,1.1929,1.1929,1.1843,1.1499,1.1413,1.1585,1.0982,1.0809,1.1241,1.0636,1.0549,1.1068,1.0467,1.0125,1.0038,1.0038,1.0038,1.0038,0.9864,0.9777,0.9777,0.9694,0.9602,0.9602,0.9777,0.9777,0.9777,0.9951,1.0038,1.0038,1.0038,1.0038,1.0038,1.0038,1.0038,1.0038,1.0038,0.989,0.9676,0.9558,0.9582,0.9511,0.9296,0.9236,0.9236,0.9013,0.8937,0.9013,0.9022,0.9099,0.917,0.9397,0.9846,1.0143,1.0067,1.0594,1.0962,1.0663,1.0438,1.0293,1.0293,1.0143,0.9992,0.9922,0.9992,0.9841,0.9311,0.9382,0.9382,0.9236,0.9079,0.915,0.9533,0.9599,0.975,0.9981,1.0438,1.0663,1.0663,1.0738,1.0738,1.0663,1.1111,1.1031,1.0276,1.0576,1.0875,1.1186,1.1099,1.1397,1.1929,1.2305,1.2746,1.3331,1.3775,1.4137,1.4482,1.4697,1.4911,1.5125,1.533,1.5401,1.5471,1.3964,1.4307,1.4559,1.3964,1.4307,1.465,1.4398,1.4243,1.3997,1.3737,1.347,1.33,1.3392,1.3398,1.3307,1.3143,1.2448,1.21,1.2186,1.1585,1.1327,1.1671,1.1408,1.1499,1.1843,1.1068,1.0467,1.0125,0.9951,0.9951,0.9951,0.9951,0.9864,0.9689,0.9864,0.9777,0.9602,0.9864,0.9951,0.9864,0.9951,0.9951,0.9951,0.9951,1.0038,1.0038,1.0038,1.0038,1.012,1.0082,1.0349,1.0621,1.0395,1.0475,1.0699,1.0576,1.0513,1.0368,0.9916,0.9771,0.9695,0.9397,0.9473,0.9695,0.9695,1.0067,1.0438,1.0293,1.1037,1.1558,1.1484,1.1186,1.0962,1.0962,1.0588,1.0293,1.0143,1.0143,1.0067,0.9695,0.9846,1.0067,1.0293,0.9906,0.9906,1.0513,1.0132,1.0051,1.0588,1.0812,1.0887,1.0887,1.1037,1.1037,1.0887,1.1409,1.1632,1.1484,1.1855,1.215,1.2305,1.2305,1.2673,1.3127,1.3273,1.363,1.4129,1.4129,1.4482,1.484,1.5054,1.5401,1.5816,1.5956,1.5965,1.5956,1.4566,1.465,1.465,1.4566,1.465,1.465,1.4398,1.4243,1.3997,1.3737,1.3476,1.3392,1.3398,1.3398,1.3392,1.3392,1.3222,1.3222,1.3222,1.2619,1.2448,1.3052,1.1929,1.1671,1.2534,1.2015,1.1327,1.0549,0.9946,0.9689,0.9689,0.9864,0.9951,0.9951,0.9777,0.9602,0.9602,0.9602,0.9519,0.9432,0.9868,0.9864,0.9689,0.9951,1.0038,1.0038,1.0038,1.0381,1.0778,1.0498,1.0776,1.1106,1.0852,1.061,1.0558,1.0524,1.0513,1.0519,1.0363,1.0519,1.0588,1.0594,1.0812,1.1111,1.1111,1.1335,1.1335,1.0812,1.1632,1.2305,1.1781,1.1632,1.1558,1.1558,1.1111,1.0738,1.0887,1.0519,1.0143,0.9916,1.0067,1.0293,1.0663,1.0812,1.0887,1.1037,1.0956,1.0962,1.1037,1.1186,1.126,1.1037,1.126,1.126,1.1037,1.1484,1.1706,1.1632,1.2077,1.2305,1.2305,1.2452,1.2673,1.2973,1.3492,1.3855,1.4129,1.4418,1.4569,1.4705,1.5638,1.5991,1.6123,1.6968,1.7254,1.7323,1.5082,1.5082,1.5082,1.5082,1.5082,1.4999,1.4741,1.4573,1.4321,1.3964,1.3808,1.3828,1.3828,1.3652,1.3561,1.3561,1.3483,1.3476,1.3568,1.3222,1.3137,1.3568,1.2875,1.2705,1.3222,1.2705,1.2266,1.1912,1.1569,1.1311,1.1311,1.1483,1.1235,1.0722,1.0636,1.0294,0.9864,0.9864,0.9777,0.9689,0.9951,0.9951,0.9864,0.9951,1.0038,1.0038,1.0038,1.0207,1.0453,1.0696,1.0923,1.1238,1.1532,1.1526,1.1484,1.1484,1.1484,1.1409,1.1111,1.1186,1.1186,1.0887,1.1111,1.1409,1.1409,1.1855,1.2157,1.1855,1.2526,1.3046,1.2746,1.2452,1.2224,1.2224,1.1781,1.1484,1.1558,1.1186,1.0738,1.0293,1.0293,1.0519,1.0738,1.1186,1.1335,1.1111,1.1706,1.1781,1.1111,1.1484,1.1558,1.126,1.1335,1.1335,1.126,1.1558,1.1706,1.1706,1.2003,1.2231,1.2452,1.2526,1.29,1.3419,1.3645,1.4,1.4418,1.4569,1.4784,1.5213,1.5903,1.6612,1.7176,1.752,1.7588,1.7657]}]]